[[{"header":{"parameterUnit":"m.s-1","parameterCategory":1,"la1":30.6,"la2":29.2853,"lo1":-89.7004,"lo2":-87.6739,"dy":0.0162,"dx":0.0183,"nx":112,"ny":82,"refTime":"2026-04-10T12:00:00:Z","depth":0,"parameterNumber":2,"parameterNumberName":"U-component_of_WINDS"},"data":[0.0,0.0,0.0,0.0,0.0,0.0,0.0,0.0,0.0,0.0,0.0,0.0,0.0,0.0,0.0,0.0,0.0,0.0,0.0,0.0,0.0,0.0,0.0,0.0,0.0,0.0,0.0,0.0,0.0,0.0,0.0,0.0,0.0,0.0,0.0,0.0,0.0,0.0,0.0,0.0,0.0,0.0,0.0,0.0,0.0,0.0,0.0,0.0,0.0,0.0,0.0,0.0,0.0,0.0,0.0,0.0,0.0,0.0,0.0,0.0,0.0,0.0,0.0,0.0,0.0,0.0,0.0,0.0,0.0,0.0,0.0,0.0,0.0,0.0,0.0,0.0,0.0,0.0,0.0,0.0,0.0,0.0,0.0,0.0,0.0,0.0,0.0,0.0,0.0,0.0,-2.4714,-2.8941,-3.266,-3.364,-3.0661,-2.8954,-2.6665,-2.3478,0.0,0.0,0.0,0.0,0.0,0.0,0.0,0.0,0.0,0.0,0.0,0.0,0.0,0.0,0.0,0.0,0.0,0.0,0.0,0.0,0.0,0.0,0.0,0.0,0.0,0.0,0.0,0.0,0.0,0.0,0.0,0.0,0.0,0.0,0.0,0.0,0.0,0.0,0.0,0.0,0.0,0.0,0.0,0.0,0.0,0.0,0.0,0.0,0.0,0.0,0.0,0.0,0.0,0.0,0.0,0.0,0.0,0.0,0.0,0.0,0.0,0.0,0.0,0.0,0.0,0.0,0.0,0.0,0.0,0.0,0.0,0.0,0.0,0.0,0.0,0.0,0.0,0.0,0.0,0.0,0.0,0.0,0.0,0.0,0.0,0.0,0.0,0.0,0.0,0.0,0.0,0.0,0.0,0.0,0.0,0.0,0.0,0.0,0.0,0.0,0.0,0.0,0.0,0.0,-2.6463,-3.1541,-3.3879,-3.4308,-3.2434,-3.0877,-2.8667,-2.5614,0.0,0.0,0.0,0.0,0.0,0.0,0.0,0.0,0.0,0.0,0.0,0.0,0.0,0.0,0.0,0.0,0.0,0.0,0.0,0.0,0.0,0.0,0.0,0.0,0.0,0.0,0.0,0.0,0.0,0.0,0.0,0.0,0.0,0.0,0.0,0.0,0.0,0.0,0.0,0.0,0.0,0.0,0.0,0.0,0.0,0.0,0.0,0.0,0.0,0.0,0.0,0.0,0.0,0.0,0.0,0.0,0.0,0.0,0.0,0.0,0.0,0.0,0.0,0.0,0.0,0.0,0.0,0.0,0.0,0.0,0.0,0.0,0.0,0.0,0.0,0.0,0.0,0.0,0.0,0.0,0.0,0.0,0.0,0.0,0.0,0.0,0.0,0.0,0.0,0.0,0.0,0.0,0.0,0.0,0.0,0.0,0.0,0.0,0.0,0.0,0.0,0.0,0.0,-2.5727,-2.9482,-3.2265,-3.441,-3.4676,-3.2211,-3.0594,-2.8223,-2.4766,-2.0692,0.0,0.0,0.0,0.0,0.0,0.0,0.0,0.0,0.0,0.0,0.0,0.0,0.0,0.0,0.0,0.0,0.0,0.0,0.0,0.0,0.0,0.0,0.0,0.0,0.0,0.0,0.0,0.0,0.0,0.0,0.0,0.0,0.0,0.0,0.0,0.0,0.0,0.0,0.0,0.0,0.0,0.0,0.0,0.0,0.0,0.0,0.0,0.0,0.0,0.0,0.0,0.0,0.0,0.0,0.0,0.0,0.0,0.0,0.0,0.0,0.0,0.0,0.0,0.0,0.0,0.0,0.0,0.0,0.0,0.0,0.0,0.0,0.0,0.0,0.0,0.0,0.0,0.0,0.0,0.0,0.0,0.0,0.0,0.0,0.0,0.0,0.0,0.0,0.0,0.0,0.0,0.0,0.0,0.0,0.0,0.0,0.0,0.0,0.0,0.0,0.0,0.0,-2.8669,-3.1859,-3.2792,-3.4848,-3.4954,-3.2,-3.0171,-2.7648,-2.406,-2.06,0.0,0.0,0.0,0.0,0.0,0.0,0.0,0.0,0.0,0.0,0.0,0.0,0.0,0.0,0.0,0.0,0.0,0.0,0.0,0.0,0.0,0.0,0.0,0.0,0.0,0.0,0.0,0.0,0.0,0.0,0.0,0.0,0.0,0.0,0.0,0.0,0.0,0.0,0.0,0.0,0.0,0.0,0.0,0.0,0.0,0.0,0.0,0.0,0.0,0.0,0.0,0.0,0.0,0.0,0.0,0.0,0.0,0.0,0.0,0.0,0.0,0.0,0.0,0.0,0.0,0.0,0.0,0.0,0.0,0.0,0.0,0.0,0.0,0.0,0.0,0.0,0.0,0.0,0.0,0.0,0.0,0.0,0.0,0.0,0.0,0.0,0.0,0.0,0.0,0.0,0.0,0.0,0.0,0.0,0.0,0.0,0.0,0.0,0.0,0.0,0.0,0.0,-2.9017,-3.2339,-3.3844,-3.5379,-3.5345,-3.2995,-3.0749,-2.8207,-2.5268,-2.0848,0.0,0.0,0.0,0.0,0.0,0.0,0.0,0.0,0.0,0.0,0.0,0.0,0.0,0.0,0.0,0.0,0.0,0.0,0.0,0.0,0.0,0.0,0.0,0.0,0.0,0.0,0.0,0.0,0.0,0.0,0.0,0.0,0.0,0.0,0.0,0.0,0.0,0.0,0.0,0.0,0.0,0.0,0.0,0.0,0.0,0.0,0.0,0.0,0.0,0.0,0.0,0.0,0.0,0.0,0.0,0.0,0.0,0.0,0.0,0.0,0.0,0.0,0.0,0.0,0.0,0.0,0.0,0.0,0.0,0.0,0.0,0.0,0.0,0.0,0.0,0.0,0.0,0.0,0.0,0.0,0.0,0.0,0.0,0.0,0.0,0.0,0.0,0.0,0.0,0.0,0.0,0.0,0.0,0.0,0.0,0.0,0.0,0.0,0.0,0.0,0.0,0.0,-2.9039,-3.2386,-3.3958,-3.5421,-3.518,-3.2455,-3.011,-2.7332,-2.3867,0.0,0.0,0.0,0.0,0.0,0.0,0.0,0.0,0.0,0.0,0.0,0.0,0.0,0.0,0.0,0.0,0.0,0.0,0.0,0.0,0.0,0.0,0.0,0.0,0.0,0.0,0.0,0.0,0.0,0.0,0.0,0.0,0.0,0.0,0.0,0.0,0.0,0.0,0.0,0.0,0.0,0.0,0.0,0.0,0.0,0.0,0.0,0.0,0.0,0.0,0.0,0.0,0.0,0.0,0.0,0.0,0.0,0.0,0.0,0.0,0.0,0.0,0.0,0.0,0.0,0.0,0.0,0.0,0.0,0.0,0.0,0.0,0.0,0.0,0.0,0.0,0.0,0.0,0.0,0.0,0.0,0.0,0.0,0.0,0.0,0.0,0.0,0.0,0.0,0.0,0.0,0.0,0.0,0.0,0.0,0.0,0.0,0.0,0.0,0.0,0.0,0.0,-2.4965,-2.9093,-3.2292,-3.3805,-3.5318,-3.4974,-3.1982,-2.9609,-2.6686,-2.289,0.0,0.0,0.0,0.0,0.0,0.0,0.0,0.0,0.0,0.0,0.0,0.0,0.0,0.0,0.0,0.0,0.0,0.0,0.0,0.0,0.0,0.0,0.0,0.0,0.0,0.0,0.0,0.0,0.0,0.0,0.0,0.0,0.0,0.0,0.0,0.0,0.0,0.0,0.0,0.0,0.0,0.0,0.0,0.0,0.0,0.0,0.0,0.0,0.0,0.0,0.0,0.0,0.0,0.0,0.0,0.0,0.0,0.0,0.0,0.0,0.0,0.0,0.0,0.0,0.0,0.0,0.0,0.0,0.0,0.0,0.0,0.0,0.0,0.0,0.0,0.0,0.0,0.0,0.0,0.0,0.0,0.0,0.0,0.0,0.0,0.0,0.0,0.0,0.0,0.0,0.0,0.0,0.0,0.0,0.0,0.0,0.0,0.0,0.0,0.0,0.0,0.0,-2.551,-2.9212,-3.2061,-3.3529,-3.5053,-3.4767,-3.172,-2.9398,-2.6496,0.0,0.0,0.0,0.0,0.0,0.0,0.0,0.0,0.0,0.0,0.0,0.0,0.0,0.0,0.0,0.0,0.0,0.0,0.0,0.0,0.0,0.0,0.0,0.0,0.0,0.0,0.0,0.0,0.0,0.0,0.0,0.0,0.0,0.0,0.0,0.0,0.0,0.0,0.0,0.0,0.0,0.0,0.0,0.0,0.0,0.0,0.0,0.0,0.0,0.0,0.0,0.0,0.0,0.0,0.0,0.0,0.0,0.0,0.0,0.0,0.0,0.0,0.0,0.0,0.0,0.0,0.0,0.0,0.0,0.0,0.0,0.0,0.0,0.0,0.0,0.0,0.0,0.0,0.0,0.0,0.0,0.0,0.0,0.0,0.0,0.0,0.0,0.0,0.0,0.0,0.0,0.0,0.0,0.0,0.0,0.0,0.0,0.0,0.0,0.0,0.0,0.0,0.0,-2.4663,-2.8408,-3.1295,-3.2744,-3.3823,-3.3433,-3.0938,-2.863,-2.59,-2.263,0.0,0.0,0.0,0.0,0.0,0.0,0.0,0.0,0.0,0.0,0.0,0.0,0.0,0.0,0.0,0.0,0.0,0.0,0.0,0.0,0.0,0.0,0.0,0.0,0.0,0.0,0.0,0.0,0.0,0.0,0.0,0.0,0.0,0.0,0.0,0.0,0.0,0.0,0.0,0.0,0.0,0.0,0.0,0.0,0.0,0.0,0.0,0.0,0.0,0.0,0.0,0.0,0.0,0.0,0.0,0.0,0.0,0.0,0.0,0.0,0.0,0.0,0.0,0.0,0.0,0.0,0.0,0.0,0.0,0.0,0.0,0.0,0.0,0.0,0.0,0.0,0.0,0.0,0.0,0.0,0.0,0.0,0.0,0.0,0.0,0.0,0.0,0.0,0.0,0.0,0.0,0.0,0.0,0.0,0.0,0.0,0.0,0.0,0.0,0.0,0.0,0.0,-2.4641,-2.8134,-3.0738,-3.193,-3.2747,-3.2134,-2.9581,-2.7845,-2.548,-2.2119,0.0,0.0,0.0,0.0,0.0,0.0,0.0,0.0,0.0,0.0,0.0,0.0,0.0,0.0,0.0,0.0,0.0,0.0,0.0,0.0,0.0,0.0,0.0,0.0,0.0,0.0,0.0,0.0,0.0,0.0,0.0,0.0,0.0,0.0,0.0,0.0,0.0,0.0,0.0,0.0,0.0,0.0,0.0,0.0,0.0,0.0,0.0,0.0,0.0,0.0,0.0,0.0,0.0,0.0,0.0,0.0,0.0,0.0,0.0,0.0,0.0,0.0,0.0,0.0,0.0,0.0,0.0,0.0,0.0,0.0,0.0,0.0,0.0,0.0,0.0,0.0,0.0,0.0,0.0,0.0,0.0,0.0,0.0,0.0,0.0,0.0,0.0,0.0,0.0,0.0,0.0,0.0,0.0,0.0,0.0,0.0,0.0,0.0,0.0,0.0,0.0,0.0,-2.5026,-2.8181,-3.0311,-3.1089,-3.1752,-3.0954,-2.8162,-2.7165,-2.5169,-2.163,0.0,0.0,0.0,0.0,0.0,0.0,0.0,0.0,0.0,0.0,0.0,0.0,0.0,0.0,0.0,0.0,0.0,0.0,0.0,0.0,0.0,0.0,0.0,0.0,0.0,0.0,0.0,0.0,0.0,0.0,0.0,0.0,0.0,0.0,0.0,0.0,0.0,0.0,0.0,0.0,0.0,0.0,0.0,0.0,0.0,0.0,0.0,0.0,0.0,0.0,0.0,0.0,0.0,0.0,0.0,0.0,0.0,0.0,0.0,0.0,-2.2652,-2.0902,0.0,0.0,0.0,0.0,0.0,0.0,0.0,0.0,0.0,0.0,0.0,0.0,0.0,0.0,0.0,0.0,0.0,0.0,0.0,0.0,0.0,0.0,0.0,0.0,0.0,0.0,0.0,0.0,0.0,0.0,0.0,0.0,0.0,0.0,0.0,0.0,0.0,0.0,0.0,0.0,-2.432,-2.7385,-2.9754,-3.1055,-3.0818,-3.0074,-2.884,-2.7486,-2.5609,-2.3086,-2.0636,0.0,0.0,0.0,0.0,0.0,0.0,0.0,0.0,0.0,0.0,0.0,0.0,0.0,0.0,0.0,0.0,0.0,0.0,0.0,0.0,0.0,0.0,0.0,0.0,0.0,0.0,0.0,0.0,0.0,0.0,0.0,0.0,0.0,0.0,0.0,0.0,0.0,0.0,0.0,0.0,0.0,0.0,0.0,0.0,0.0,0.0,0.0,0.0,0.0,0.0,0.0,0.0,0.0,0.0,0.0,0.0,0.0,0.0,0.0,-2.6308,-2.4087,0.0,0.0,0.0,0.0,0.0,0.0,0.0,0.0,0.0,0.0,0.0,0.0,0.0,0.0,0.0,0.0,0.0,0.0,0.0,0.0,0.0,0.0,0.0,0.0,0.0,0.0,0.0,0.0,0.0,0.0,0.0,0.0,0.0,0.0,0.0,0.0,0.0,0.0,0.0,0.0,-2.456,-2.7672,-2.9803,-3.0581,-3.0345,-2.9499,-2.8028,-2.6826,-2.5372,-2.3511,-2.1617,0.0,0.0,0.0,0.0,0.0,0.0,0.0,0.0,0.0,0.0,0.0,0.0,0.0,0.0,0.0,0.0,0.0,0.0,0.0,0.0,0.0,0.0,0.0,0.0,0.0,0.0,0.0,0.0,0.0,0.0,0.0,0.0,0.0,0.0,0.0,0.0,0.0,0.0,0.0,0.0,0.0,0.0,0.0,0.0,0.0,0.0,0.0,0.0,0.0,0.0,0.0,0.0,0.0,-3.2034,-3.2756,-3.4183,-3.345,-3.354,-3.4022,-3.1117,-2.8736,-2.683,-2.529,0.0,0.0,0.0,0.0,0.0,0.0,0.0,0.0,0.0,0.0,0.0,0.0,0.0,0.0,0.0,0.0,0.0,0.0,0.0,0.0,0.0,0.0,-2.6409,-2.599,-2.6081,-2.5413,-2.2203,0.0,0.0,0.0,0.0,0.0,0.0,0.0,0.0,0.0,0.0,0.0,-2.5238,-2.8297,-3.0156,-3.0277,-3.0074,-2.9161,-2.7266,-2.642,-2.5356,-2.3868,-2.2482,-2.0995,0.0,0.0,0.0,0.0,0.0,0.0,0.0,0.0,0.0,0.0,0.0,0.0,0.0,0.0,0.0,0.0,0.0,0.0,0.0,0.0,0.0,0.0,0.0,0.0,0.0,0.0,0.0,0.0,0.0,0.0,0.0,0.0,-2.2263,-2.3857,0.0,0.0,0.0,0.0,0.0,0.0,0.0,0.0,0.0,0.0,0.0,0.0,0.0,-3.2084,-3.2653,-3.3684,-3.4839,-3.6127,-3.6185,-3.6872,-3.8153,-3.8154,-3.8154,-3.8153,-3.7777,0.0,-3.0172,-2.9106,0.0,0.0,0.0,0.0,0.0,0.0,0.0,0.0,0.0,0.0,0.0,0.0,0.0,0.0,0.0,0.0,0.0,0.0,0.0,0.0,0.0,0.0,-2.8116,-2.8233,-2.8432,-2.8545,-2.8404,-2.6557,-2.4655,-2.378,-2.2493,-2.0846,0.0,0.0,0.0,0.0,0.0,0.0,-2.6067,-2.8599,-3.0345,-3.0987,-2.9924,-2.901,-2.8705,-2.7977,-2.6843,-2.5309,-2.4433,-2.2954,-2.074,-1.8564,0.0,0.0,0.0,0.0,0.0,0.0,0.0,0.0,0.0,0.0,0.0,0.0,0.0,0.0,0.0,0.0,0.0,0.0,0.0,0.0,0.0,0.0,0.0,0.0,0.0,0.0,0.0,0.0,0.0,-2.221,-2.418,-2.5578,-2.5718,-2.598,0.0,0.0,0.0,0.0,0.0,0.0,0.0,0.0,0.0,-3.3405,-3.4555,-3.578,-3.7114,-3.7748,-3.8582,-3.9537,-3.9572,-4.0068,-4.0959,-4.1028,-4.1028,-4.0959,-4.1028,-3.9513,-3.6693,-3.3547,-3.1274,-2.955,0.0,0.0,0.0,0.0,-2.7088,-2.7772,-2.8049,-2.7711,-2.7057,-2.638,0.0,0.0,0.0,0.0,0.0,0.0,0.0,-2.6301,-2.7564,-2.9268,-3.0587,-3.037,-3.0816,-3.125,-3.1206,-3.0217,-2.882,-2.7052,-2.531,-2.3549,-2.1656,-1.9261,0.0,0.0,0.0,-2.431,-2.734,-2.9844,-3.1292,-3.119,-3.0243,-2.9431,-2.9044,-2.8281,-2.7316,-2.6185,-2.5279,-2.3993,-2.216,-1.9504,-1.7652,0.0,0.0,0.0,0.0,0.0,0.0,0.0,0.0,0.0,0.0,0.0,0.0,0.0,0.0,0.0,0.0,0.0,0.0,0.0,0.0,0.0,0.0,0.0,0.0,0.0,0.0,0.0,0.0,-2.4996,-2.6672,-2.7923,-2.8169,-2.8619,0.0,0.0,0.0,0.0,0.0,0.0,-3.2217,-3.2468,-3.394,-3.6983,-3.7933,-3.9154,-4.0774,-4.1299,-4.1925,-4.2602,-4.2602,-4.2879,-4.3371,-4.3371,-4.3279,-4.3094,-4.3094,-4.2725,-4.1771,-3.7523,-3.4937,-3.346,-3.0936,-3.0566,-3.1336,-3.032,-3.0689,-3.1678,-3.1678,-3.1397,-3.0812,-2.9981,-2.8583,-2.7017,-2.5899,0.0,0.0,0.0,0.0,-2.8731,-2.9973,-3.1477,-3.2564,-3.2153,-3.2439,-3.281,-3.2783,-3.2631,-3.1834,-2.947,-2.7742,-2.6084,-2.4291,-2.1779,0.0,-2.3227,-2.4248,-2.5706,-2.8424,-3.0636,-3.1739,-3.1199,-3.0302,-2.9526,-2.897,-2.821,-2.7363,-2.6519,-2.5578,-2.4381,-2.2926,-2.0129,-1.8277,-1.755,0.0,0.0,0.0,0.0,0.0,0.0,0.0,0.0,0.0,0.0,0.0,0.0,0.0,0.0,0.0,0.0,0.0,0.0,0.0,0.0,0.0,0.0,0.0,0.0,0.0,0.0,0.0,0.0,0.0,-3.1935,-3.2844,0.0,0.0,0.0,0.0,-3.3059,-3.341,-3.4192,-3.5568,-3.6371,-3.7433,-3.8808,-4.0872,-4.2174,-4.2674,-4.3821,-4.4726,-4.5372,-4.5372,-4.5403,-4.5434,-4.5434,-4.5095,-4.4517,-4.4517,-4.4148,-4.3285,-4.0416,-3.8477,-3.703,-3.4998,-3.4227,-3.4289,-3.4227,-3.4659,-3.5244,-3.5244,-3.5214,-3.4998,-3.3583,-3.1397,-2.9119,-2.8411,-2.7296,0.0,0.0,-2.9212,-3.0566,-3.1917,-3.2782,-3.3336,-3.3306,-3.2872,-3.2678,-3.3602,-3.341,-3.2501,-3.0577,-2.9829,-2.8734,-2.6297,0.0,-2.4608,-2.5287,-2.6157,-2.7361,-2.9057,-3.0275,-3.0945,-3.0912,-2.9638,-2.8766,-2.8732,-2.8028,-2.7183,-2.6096,-2.535,-2.4177,-2.2492,-2.0391,-1.8634,-1.7334,-1.5977,0.0,0.0,0.0,0.0,0.0,0.0,0.0,0.0,0.0,0.0,0.0,0.0,0.0,0.0,0.0,0.0,0.0,0.0,0.0,0.0,0.0,0.0,0.0,0.0,0.0,0.0,0.0,0.0,-3.4786,-3.59,0.0,-3.7465,-3.6448,-3.6273,-3.7555,-3.7561,-3.8115,-3.9473,-4.0251,-4.1241,-4.2566,-4.3747,-4.4668,-4.5233,-4.5657,-4.5988,-4.6234,-4.6234,-4.6234,-4.6234,-4.5803,-4.5464,-4.5218,-4.4795,-4.4486,-4.4148,-4.2694,-4.134,-3.9985,-3.8354,-3.7707,-3.7677,-3.7246,-3.7215,-3.743,-3.743,-3.7153,-3.6476,-3.4691,-3.3488,-3.2475,-3.1305,-3.0628,-3.0443,-3.1366,-3.1982,-3.2567,-3.349,-3.395,-3.4135,-3.4135,-3.395,-3.3761,-3.3774,-3.3744,-3.3319,-3.1797,-3.1237,-3.0554,-2.9189,-2.7763,-2.7222,-2.8347,-2.8425,-2.8779,-2.9932,-3.0565,-3.0729,-3.0248,-2.9309,-2.8522,-2.8096,-2.7801,-2.6891,-2.5092,-2.4572,-2.3672,-2.2208,-2.0032,-1.8687,-1.8345,-1.6621,-1.5201,0.0,0.0,0.0,0.0,0.0,0.0,0.0,0.0,0.0,0.0,0.0,0.0,0.0,0.0,0.0,0.0,0.0,0.0,0.0,0.0,0.0,0.0,0.0,0.0,0.0,-3.3164,-3.6242,-3.7773,-3.9094,-4.0096,-4.0731,-3.9596,-3.9343,-4.0553,-4.0588,-4.097,-4.1894,-4.2571,-4.3433,-4.4579,-4.5464,-4.6265,-4.6942,-4.7157,-4.7281,-4.7281,-4.7281,-4.7157,-4.6911,-4.648,-4.6018,-4.5557,-4.5126,-4.4825,-4.4579,-4.4148,-4.3402,-4.2479,-4.1093,-4.057,-4.0478,-3.9801,-3.9554,-3.9493,-3.9,-3.8415,-3.7615,-3.6261,-3.5552,-3.4998,-3.4075,-3.346,-3.3244,-3.3921,-3.4106,-3.426,-3.4998,-3.4844,-3.4505,-3.4505,-3.432,-3.4012,-3.3664,-3.374,-3.3626,-3.2775,-3.2266,-3.175,-3.0911,-2.9785,-2.9242,-2.9958,-2.9722,-2.9563,-3.0003,-3.0257,-3.0245,-2.9748,-2.9049,-2.8404,-2.7953,-2.7501,-2.6571,-2.5042,-2.4105,-2.3169,-2.2251,-1.9878,-1.8679,-1.8841,-1.6831,-1.5307,-1.4323,0.0,0.0,0.0,0.0,0.0,0.0,0.0,0.0,0.0,0.0,0.0,0.0,0.0,0.0,0.0,0.0,0.0,0.0,0.0,0.0,0.0,0.0,0.0,-3.2769,-3.6531,-3.9683,-4.0925,-4.2466,-4.3341,-4.3198,-4.265,-4.2178,-4.1899,-4.2371,-4.2663,-4.2663,-4.3248,-4.3963,-4.4641,-4.5895,-4.6911,-4.7588,-4.8266,-4.8604,-4.8604,-4.8604,-4.8266,-4.7619,-4.7619,-4.688,-4.5618,-4.5588,-4.5218,-4.461,-4.461,-4.461,-4.4486,-4.3156,-4.2663,-4.2571,-4.1894,-4.1648,-4.1401,-4.0016,-3.9123,-3.8569,-3.8539,-3.7646,-3.6569,-3.6538,-3.5614,-3.472,-3.5367,-3.5552,-3.5706,-3.6322,-3.5521,-3.4536,-3.4536,-3.3983,-3.346,-3.3429,-3.3429,-3.3429,-3.3367,-3.2971,-3.2328,-3.1324,-3.1024,-3.0679,-2.9955,-2.9897,0.0,-2.9177,-2.9312,-2.947,-2.947,-2.884,-2.8403,-2.8371,-2.7136,-2.6256,-2.5956,-2.3985,-2.2729,-2.2574,-2.0031,-1.8636,-1.8679,-1.6673,-1.4944,-1.349,0.0,0.0,0.0,0.0,0.0,0.0,0.0,0.0,0.0,0.0,0.0,0.0,0.0,0.0,0.0,0.0,0.0,0.0,0.0,0.0,0.0,-3.2444,-3.4443,-3.4716,-3.8731,-4.1979,-4.2777,-4.4545,-4.5503,-4.497,-4.4761,-4.4452,-4.3883,-4.3963,-4.4048,-4.4048,-4.4202,-4.4603,-4.528,-4.6142,-4.6911,-4.7588,-4.8266,-4.8604,-4.8604,-4.8604,-4.8512,-4.8327,-4.7835,-4.7127,-4.6296,-4.5803,-4.5218,-4.461,-4.461,-4.461,-4.4579,-4.4172,-4.3741,-4.3316,-4.3131,-4.2417,-4.1463,-4.0536,-4.0105,-3.9859,-3.9367,-3.9,-3.8508,-3.7523,-3.6969,-3.6599,-3.6292,-3.623,-3.6261,-3.6445,-3.5891,-3.5244,-3.5244,-3.506,-3.4629,-3.3614,-3.3798,-3.3919,-3.2875,-3.2946,-3.2932,-3.2168,-3.2017,-3.1774,-3.1067,-3.0572,-3.0041,-2.941,-2.8955,-2.8692,-2.8692,-2.8972,-2.8731,-2.7759,-2.7767,-2.6967,-2.4906,-2.377,-2.2728,-2.1719,-2.0034,-1.8857,-1.8362,-1.7309,-1.6335,0.0,0.0,0.0,0.0,0.0,0.0,0.0,0.0,0.0,0.0,0.0,0.0,0.0,0.0,0.0,0.0,0.0,0.0,0.0,0.0,0.0,0.0,-3.5645,-3.7892,-3.8787,-4.1494,-4.3771,-4.4726,-4.6142,-4.6757,-4.608,-4.5741,-4.5311,-4.4671,-4.461,-4.461,-4.461,-4.461,-4.488,-4.5557,-4.6234,-4.6911,-4.7588,-4.8266,-4.8604,-4.8604,-4.8604,-4.8604,-4.8604,-4.8204,-4.765,-4.6973,-4.6296,-4.5618,-4.4972,-4.4733,-4.461,-4.461,0.0,0.0,0.0,0.0,-4.2761,-4.1555,-4.1124,-4.0751,-4.0443,-4.0043,-3.9705,-3.9275,-3.8262,-3.7523,-3.6938,-3.6261,-3.5891,-3.5737,-3.5984,-3.5553,-3.5152,-3.543,-3.5707,-3.5522,-3.4137,-3.4443,-3.4597,-3.3488,-3.3336,0.0,-3.3275,-3.2998,-3.2505,-3.1547,-3.0843,-3.0171,-2.9494,-2.8812,-2.8411,-2.8411,-2.8996,-2.9064,-2.8319,-2.835,0.0,0.0,0.0,-2.2459,-2.0535,-1.9703,0.0,0.0,0.0,0.0,0.0,0.0,0.0,0.0,-1.5798,-1.5928,0.0,0.0,0.0,0.0,0.0,0.0,0.0,0.0,0.0,0.0,0.0,0.0,0.0,0.0,0.0,0.0,-3.8662,-4.1463,-4.3531,-4.4486,-4.5372,-4.6573,-4.7311,-4.7465,-4.6788,-4.6111,-4.5434,-4.4764,-4.4641,-4.4603,-4.4733,-4.4641,0.0,0.0,0.0,-4.6911,-4.7588,-4.8266,-4.8604,-4.8604,-4.8604,-4.8604,-4.8604,-4.8604,-4.8235,-4.7558,-4.6973,-4.6296,-4.5526,-4.4941,-4.4671,-4.461,-4.461,-4.461,-4.4548,-4.387,-4.2854,-4.1801,-4.1648,0.0,0.0,-4.0536,-4.0105,-3.9459,-3.8816,-3.7738,-3.6569,-3.5891,-3.5244,-3.4874,-3.546,-3.5183,-3.4874,-3.5491,-3.6045,-3.6138,-3.4905,-3.509,-3.5306,-3.4628,-3.4014,-3.3798,-3.4412,-3.3952,-3.3059,-3.1732,-3.0936,-3.0233,-2.9494,-2.8812,-2.8442,-2.8504,-2.9095,0.0,-2.9494,-2.9058,-2.8381,-2.755,-2.4933,-2.2224,-1.9641,-1.961,-1.9286,-1.856,-1.9286,-1.9672,-1.9765,-2.0402,-2.0829,-2.0981,-1.9176,-1.8414,0.0,0.0,0.0,0.0,0.0,0.0,0.0,0.0,0.0,0.0,0.0,0.0,0.0,0.0,0.0,-3.82,-4.0693,-4.291,-4.491,-4.6234,-4.7127,-4.7373,-4.8019,-4.8142,-4.7465,-4.6788,-4.6111,-4.5434,-4.4918,-4.4856,-4.5372,-4.488,-4.5164,-4.6357,-4.6542,-4.6911,-4.7588,-4.8266,-4.8604,-4.8604,-4.8604,0.0,-4.8604,-4.8604,-4.8235,-4.7588,-4.7465,-4.6726,-4.5588,-4.5434,-4.5064,-4.461,-4.461,-4.461,-4.4548,-4.387,-4.3439,-4.3069,-4.1986,-4.1524,-4.1309,-4.0689,-4.0413,-4.0166,-3.949,-3.8754,0.0,-3.7307,-3.663,-3.6138,-3.6261,-3.6199,-3.6138,-3.6261,-3.6384,-3.6261,-3.5491,-3.5429,-3.5306,-3.4628,-3.4844,-3.4998,-3.4566,-3.4382,-3.3827,-3.2413,-3.1643,-3.0751,-2.9581,-2.8812,-2.8627,-2.915,-2.9802,-3.0202,-3.0202,-3.0597,-3.0074,-2.8319,-2.5641,-2.3148,-2.098,-2.1442,-2.1411,-2.0716,-2.1381,-2.1997,-2.2551,-2.2675,-2.3033,-2.3515,-2.1292,-2.0719,0.0,0.0,0.0,0.0,0.0,0.0,0.0,0.0,0.0,0.0,0.0,-3.2167,-3.4506,0.0,-3.8169,-4.0232,-4.2263,-4.4172,-4.5865,-4.6973,-4.7742,-4.8081,-4.8419,-4.8358,-4.7681,-4.7004,-4.6449,-4.6111,-4.5464,-4.5372,-4.6049,-4.5772,-4.5895,-4.6573,-4.6942,-4.725,-4.7619,-4.8266,-4.8604,-4.8604,-4.8604,-4.8604,-4.8604,-4.8604,-4.8419,-4.8081,-4.7742,-4.7034,-4.6049,-4.5372,-4.4918,-4.461,-4.461,-4.461,-4.4579,-4.424,-4.3901,-4.3501,-4.2854,-4.214,-4.1555,-4.1186,-4.0782,-4.0351,-3.9674,-3.9029,-3.8385,-3.7677,-3.6784,-3.6076,-3.6415,-3.623,-3.6076,-3.6415,-3.6753,-3.6815,-3.6138,-3.6261,-3.6292,-3.5645,-3.5768,-3.5799,-3.5121,-3.4998,-3.4506,-3.3121,-3.1767,-3.0658,-2.9986,-2.9002,-2.8535,-2.8873,-2.9802,-3.0386,-3.0386,-3.0412,-2.955,-2.7519,-2.5456,-2.3548,-2.1874,-2.212,-2.2151,-2.1812,-2.244,-2.3117,-2.3794,-2.4133,-2.4656,-2.525,-2.416,-2.345,0.0,0.0,0.0,0.0,0.0,0.0,0.0,-2.9673,-3.032,-3.2198,-3.4106,-3.5891,-3.7246,-3.9277,-4.1001,-4.1832,-4.3556,-4.5226,-4.6419,-4.7188,-4.7804,-4.8358,-4.8543,-4.8389,-4.7865,-4.7188,-4.6788,-4.6788,-4.6172,-4.608,-4.6757,-4.6788,-4.685,-4.6973,-4.7527,-4.7804,-4.7804,-4.8327,-4.8604,-4.8604,-4.8604,-4.8604,-4.8604,-4.8604,-4.8604,-4.8573,-4.7742,-4.7096,-4.648,-4.5126,-4.461,-4.461,-4.461,-4.461,-4.461,-4.461,-4.4271,-4.3778,-4.3655,-4.2786,-4.1771,-4.1648,-4.1124,-4.0382,-3.9859,-3.9247,-3.86,-3.8046,-3.6999,-3.6199,-3.6753,-3.6384,-3.6014,-3.6569,-3.6999,-3.7153,-3.6599,-3.6907,-3.7153,-3.6599,-3.6507,-3.6292,-3.5645,-3.5398,-3.4845,-3.3583,-3.1921,-3.0694,-3.0417,-2.9341,-2.8596,-2.8596,-2.9556,-3.0263,-3.0386,-2.9771,-2.8658,-2.6903,-2.561,-2.4256,-2.2748,-2.2809,-2.2748,-2.2501,-2.3148,-2.3887,-2.4687,-2.5219,-2.5988,-2.6911,-2.7003,-2.6088,-2.6865,-2.7796,-3.014,-3.149,-3.2351,-3.2998,0.0,-3.4289,-3.5121,-3.6538,-3.7954,-3.937,-4.0755,-4.1278,-4.1894,-4.3193,-4.4541,-4.5741,-4.648,-4.7188,-4.7619,-4.7711,-4.8235,-4.8573,-4.8512,-4.7896,-4.7496,-4.7496,-4.688,-4.6788,-4.7465,-4.7496,-4.7773,-4.8358,-4.845,-4.8512,-4.8512,-4.8573,-4.8604,-4.8604,-4.8604,-4.8604,-4.8604,-4.8604,-4.8604,-4.8543,-4.725,-4.6665,-4.648,-4.5126,-4.461,-4.461,-4.461,-4.461,-4.461,-4.461,-4.4579,-4.4425,-4.3809,-4.3094,-4.2386,-4.1801,-4.1124,-4.0474,-4.0413,-3.992,-3.9367,-3.9275,-3.8754,-3.82,-3.8262,-3.7769,-3.7307,-3.7369,-3.6999,-3.6569,-3.6507,-3.6569,-3.6569,-3.6507,-3.6507,-3.6292,-3.5645,-3.5028,-3.4351,-3.3521,-3.269,-3.1767,-3.054,-2.974,-2.9279,-2.9279,-2.9402,-2.974,-3.0356,-2.9771,-2.9058,-2.8227,-2.7457,-2.6164,-2.4164,-2.4656,-2.441,-2.3209,-2.3856,-2.4789,-2.6081,-2.6142,-2.7188,-2.9033,-2.9089,-2.8139,-2.9981,-3.0997,-3.3183,-3.4937,-3.6168,-3.7153,-3.7831,-3.8231,-3.8692,-3.9677,-4.094,-4.1955,-4.214,-4.2817,-4.3525,-4.4117,-4.5311,-4.6265,-4.6542,-4.7188,-4.7311,-4.6511,-4.6326,-4.6573,-4.7373,-4.7188,-4.7188,-4.7588,-4.7342,-4.7465,-4.8173,-4.8204,-4.8327,-4.8604,-4.8604,-4.8604,-4.8604,-4.8604,-4.8604,-4.8604,-4.8604,-4.8604,-4.8604,-4.8604,-4.8604,-4.8573,-4.7588,-4.6973,-4.6511,-4.5557,-4.4941,-4.461,-4.461,-4.461,-4.461,-4.461,-4.461,-4.4579,-4.4302,-4.3464,-4.2571,-4.2263,-4.1432,-4.0505,-4.0505,-4.029,-4.0074,-4.0074,-3.9582,-3.9059,-3.9059,-3.8292,-3.7492,-3.7492,-3.6999,-3.6507,-3.6507,-3.6815,-3.6969,-3.6569,-3.6815,-3.663,-3.5183,-3.469,-3.4135,-3.2998,-3.2228,-3.1459,-3.0509,-2.9802,-2.9402,-2.9402,-2.9402,-2.9679,-3.0325,-2.9771,-2.9095,-2.8442,-2.7765,-2.6842,-2.558,-2.5742,-2.5641,-2.5118,-2.5364,-2.598,-2.6965,-2.7311,-2.8172,-2.9402,-2.9802,-2.957,-3.211,-3.3611,-3.5768,-3.7615,-3.9216,-4.0509,-4.0966,-4.1247,-4.1463,-4.1801,-4.2823,-4.347,-4.2971,-4.3648,-4.4456,-4.4825,-4.5834,-4.6665,-4.685,-4.7127,-4.6973,-4.5988,-4.4941,-4.4733,-4.568,-4.6111,-4.6665,-4.7558,-4.7773,-4.8112,-4.8573,-4.8604,-4.8604,-4.8604,-4.8604,-4.8604,-4.8604,-4.8604,-4.8604,-4.8604,-4.8604,-4.8604,-4.8604,-4.8604,-4.8604,-4.8573,-4.7896,-4.7311,-4.6819,-4.5926,-4.5311,-4.4849,-4.4702,-4.461,-4.461,-4.461,-4.461,-4.461,-4.461,-4.3833,-4.2848,-4.2663,-4.1801,-4.0751,-4.0536,-4.0505,-4.0505,-4.0505,-4.0136,-3.9767,-3.9767,-3.8785,-3.7769,-3.7769,-3.7123,-3.6507,-3.6507,-3.6876,-3.7061,-3.6599,-3.6876,-3.6692,-3.5059,-3.4628,-3.4104,-3.2844,-3.2105,-3.1428,-3.0755,-2.995,-2.9402,-2.9402,-2.9218,-2.931,-2.9802,-2.9402,-2.8935,-2.8442,-2.795,-2.7365,-2.6688,-2.6626,-2.6626,-2.6657,-2.668,-2.7088,-2.795,-2.8442,-2.9119,-2.9981,-3.0474,-3.0755,-3.2813,-3.5337,-3.7738,-3.9123,-4.1001,-4.2509,-4.254,-4.3033,-4.3347,-4.2694,-4.3094,-4.3593,-4.3562,-4.3593,-4.4055,-4.5341,-4.6142,-4.6819,-4.7496,-4.7034,-4.6603,-4.6573,-4.4856,-4.3655,-4.3685,-4.4887,-4.6172,-4.7496,-4.8204,-4.8604,-4.8604,-4.8604,-4.8604,-4.8604,-4.8604,-4.8604,-4.8604,-4.8604,-4.8604,-4.8604,-4.8604,-4.8604,-4.8604,-4.8604,-4.8604,-4.8573,-4.7896,-4.7588,-4.7465,-4.6142,-4.5588,-4.5495,-4.4856,-4.461,-4.461,-4.461,-4.461,-4.461,-4.461,-4.4148,-4.347,-4.2817,-4.214,-4.1432,-4.072,-4.0505,-4.0505,-4.0505,-4.0474,-4.0474,-4.0474,-3.9459,-3.8477,-3.8477,-3.7461,-3.6507,-3.6507,-3.6507,-3.6507,-3.6507,-3.6507,-3.6292,-3.5614,-3.4936,-3.4258,-3.349,-3.2782,-3.2105,-3.1486,-3.0228,-2.9402,-2.9402,-2.8812,-2.8442,-2.8473,-2.8442,-2.8442,-2.8411,-2.8381,-2.8073,-2.7396,-2.7365,-2.7365,-2.7365,-2.7365,-2.8011,-2.9341,-2.9341,-3.0043,-3.1362,-3.1362,-3.1705,-3.4906,-3.7123,-3.9277,-4.1124,-4.2417,-4.3371,-4.3802,-4.4079,-4.4086,-4.3371,-4.3063,-4.294,-4.294,-4.3316,-4.3901,-4.4795,-4.6234,-4.7188,-4.6973,-4.7127,-4.6757,-4.5434,-4.4302,-4.3439,-4.2971,-4.4141,-4.5095,-4.5557,-4.7065,-4.7958,-4.7958,-4.8358,-4.8604,-4.8604,-4.8604,-4.8604,-4.8604,-4.8604,-4.8604,-4.8604,-4.8604,-4.8604,-4.8604,-4.8604,-4.8604,-4.8604,-4.8358,-4.8019,-4.7527,-4.6634,-4.5988,-4.5526,-4.4849,-4.461,-4.461,-4.461,-4.461,-4.461,-4.461,-4.4178,-4.3562,-4.3347,-4.2509,-4.1555,-4.1309,-4.0909,-4.0505,-4.0505,-4.0505,-4.0505,-4.0505,-3.9524,-3.8508,-3.8508,-3.7492,-3.6507,-3.6507,-3.6846,-3.703,-3.6569,-3.7215,-3.7338,-3.5768,-3.5337,-3.4599,-3.2967,-3.2167,-3.167,-3.1424,-3.0628,-2.9894,-2.9433,-2.9187,-2.8879,-2.8442,-2.8411,-2.8411,-2.8411,-2.8411,-2.8319,-2.8073,-2.8073,-2.8288,-2.8719,-2.875,-2.9181,-3.0048,-3.0505,-3.0966,-3.1424,-3.1859,-3.2167,-3.7372,-3.9498,-4.1401,-4.3217,-4.3987,-4.4456,-4.4849,-4.461,-4.3994,-4.31,-4.1955,-4.1217,-4.1463,-4.1648,-4.2294,-4.3994,-4.5711,-4.6911,-4.6942,-4.7342,-4.7034,-4.5495,-4.4517,-4.3716,-4.3002,-4.3747,-4.4363,-4.461,-4.6234,-4.7342,-4.7588,-4.8235,-4.8604,-4.8604,-4.8604,-4.8604,-4.8604,-4.8604,-4.8604,-4.8604,-4.8604,-4.8604,-4.8604,-4.8604,-4.8604,-4.8604,-4.8604,-4.8358,-4.7896,-4.6973,-4.6357,-4.5865,-4.5218,-4.4825,-4.4641,-4.4849,-4.4825,-4.461,-4.461,-4.4332,-4.3932,-4.3685,-4.2848,-4.1925,-4.1678,-4.1093,-4.0505,-4.0505,-4.0505,-4.0505,-4.0505,-3.9674,-3.8877,-3.8877,-3.7831,-3.6846,-3.6846,-3.6999,-3.6999,-3.6569,-3.7184,-3.7369,-3.6076,-3.546,-3.4628,-3.2998,-3.2167,-3.1736,-3.1736,-3.1182,-3.0689,-3.0505,-2.9827,-2.931,-2.915,-2.8688,-2.8411,-2.8411,-2.8411,-2.8411,-2.8411,-2.8411,-2.8842,-2.974,-2.974,-3.0202,-3.112,-3.1551,-3.1736,-3.1794,-3.2198,-3.2382,-4.0106,-4.235,-4.4055,-4.528,-4.5588,-4.5557,-4.5495,-4.4517,-4.3162,-4.1771,-3.9831,-3.8569,-3.9213,-3.8846,-3.9493,-4.2915,-4.4671,-4.6049,-4.7373,-4.7619,-4.7404,-4.6726,-4.5526,-4.4486,-4.3778,-4.3716,-4.3963,-4.461,-4.5865,-4.688,-4.7527,-4.8235,-4.8604,-4.8604,-4.8604,-4.8604,-4.8604,-4.8604,-4.8604,-4.8604,-4.8604,-4.8604,-4.8604,-4.8604,-4.8604,-4.8604,-4.8604,-4.8604,-4.8512,-4.7157,-4.6603,-4.6542,-4.5865,-4.5187,-4.4733,-4.5341,-4.5187,-4.4671,-4.4641,-4.461,-4.4517,-4.387,-4.3156,-4.2479,-4.1832,-4.1124,-4.0505,-4.0505,-4.0505,-4.0505,-4.0505,-3.9982,-3.949,-3.949,-3.8477,-3.7492,-3.7492,-3.6969,-3.6507,-3.6507,-3.6507,-3.6507,-3.6538,-3.546,-3.432,-3.3552,-3.2875,-3.2444,-3.2382,-3.1828,-3.1674,-3.229,-3.0658,-2.971,-3.0294,-2.9156,-2.8442,-2.8411,-2.8411,-2.8411,-2.8411,-2.8442,-2.9089,-3.0356,-3.0417,-3.1063,-3.2351,-3.2382,-3.2382,-3.2351,-3.2413,-3.2444,-4.2855,-4.4607,-4.5803,-4.5618,-4.5588,-4.5311,-4.4363,-4.3433,-4.2325,-4.0447,-3.8015,-3.6476,-3.7123,-3.7123,-3.7954,-4.0847,-4.371,-4.5895,-4.6726,-4.7711,-4.8112,-4.7434,-4.7034,-4.6357,-4.5187,-4.5064,-4.5157,-4.5311,-4.6111,-4.6665,-4.685,-4.7958,-4.8604,-4.8604,-4.8604,-4.8604,-4.8604,-4.8604,-4.8604,-4.8604,-4.8604,-4.8604,-4.8604,-4.8604,-4.8604,-4.8604,-4.8604,-4.8604,-4.8512,-4.7157,-4.6603,-4.6542,-4.5865,-4.5495,-4.5341,-4.5526,-4.5464,-4.5249,-4.4756,-4.461,-4.4579,-4.4425,-4.3556,-4.2571,-4.2417,-4.1494,-4.0505,-4.0505,-4.0505,-4.0505,-4.0505,-3.9982,-3.949,-3.949,-3.8477,-3.7492,-3.7492,-3.6969,-3.6507,-3.6507,-3.6507,-3.6661,-3.7153,-3.6107,-3.5028,-3.432,-3.3614,-3.2967,-3.2444,-3.2228,-3.2013,-3.1701,-3.1182,-3.0566,-2.971,-2.9341,-2.891,-2.8442,-2.8411,-2.8411,-2.8411,-2.8873,-2.9525,-3.0386,-3.0905,-3.1305,-3.167,-3.2167,-3.2136,-3.1701,-3.2659,-3.3152,-4.4611,-4.6098,-4.6942,-4.6573,-4.6265,-4.5588,-4.3994,-4.2602,-4.1032,-3.8692,-3.5799,-3.3919,-3.4568,-3.4691,-3.5676,-3.8692,-4.2048,-4.4603,-4.5588,-4.688,-4.7465,-4.6788,-4.6973,-4.6757,-4.568,-4.5865,-4.6018,-4.6018,-4.6388,-4.6726,-4.7034,-4.805,-4.8604,-4.8604,-4.8604,-4.8604,-4.8604,-4.8604,-4.8604,-4.8604,-4.8604,-4.8604,-4.8604,-4.8604,-4.8604,-4.8604,-4.8604,-4.8604,-4.8512,-4.7157,-4.6603,-4.6542,-4.5865,-4.5588,-4.5618,-4.5926,-4.5834,-4.5526,-4.5157,-4.4856,-4.461,-4.461,-4.3826,-4.2861,-4.2658,-4.1761,-4.0769,-4.0566,-4.047,-4.0401,-4.0401,-4.0056,-3.9711,-3.9711,-3.895,-3.8155,-3.8253,-3.7487,-3.6751,-3.6538,-3.6507,-3.6692,-3.7369,-3.6384,-3.5491,-3.5398,-3.4229,-3.3152,-3.2475,-3.2382,-3.2351,-3.229,-3.1736,-3.1336,-3.1182,-3.0628,-3.0104,-2.9735,-2.9981,-3.0012,-2.9735,-3.0074,-3.0597,-3.1274,-3.1059,-3.1089,-3.1424,-3.1794,-3.1921,-3.1859,-3.2906,-3.3583,-4.5784,-4.7043,-4.7681,-4.7527,-4.6973,-4.5895,-4.3716,-4.1524,-3.9182,-3.6507,-3.3152,-3.1023,-3.1828,-3.1982,-3.3152,-3.6661,-4.017,-4.291,-4.4141,-4.5557,-4.6234,-4.5649,-4.6172,-4.6419,-4.5895,-4.648,-4.688,-4.688,-4.688,-4.7065,-4.7588,-4.8235,-4.8604,-4.8604,-4.8604,-4.8604,-4.8604,-4.8604,-4.8604,-4.8604,-4.8604,-4.8604,-4.8604,-4.8604,-4.8604,-4.8604,-4.8512,-4.8481,-4.8358,-4.7034,-4.6449,-4.6419,-4.5803,-4.5649,-4.5803,-4.6388,-4.6234,-4.5672,-4.5579,-4.5118,-4.4534,-4.4534,-4.3952,-4.3128,-4.2726,-4.1918,-4.1015,-4.0642,-4.0358,-4.0191,-4.0191,-4.0016,-3.9839,-3.9839,-3.9355,-3.8875,-3.9017,-3.8053,-3.7053,-3.6599,-3.6507,-3.6692,-3.7369,-3.6445,-3.5829,-3.6415,-3.4814,-3.3275,-3.2505,-3.2382,-3.2598,-3.309,-3.2167,-3.1951,-3.3029,-3.2044,-3.1362,-3.1274,-3.189,-3.2013,-3.1424,-3.1551,-3.189,-3.2382,-3.1366,-3.0997,-3.1424,-3.1486,-3.1828,-3.2413,-3.3183,-3.3921,-4.7,-4.7845,-4.8173,-4.7065,-4.6265,-4.4941,-4.1771,-3.9062,0.0,-3.3675,-2.9981,-2.7796,-2.9612,-2.992,-3.1213,-3.5183,-3.9185,-4.2048,-4.2848,-4.4572,-4.5711,-4.5588,-4.6172,-4.6757,-4.7219,-4.7865,-4.8266,-4.8266,-4.8266,-4.8081,-4.7619,-4.8235,-4.8604,-4.8604,-4.8604,-4.8604,-4.8604,-4.8604,-4.8604,-4.8604,-4.8604,-4.8604,-4.8604,-4.8604,-4.8604,-4.8573,-4.8019,-4.7773,-4.7681,-4.6326,-4.5772,-4.5741,-4.5649,-4.5926,-4.6419,-4.6542,-4.6392,-4.6119,-4.5537,-4.4808,-4.4143,-4.4297,-4.3617,-4.2697,-4.2614,-4.17,-4.0704,-4.0613,-4.0226,-3.9768,-3.9595,-3.9271,-3.9017,-3.9017,-3.8513,-3.8038,-3.8251,-3.7613,-3.686,-3.6568,-3.6507,-3.6692,-3.7369,-3.6846,-3.6353,-3.6476,-3.5245,-3.3858,-3.2567,-3.2382,-3.2228,-3.1767,-3.2013,-3.2105,-3.1767,-3.152,-3.1151,-3.0602,-3.1182,-3.152,-3.1424,-3.2444,-3.2844,-3.2413,-3.2721,-3.2382,-3.1424,-3.1951,-3.229,-3.2413,-3.3735,-3.469,-4.7052,-4.7632,-4.7773,-4.6419,-4.5311,-4.3556,-3.9801,0.0,0.0,-3.149,-2.8165,-2.6226,-2.758,-2.8134,-2.9458,-3.2841,-3.6784,-3.9831,-4.0847,-4.2756,-4.4172,-4.4548,-4.5434,-4.6326,-4.7004,-4.8019,-4.8604,-4.8604,-4.8604,-4.8481,-4.8142,-4.845,-4.8604,-4.8604,-4.8604,-4.8604,-4.8604,-4.8604,-4.8604,-4.8604,-4.8604,-4.8604,-4.8604,-4.8604,-4.8604,-4.8573,-4.7896,-4.7619,-4.7496,-4.6142,-4.5588,-4.5557,-4.5226,-4.568,-4.6603,-4.6484,-4.6213,-4.587,-4.5445,-4.4409,-4.329,-4.314,-4.2892,-4.2594,-4.2198,-4.1555,-4.0855,-4.0285,-3.9943,-3.9609,-3.8959,-3.8546,-3.8315,-3.8211,-3.809,-3.7982,-3.7804,-3.7739,-3.7469,-3.6734,-3.668,-3.6868,-3.7174,-3.6685,-3.6348,-3.6715,-3.5615,-3.4239,-3.2894,-3.2767,-3.2453,-3.149,-3.1982,-3.2413,-3.2444,-3.2444,-3.2475,-3.2536,-3.3152,-3.3521,-3.3521,-3.4137,-3.4321,-3.4014,-3.3614,-3.309,-3.2444,-3.2752,-3.3121,-3.3519,-3.4566,-3.5398,-4.6547,-4.7093,-4.7219,-4.5557,-4.4178,-4.2114,-3.7984,-3.5153,0.0,-2.9396,-2.6472,-2.4718,-2.558,-2.6164,-2.7457,-3.0289,-3.4044,-3.7092,-3.8446,-4.0693,-4.2417,-4.31,-4.4486,-4.568,-4.6511,-4.7804,-4.8604,-4.8604,-4.8604,-4.8604,-4.8604,-4.8604,-4.8604,-4.8604,-4.8604,-4.8604,-4.8604,-4.8604,-4.8604,-4.8604,-4.8604,-4.8604,-4.8604,-4.8604,-4.8604,-4.8573,-4.7742,-4.7332,-4.72,-4.5848,-4.5295,-4.5225,-4.4826,-4.5409,-4.6475,-4.6316,-4.5889,-4.5368,-4.5108,-4.3832,-4.2333,-4.1881,-4.2005,-4.2205,-4.1598,-4.1134,-4.0694,-3.9945,-3.9594,-3.9235,-3.8332,-3.7835,-3.7519,-3.726,-3.7453,-3.7586,-3.7205,-3.7506,-3.7623,-3.6585,-3.6547,-3.6649,-3.6567,-3.6114,-3.5933,-3.6476,-3.554,-3.4332,-3.3125,-3.2971,-3.2568,-3.1573,-3.202,-3.2598,-3.3095,-3.3154,-3.349,-3.4169,-3.4876,-3.5367,-3.5491,-3.5645,-3.5675,-3.5521,-3.4414,-3.3767,-3.3644,-3.3644,-3.4014,-3.472,-3.5275,-3.5861,-4.5688,-4.6634,-4.7004,-4.4425,-4.2756,-4.0693,-3.6599,0.0,-2.9273,-2.7119,-2.3979,-2.2058,-2.3332,-2.364,-2.4779,-2.8134,-3.1551,-3.426,-3.5645,-3.8662,-4.0935,-4.1709,0.0,-4.5187,-4.648,-4.7804,-4.8604,-4.8604,-4.8604,-4.8604,-4.8604,-4.8604,-4.8604,-4.8604,-4.8604,-4.8604,-4.8604,-4.8604,-4.8604,-4.8604,-4.8604,-4.8604,-4.8604,-4.8604,-4.8604,-4.8543,-4.725,-4.6576,-4.6324,-4.4978,-4.4311,-4.4217,-4.4765,-4.5403,-4.6093,-4.6172,-4.5573,-4.4659,-4.4192,-4.2881,-4.1352,-4.0944,-4.0986,-4.1099,-4.0788,-4.0111,-3.9466,-3.9633,-3.9033,-3.8207,-3.798,-3.723,-3.6417,-3.5991,-3.6031,-3.6117,-3.5857,-3.6109,-3.6188,-3.5491,-3.5507,-3.5507,-3.5182,-3.5067,-3.5004,-3.5096,-3.4472,-3.3731,-3.2989,-3.2553,-3.2109,-3.1623,-3.2074,-3.2358,-3.2311,-3.2422,-3.2726,-3.3259,-3.4109,-3.4874,-3.5491,-3.6076,-3.6107,-3.5521,-3.5398,-3.5028,-3.4412,-3.4412,-3.4751,-3.5429,-3.5491,-3.5861,-4.4756,-4.568,-4.5834,-4.3556,-4.134,-3.8662,-3.4568,-3.0812,-2.7611,-2.5549,-2.3086,-2.172,-2.3055,-2.3302,-2.4287,-2.7303,-3.0258,-3.2841,-3.4659,-3.7092,-3.9247,-4.0786,-4.2048,-4.3464,-4.5218,-4.6603,-4.7742,-4.8543,-4.8604,-4.8604,-4.8604,-4.8604,-4.8604,-4.8604,-4.8604,-4.8604,-4.8604,-4.8604,-4.8604,-4.8604,-4.8604,-4.8604,-4.8604,-4.8604,-4.8604,-4.8543,-4.7067,-4.6213,-4.5769,-4.4276,-4.3698,-4.3796,-4.4035,-4.478,-4.565,-4.5446,-4.4618,-4.3502,-4.3019,-4.1627,-4.0055,-3.9706,-3.9574,-3.9618,-3.9924,-3.9644,-3.9141,-3.8683,-3.838,-3.7975,-3.705,-3.6605,-3.6157,-3.5493,-3.5763,-3.6076,-3.5745,-3.6053,-3.6304,-3.5759,-3.5955,-3.5927,-3.5091,-3.4853,-3.4703,-3.4433,-3.4076,-3.3632,-3.309,-3.2931,-3.2629,-3.202,-3.195,-3.2118,-3.2396,-3.2179,-3.2573,-3.4001,-3.4181,-3.4758,-3.6045,-3.6353,-3.6168,-3.5521,-3.5891,-3.5768,-3.5121,-3.5521,-3.583,-3.6076,-3.6076,-3.623,-4.3002,-4.4172,-4.4449,-4.2263,-3.9801,-3.6907,-3.2998,-2.9335,-2.6257,-2.4379,-2.2397,-2.135,-2.2501,-2.2717,-2.3548,-2.6072,-2.8381,-3.0689,-3.2995,-3.5214,-3.7369,-3.9367,-4.0601,-4.1986,-4.3833,-4.5588,-4.7117,-4.8429,-4.8563,-4.8604,-4.8604,-4.8604,-4.8604,-4.8604,-4.8604,-4.8604,-4.8604,-4.8604,-4.8604,-4.8604,-4.8604,-4.8563,-4.848,-4.8337,-4.8162,-4.7946,-4.6397,-4.5465,-4.4937,-4.3588,-4.3164,-4.3412,-4.3575,-4.4264,-4.5142,-4.4613,-4.3605,-4.2458,-4.1824,-4.0494,-3.9069,-3.889,-3.8666,-3.8575,-3.9042,-3.8934,-3.8505,-3.786,-3.7612,-3.7262,-3.6089,-3.5817,-3.5702,-3.5042,-3.5322,-3.5675,-3.5371,-3.5683,-3.5931,-3.551,-3.5784,-3.5742,-3.4746,-3.4448,-3.425,-3.3772,-3.3555,-3.3378,-3.3027,-3.3001,-3.2815,-3.2245,-3.1841,-3.1841,-3.2437,-3.1869,-3.2377,-3.4416,-3.4182,-3.4668,-3.6321,-3.6445,-3.6261,-3.5799,-3.6261,-3.6261,-3.5799,-3.6261,-3.6507,-3.6507,-3.6507,-3.6507,-4.0166,-4.2048,-4.2977,-4.0232,-3.8015,-3.5614,-3.2194,-2.8258,-2.4943,-2.3579,-2.172,-2.0535,-2.1196,-2.1319,-2.1997,-2.401,-2.5465,-2.7311,-3.0048,-3.2782,-3.5275,-3.7277,-3.9275,-4.1058,-4.2479,-4.5033,-4.7077,-4.8221,-4.848,-4.8604,-4.8604,-4.8604,-4.8604,-4.8604,-4.8604,-4.8604,-4.8604,-4.8604,-4.8604,-4.8604,-4.8604,-4.851,-4.8271,-4.7598,-4.7087,-4.6641,-4.5049,-4.4084,-4.3643,-4.2708,-4.2619,-4.305,-4.3445,-4.3949,-4.4435,-4.376,-4.2793,-4.1681,-4.0604,-3.9491,-3.8602,-3.8602,-3.8395,-3.8213,-3.8213,-3.7682,-3.7056,-3.7324,-3.6741,-3.5873,-3.5287,-3.4962,-3.4756,-3.4481,-3.4397,-3.4397,-3.4397,-3.4632,-3.4653,-3.4206,-3.4498,-3.4578,-3.3753,-3.3606,-3.3385,-3.2786,-3.2704,-3.2704,-3.2704,-3.2493,-3.2286,-3.2216,-3.168,-3.1526,-3.2167,-3.1456,-3.1929,-3.407,-3.3967,-3.4516,-3.6165,-3.6383,-3.6507,-3.6476,-3.6507,-3.6507,-3.6476,-3.6507,-3.6507,-3.6507,-3.6507,-3.6507,-3.7277,-3.8908,-3.9585,-3.7307,-3.5553,-3.349,-3.0104,-2.6903,-2.4256,-2.2871,-2.1381,-2.0641,-2.1781,-2.1997,-2.2624,-2.4635,-2.6164,-2.7857,-3.0079,-3.2752,-3.5275,-3.7246,-4.0006,-4.226,-4.3639,-4.5353,-4.6915,-4.8179,-4.848,-4.8604,-4.8604,-4.8604,-4.8604,-4.8604,-4.8604,-4.8604,-4.8604,-4.8604,-4.8604,-4.8604,-4.8469,-4.8187,-4.7776,-4.6858,-4.6062,-4.5416,-4.3868,-4.2934,-4.2481,-4.1722,-4.1924,-4.2732,-4.2665,-4.2935,-4.3286,-4.2703,-4.1486,-4.0156,-3.9646,-3.8852,-3.8129,-3.8129,-3.8057,-3.7965,-3.7965,-3.7815,-3.7501,-3.6955,-3.6088,-3.5325,-3.4974,-3.513,-3.5215,-3.4544,-3.4711,-3.4894,-3.4476,-3.4632,-3.4744,-3.46,-3.4914,-3.5035,-3.4524,-3.4426,-3.4072,-3.3073,-3.2936,-3.2837,-3.2427,-3.236,-3.2152,-3.1721,-3.1274,-3.1358,-3.213,-3.1613,-3.2222,-3.4612,-3.4538,-3.5234,-3.7083,-3.6917,-3.6685,-3.6507,-3.6507,-3.6261,-3.5829,-3.6261,-3.6507,-3.6507,-3.6969,-3.7184,-3.3583,-3.5183,-3.583,-3.4351,-3.2906,-3.1213,-2.8627,-2.5896,-2.3569,-2.2532,-2.119,-2.0558,-2.1701,-2.1935,-2.2501,-2.4256,-2.5487,-2.7119,-2.9648,-3.2382,-3.5276,-3.8499,-4.0878,-4.2846,-4.4269,-4.5553,-4.6793,-4.8095,-4.8438,-4.8604,-4.8604,-4.8604,-4.8604,-4.8604,-4.8604,-4.8563,-4.848,-4.848,-4.8438,-4.8355,-4.7817,-4.7286,-4.68,-4.548,-4.4426,-4.3602,-4.2424,-4.1653,0.0,-4.1038,-4.1483,-4.2272,-4.2001,-4.2159,-4.2395,-4.1509,-4.0394,-3.9289,-3.8912,-3.8392,-3.79,-3.79,-3.79,-3.79,-3.79,-3.7743,-3.737,-3.6323,-3.5653,-3.5061,-3.4726,-3.4895,-3.501,-3.4518,-3.4685,-3.4868,-3.4476,-3.4522,-3.4673,-3.4673,-3.4921,-3.5062,-3.4606,-3.4565,-3.4134,-3.295,-3.2826,-3.261,-3.2054,-3.2119,-3.1908,-3.1086,-3.0841,-3.0942,-3.1476,-3.1302,-3.2175,-3.4667,-3.471,-3.5488,-3.7242,-3.6944,-3.6698,-3.6655,-3.6474,-3.6199,-3.5891,-3.6292,-3.6507,-3.6507,-3.7184,-3.7492,0.0,-3.1028,-3.2013,-3.1274,-3.0228,-2.8965,-2.758,-2.5146,0.0,-2.2421,-2.1136,-2.0365,-2.1209,-2.1381,-2.1843,-2.3209,-2.404,-2.5703,-2.9002,-3.1924,-3.5615,-4.0746,-4.1931,-4.2933,-4.4509,-4.5698,-4.6773,-4.7873,-4.8343,-4.8563,-4.8563,-4.8532,-4.8501,-4.8501,-4.8398,-4.8346,-4.8229,-4.826,-4.8133,-4.7849,-4.6761,-4.5964,-4.5402,-4.3642,-4.2367,-4.1455,-4.0895,-4.0383,-4.0074,-4.0652,-4.1249,-4.17,-4.1425,-4.1521,-4.1659,-4.0272,-3.9428,-3.8926,-3.8352,-3.8057,-3.79,-3.79,-3.79,-3.79,-3.79,-3.7482,-3.6776,-3.573,-3.5365,-3.5182,-3.4607,-3.4424,-3.4397,-3.445,-3.445,-3.445,-3.445,-3.445,-3.445,-3.4397,-3.4632,-3.4653,-3.4219,-3.422,-3.3887,-3.2676,-3.2517,-3.2342,-3.1755,-3.186,-3.1559,-3.052,-3.0391,-3.0364,-3.0364,-3.0671,-3.1923,-3.4299,-3.4583,-3.5324,-3.6705,-3.6556,-3.66,-3.6965,-3.6557,-3.6443,-3.663,-3.663,-3.663,-3.6661,-3.7338,-3.7646,-2.4656,0.0,-2.9827,-2.8627,-2.8504,-2.8134,0.0,-2.447,-2.3049,-2.2421,-2.1136,-2.0518,-2.1824,-2.2058,-2.2655,-2.4533,-2.5887,-2.7488,-2.9833,-3.4144,-3.8488,-4.2267,-4.3039,-4.3844,-4.5232,-4.6079,-4.6803,-4.7392,-4.788,-4.8133,-4.8133,-4.7646,-4.7372,-4.7372,-4.6535,-4.6622,-4.7734,-4.7563,-4.7263,-4.6842,-4.5756,-4.4894,-4.4171,-4.2254,-4.1145,-4.0626,-3.9986,-3.9895,-4.026,-4.058,-4.0947,-4.124,-4.099,-4.0568,-4.0014,-3.9442,-3.882,-3.8175,-3.8018,-3.7946,-3.79,-3.79,-3.79,-3.79,-3.79,-3.7482,-3.6959,-3.6671,-3.5966,-3.526,-3.5129,-3.4737,-3.4528,-3.4972,-3.5077,-3.5077,-3.5077,-3.5077,-3.4946,-3.4476,-3.4632,-3.4744,-3.4653,-3.4791,-3.4592,-3.3675,-3.3688,-3.3488,-3.2788,-3.2425,-3.1856,-3.0753,-3.0218,-2.995,-2.995,-3.046,-3.164,-3.3659,-3.4463,-3.5328,-3.6368,-3.6649,-3.7074,-3.7714,-3.7892,-3.7983,-3.8046,-3.8046,-3.8046,-3.8046,-3.8723,-3.9031,-2.3117,-2.5149,-2.6903,-2.6164,-2.6257,-2.6134,-2.4718,-2.3263,-2.2114,-2.1898,-2.0885,-2.0434,-2.1621,-2.2033,-2.2865,-2.4866,-2.6589,-2.9078,-3.3262,-3.7107,-4.0659,-4.3927,-4.4427,-4.498,-4.6281,-4.6701,-4.686,-4.6784,-4.7206,-4.7422,-4.7306,-4.6791,-4.6473,-4.6359,-4.528,-4.5154,-4.6066,-4.5822,-4.5477,-4.504,-4.392,-4.3105,-4.2452,-4.1183,-4.0331,-3.9794,-3.9834,-3.9947,-4.0145,-4.0428,-4.0616,-4.0683,-4.0321,-3.9841,-3.9289,-3.8813,-3.8366,-3.79,-3.79,-3.79,-3.79,-3.79,-3.79,-3.79,-3.79,-3.7665,-3.7351,-3.709,-3.6567,-3.5966,-3.5443,-3.5051,-3.4894,-3.5208,-3.5286,-3.5286,-3.5286,-3.5286,-3.5129,-3.4528,-3.4522,-3.4632,-3.4632,-3.4714,-3.4545,-3.3869,-3.3871,-3.3674,-3.2949,-3.2409,-3.18,-3.094,-3.0296,-2.9953,-2.9953,-3.0308,-3.1378,-3.3238,-3.4158,-3.4992,-3.5909,-3.6108,-3.6635,-3.7564,-3.7755,-3.8004,-3.8345,-3.8039,-3.8102,-3.8539,-3.9216,-3.949,-2.3016,-2.3815,-2.443,-2.4451,-2.4604,-2.4594,-2.3897,-2.2653,-2.1641,-2.1688,-2.1045,-2.0697,-2.1565,-2.2183,-2.3264,-2.5346,-2.7534,-3.1122,-3.7304,-3.9793,-4.2115,-4.5212,-4.5432,-4.583,-4.6967,-4.694,-4.6474,-4.5756,-4.6094,-4.6226,-4.6065,-4.5607,-4.5266,-4.5151,-4.405,-4.3473,-4.3516,-4.3632,-4.3458,-4.2931,-4.194,-4.1146,-4.0673,-4.0232,-3.9719,-3.9222,-3.9991,-4.0182,-3.9965,-4.023,-4.0219,-4.0006,-3.9575,-3.917,-3.8826,-3.8352,-3.8057,-3.79,-3.79,-3.79,-3.79,-3.79,-3.79,-3.79,-3.79,-3.79,-3.7795,-3.7273,-3.7063,-3.6776,-3.5809,-3.5443,-3.5312,-3.5391,-3.5365,-3.5312,-3.5391,-3.5417,-3.526,-3.4763,-3.4659,-3.4633,-3.4554,-3.4528,-3.4345,-3.3796,-3.3718,-3.3535,-3.3012,-3.2385,-3.1719,-3.1182,-3.0529,-3.01,-3.01,-3.0283,-3.1096,-3.2749,-3.3598,-3.4416,-3.5372,-3.5517,-3.6049,-3.6998,-3.7079,-3.7422,-3.8047,-3.7626,-3.7816,-3.8593,-3.9336,-3.9644,-2.2554,-2.3954,-2.4941,-2.5084,-2.6041,-2.6726,-2.593,-2.5033,-2.4246,-2.37,-2.3031,-2.2758,-2.3456,-2.4167,-2.5468,-2.7929,-3.1425,-3.5182,-3.9066,-4.0226,-4.1897,-4.5212,-4.4796,-4.4757,-4.6066,-4.5167,-4.4298,-4.3746,-4.3818,-4.3921,-4.4023,-4.3272,-4.2926,-4.3139,-4.1653,-4.0637,-4.0096,-4.1491,-4.1973,-4.1425,-4.0595,-4.0005,-3.9685,-3.9435,-3.9354,-3.9542,-4.014,-4.0376,-4.0327,-4.0376,-3.9826,-3.8935,-3.883,-3.8516,-3.805,-3.7972,-3.7946,-3.79,-3.79,-3.79,-3.79,-3.79,-3.79,-3.79,-3.79,-3.79,-3.7874,-3.7795,-3.7403,-3.6959,-3.6776,-3.6018,-3.5417,-3.5861,-3.5626,-3.5417,-3.5887,-3.5992,-3.594,-3.5861,-3.5835,-3.5704,-3.5234,-3.5155,-3.4946,-3.4371,-3.4267,-3.4241,-3.4136,-3.3221,-3.2333,-3.1719,-3.0727,-3.01,-3.01,-3.0283,-3.0728,-3.1527,-3.2337,-3.3434,-3.4944,-3.5903,-3.6503,-3.6675,-3.7351,-3.7545,-3.737,-3.8095,-3.8607,-3.8964,-3.9876,-4.0351,-2.2545,-2.373,-2.4663,-2.5452,-2.6695,-2.7496,-2.6755,-2.5963,-2.5349,-2.5091,-2.4442,-2.4321,-2.5364,-2.6371,-2.8354,-3.2344,-3.5142,-3.7699,-4.0353,-4.1212,-4.2518,-4.5139,-4.4613,-4.4401,-4.53,-4.4342,-4.3195,-4.2216,-4.2262,-4.2306,-4.2234,-4.1675,-4.1339,-4.1355,-4.0156,-3.922,-3.8557,-3.9363,-3.9769,-3.9742,-3.9363,-3.9207,-3.9296,-3.9474,-3.9733,-4.0069,-4.0305,-4.0409,-4.0357,-3.9756,-3.9181,-3.8684,-3.8397,-3.8109,-3.79,-3.79,-3.79,-3.79,-3.79,-3.79,-3.79,-3.79,-3.79,-3.79,-3.79,-3.79,-3.79,-3.79,-3.7717,-3.7403,-3.709,-3.6619,-3.6201,-3.6123,-3.5913,-3.5809,-3.6044,-3.6096,-3.6096,-3.6096,-3.6096,-3.594,-3.5391,-3.5286,-3.5103,-3.4476,-3.4397,-3.4397,-3.4397,-3.3692,-3.296,-3.2359,-3.151,-3.1014,-3.1014,-3.1089,-3.1382,-3.1872,-3.2455,-3.3378,-3.4787,-3.5754,-3.6459,-3.6797,-3.7131,-3.7463,-3.7739,-3.8175,-3.8677,-3.9214,-3.9899,-4.0296,-2.2717,-2.3525,-2.4312,-2.5947,-2.7273,-2.8,-2.7491,-2.7146,-2.6916,-2.6814,-2.6314,-2.632,-2.7538,-2.8978,-3.1478,-3.5902,-3.7689,-3.9175,-4.1173,-4.1927,-4.2912,-4.4732,-4.4045,-4.3659,-4.4255,-4.3154,-4.1903,-4.0686,-4.074,-4.074,-4.0621,-4.0232,-4.0033,-3.9898,-3.915,-3.8485,-3.79,-3.79,-3.8083,-3.8421,-3.8421,-3.8568,-3.8833,-3.9386,-3.979,-4.0017,-4.0174,-4.0148,-3.9939,-3.9076,-3.8632,-3.8475,-3.8057,-3.79,-3.79,-3.79,-3.79,-3.79,-3.79,-3.79,-3.79,-3.79,-3.79,-3.79,-3.79,-3.79,-3.79,-3.79,-3.79,-3.7795,-3.7325,-3.7116,-3.6881,-3.6436,-3.6201,-3.6096,-3.6096,-3.6096,-3.6096,-3.6096,-3.6096,-3.594,-3.5391,-3.5286,-3.5103,-3.4476,-3.4397,-3.445,-3.458,-3.411,-3.3613,-3.3143,-3.2594,-3.2163,-3.2006,-3.2006,-3.2214,-3.2655,-3.2961,-3.3569,-3.4538,-3.5384,-3.6029,-3.647,-3.6505,-3.6862,-3.744,-3.7711,-3.8197,-3.8924,-3.9463,-3.9839,-2.3032,-2.3571,-2.4252,-2.6831,-2.8208,-2.8905,-2.8686,-2.9539,-3.015,-2.9469,-2.9342,-2.9549,-3.0131,-3.2169,-3.4513,-3.6709,-3.802,-3.9445,-4.1391,-4.1725,-4.2256,-4.3655,-4.2636,-4.2019,-4.2424,-4.092,-3.9639,-3.9105,-3.8889,-3.8889,-3.9043,-3.8836,-3.8836,-3.9007,-3.8485,-3.8122,-3.79,-3.79,-3.79,-3.7946,-3.7946,-3.7972,-3.7978,-3.8527,-3.8789,-3.8867,-3.9416,-3.9337,-3.8841,-3.8736,-3.8423,-3.7952,-3.7926,-3.79,-3.79,-3.79,-3.79,-3.79,-3.79,-3.79,-3.79,-3.79,-3.79,-3.79,-3.79,-3.79,-3.79,-3.79,-3.79,-3.79,-3.7848,-3.7429,-3.6985,-3.6959,-3.6515,-3.6096,-3.6096,-3.6096,-3.6096,-3.6096,-3.6096,-3.594,-3.5391,-3.5286,-3.5103,-3.4476,-3.4397,-3.4607,-3.5155,-3.4711,-3.4319,-3.4267,-3.3796,-3.3247,-3.2672,-3.2646,-3.2881,-3.3471,-3.3549,-3.3657,-3.3925,-3.4725,-3.5103,-3.4935,-3.5311,-3.5457,-3.533,-3.6507,-3.7171,-3.7383,-3.8429,-3.898,-2.3281,-2.361,-2.4029,-2.5884,-2.7545,-2.9038,-3.0216,-3.1477,-3.2466,-3.2617,-3.2976,-3.3216,-3.3036,-3.3986,-3.5448,-3.736,-3.8315,-3.9334,-4.0805,-4.1022,-4.1337,-4.231,-4.1497,-4.0884,-4.0974,-3.9857,-3.8908,-3.833,-3.8194,-3.8194,-3.8285,-3.8194,-3.8194,-3.8285,-3.8103,-3.7992,-3.79,-3.79,-3.79,-3.79,-3.79,-3.8083,-3.8423,-3.8632,-3.8919,-3.9259,-3.9102,-3.8919,-3.8684,-3.8344,-3.8083,-3.79,-3.79,-3.79,-3.79,-3.79,-3.79,-3.79,-3.79,-3.79,-3.79,-3.79,-3.79,-3.79,-3.79,-3.79,-3.79,-3.79,-3.79,-3.79,-3.79,-3.7743,-3.7482,-3.709,-3.6828,-3.6567,-3.6175,-3.6096,-3.6096,-3.6096,-3.6096,-3.594,-3.5391,-3.5286,-3.5103,-3.4476,-3.4397,-3.4607,-3.5208,-3.5103,-3.4816,-3.4424,-3.3927,-3.3509,-3.3273,-3.3561,-3.3849,-3.4084,-3.377,-3.3866,-3.4413,-3.4774,-3.502,-3.5144,-3.5464,-3.5632,-3.5726,-3.6721,-3.7215,-3.7263,-3.8049,-3.8538,-2.343,-2.346,-2.3729,-2.5465,-2.726,-2.9295,-3.1869,-3.3335,-3.4382,-3.522,-3.5905,-3.5989,-3.4916,-3.5274,-3.6219,-3.7564,-3.8292,-3.9114,-4.0251,-4.0417,-4.0557,-4.1019,-4.0435,-3.9958,-3.9807,-3.9105,-3.844,-3.7946,-3.79,-3.79,-3.79,-3.79,-3.79,-3.79,-3.79,-3.79,-3.79,-3.79,-3.79,-3.79,-3.79,-3.8109,-3.8449,-3.8449,-3.8684,-3.905,-3.8632,-3.8449,-3.8423,-3.8057,-3.79,-3.79,-3.79,-3.79,-3.79,-3.79,-3.79,-3.79,-3.79,-3.79,-3.79,-3.79,-3.79,-3.79,-3.79,-3.79,-3.79,-3.79,-3.79,-3.79,-3.79,-3.79,-3.7795,-3.7377,-3.7299,-3.7116,-3.6515,-3.6384,-3.6332,-3.6149,-3.6096,-3.5992,-3.5626,-3.5547,-3.5417,-3.4999,-3.4946,-3.5077,-3.5495,-3.573,-3.5678,-3.526,-3.4711,-3.4371,-3.4371,-3.458,-3.4685,-3.4685,-3.4162,-3.4114,-3.4647,-3.4673,-3.4839,-3.5208,-3.5386,-3.5656,-3.5978,-3.6693,-3.7046,-3.7123,-3.7596,-3.7938,-2.343,-2.3182,-2.3362,-2.5974,-2.7619,-2.9654,-3.3635,-3.504,-3.5908,-3.7195,-3.7799,-3.751,-3.5581,-3.6172,-3.7003,-3.7329,-3.799,-3.8839,-3.983,-3.9996,-3.9996,-3.9996,-3.9557,-3.9203,-3.8908,-3.8459,-3.8122,-3.79,-3.79,-3.79,-3.79,-3.79,-3.79,-3.79,-3.79,-3.79,-3.79,-3.79,-3.79,-3.79,-3.79,-3.79,-3.79,-3.79,-3.79,-3.79,-3.79,-3.79,-3.79,-3.79,-3.79,-3.79,-3.79,-3.79,-3.79,-3.79,-3.79,-3.79,-3.79,-3.79,-3.79,-3.79,-3.79,-3.79,-3.79,-3.79,-3.79,-3.79,-3.79,-3.79,-3.79,-3.79,-3.79,-3.79,-3.79,-3.7743,-3.7142,-3.7011,-3.6828,-3.6227,-3.6096,-3.6096,-3.6096,-3.6096,-3.6096,-3.6096,-3.6096,-3.6096,-3.6096,-3.6619,-3.6985,-3.6985,-3.6462,-3.6096,-3.6096,-3.56,-3.5286,-3.5286,-3.4737,-3.4397,-3.4397,-3.4397,-3.4548,-3.4797,-3.5003,-3.5331,-3.571,-3.6178,-3.6524,-3.6721,-3.6889,-3.7095,-2.4007,-2.4537,-2.5232,-2.7289,-2.9109,-3.1308,-3.4682,-3.6544,-3.8182,-4.0464,-4.0159,-3.9025,-3.7463,-3.7209,-3.7098,-3.6713,-3.711,-3.7693,-3.8442,-3.8512,-3.8512,-3.8512,-3.8376,-3.8285,-3.8194,-3.8057,-3.7965,-3.79,-3.79,-3.79,-3.79,-3.79,-3.79,-3.79,-3.79,-3.79,-3.79,-3.79,-3.79,-3.79,-3.79,-3.79,-3.79,-3.79,-3.79,-3.79,-3.79,-3.79,-3.79,-3.79,-3.79,-3.79,-3.79,-3.79,-3.79,-3.79,-3.79,-3.79,-3.79,-3.79,-3.79,-3.79,-3.79,-3.79,-3.79,-3.79,-3.79,-3.79,-3.79,-3.79,-3.79,-3.79,-3.79,-3.79,-3.79,-3.7743,-3.7142,-3.7011,-3.6828,-3.6227,-3.6096,-3.6096,-3.6096,-3.6096,-3.6096,-3.6096,-3.6096,-3.6096,-3.6096,-3.6253,-3.6384,-3.6384,-3.6201,-3.6096,-3.6096,-3.5208,-3.4842,-3.526,-3.4371,-3.4005,-3.4371,-3.4397,-3.4548,-3.4797,-3.4839,-3.5086,-3.5467,-3.5777,-3.6018,-3.6286,-3.6615,-3.6761,-2.4246,-2.5262,-2.6494,-2.8575,-3.0572,-3.2881,-3.6266,-3.8436,-4.0167,-4.1781,-4.1174,-3.9857,-3.8429,-3.7827,-3.7312,-3.6695,-3.6877,-3.729,-3.7815,-3.79,-3.79,-3.79,-3.79,-3.79,-3.79,-3.79,-3.79,-3.79,-3.7691,-3.7534,-3.7534,-3.7325,-3.7194,-3.7194,-3.7194,-3.7299,-3.7534,-3.7534,-3.7665,-3.79,-3.79,-3.79,-3.79,-3.79,-3.79,-3.79,-3.79,-3.79,-3.79,-3.79,-3.79,-3.79,-3.79,-3.79,-3.79,-3.79,-3.79,-3.79,-3.79,-3.79,-3.79,-3.79,-3.79,-3.79,-3.79,-3.79,-3.79,-3.79,-3.79,-3.79,-3.79,-3.79,-3.79,-3.79,-3.79,-3.7795,-3.7429,-3.7351,-3.7246,-3.6881,-3.6828,-3.6828,-3.6828,-3.6828,-3.6828,-3.6828,-3.6619,-3.6541,-3.6776,-3.6619,-3.6541,-3.6802,-3.6828,-3.6724,-3.6488,-3.56,-3.5129,-3.5286,-3.4659,-3.4424,-3.4737,-3.4528,-3.4481,-3.4632,-3.4632,-3.4839,-3.5168,-3.5345,-3.5656,-3.5938,-3.6405,-3.6524,-2.4224,-2.5627,-2.7305,-2.9707,-3.1884,-3.4358,-3.7941,-4.0182,-4.1506,-4.1576,-4.1094,-4.0232,-3.874,-3.8171,-3.7721,-3.7193,-3.7254,-3.7498,-3.7867,-3.79,-3.79,-3.79,-3.79,-3.79,-3.79,-3.79,-3.7874,-3.7821,-3.7299,-3.6985,-3.6933,-3.641,-3.6096,-3.6096,-3.6096,-3.6358,-3.6907,-3.6933,-3.7194,-3.7743,-3.7795,-3.7821,-3.7821,-3.7874,-3.79,-3.79,-3.79,-3.79,-3.79,-3.79,-3.79,-3.79,-3.79,-3.79,-3.79,-3.79,-3.79,-3.79,-3.79,-3.79,-3.79,-3.79,-3.79,-3.79,-3.79,-3.79,-3.79,-3.79,-3.79,-3.79,-3.79,-3.79,-3.79,-3.79,-3.79,-3.79,-3.79,-3.79,-3.79,-3.79,-3.79,-3.79,-3.79,-3.79,-3.79,-3.79,-3.7403,-3.7194,-3.7743,-3.7351,-3.722,-3.7769,-3.7874,-3.7691,-3.7142,-3.6488,-3.5913,-3.5469,-3.5365,-3.5312,-3.5365,-3.4842,-3.4554,-3.4554,-3.4502,-3.4627,-3.4956,-3.5068,-3.5397,-3.5832,-3.6263,-3.6491,-2.3903,-2.6046,-2.816,-2.9813,-3.2748,-3.5779,-3.7769,-3.8964,-3.9887,-4.0703,-4.0605,-4.0094,-3.9216,-3.882,-3.8443,-3.7825,-3.7749,-3.7789,-3.7874,-3.79,-3.79,-3.79,-3.79,-3.79,-3.79,-3.79,-3.7717,-3.722,-3.7063,-3.6802,-3.6332,-3.6175,-3.6096,-3.6096,-3.6096,-3.6175,-3.6305,-3.6305,-3.6358,-3.6488,-3.6959,-3.7194,-3.722,-3.7691,-3.79,-3.79,-3.79,-3.79,-3.79,-3.79,-3.79,-3.79,-3.79,-3.79,-3.79,-3.79,-3.79,-3.79,-3.79,-3.79,-3.79,-3.79,-3.79,-3.79,-3.79,-3.79,-3.79,-3.79,-3.79,-3.79,-3.79,-3.79,-3.79,-3.79,-3.79,-3.79,-3.79,-3.79,-3.79,-3.79,-3.79,-3.79,-3.79,-3.79,-3.79,-3.79,-3.7403,-3.7063,-3.7194,-3.709,-3.7063,-3.7194,-3.7612,-3.7848,-3.7717,-3.6724,-3.6253,-3.6619,-3.5783,-3.5495,-3.5913,-3.5809,-3.573,-3.573,-3.5312,-3.544,-3.6102,-3.5696,-3.5976,-3.6895,-3.7148,-3.7274,-2.3366,-2.5669,-2.8197,-3.1203,-3.3744,-3.5774,-3.656,-3.7418,-3.8233,-3.8793,-3.9355,-3.9662,-3.9149,-3.8819,-3.844,-3.7992,-3.79,-3.7795,-3.7508,-3.7482,-3.7351,-3.7063,-3.7037,-3.7037,-3.7037,-3.7037,-3.6907,-3.6593,-3.6332,-3.6044,-3.573,-3.5443,-3.5286,-3.5286,-3.5286,-3.5417,-3.5704,-3.573,-3.5835,-3.6096,-3.641,-3.6724,-3.7011,-3.7612,-3.79,-3.79,-3.79,-3.79,-3.79,-3.79,-3.79,-3.79,-3.79,-3.79,-3.79,-3.79,-3.79,-3.79,-3.79,-3.79,-3.79,-3.79,-3.79,-3.79,-3.79,-3.79,-3.79,-3.79,-3.79,-3.79,-3.79,-3.79,-3.79,-3.79,-3.79,-3.79,-3.79,-3.79,-3.79,-3.79,-3.79,-3.79,-3.79,-3.79,-3.79,-3.79,-3.7639,-3.7429,-3.7429,-3.7429,-3.7429,-3.7429,-3.7717,-3.7795,-3.7508,-3.6907,-3.6541,-3.6567,-3.6279,-3.6253,-3.6515,-3.6802,-3.6698,-3.6123,-3.5574,-3.5617,-3.6297,-3.5719,-3.5917,-3.6887,-3.7059,-3.723,-2.2718,-2.5168,-2.8133,-3.2544,-3.4283,-3.4979,-3.5257,-3.6044,-3.6724,-3.6828,-3.8007,-3.8953,-3.864,-3.8281,-3.7892,-3.7658,-3.7586,-3.7403,-3.6907,-3.6854,-3.6671,-3.6175,-3.6096,-3.6096,-3.6096,-3.6096,-3.607,-3.5966,-3.5547,-3.526,-3.5155,-3.4659,-3.4397,-3.4397,-3.4397,-3.4633,-3.5129,-3.5129,-3.5365,-3.5809,-3.5913,-3.6279,-3.6854,-3.7351,-3.7717,-3.79,-3.7795,-3.7795,-3.79,-3.79,-3.79,-3.79,-3.79,-3.79,-3.79,-3.79,-3.79,-3.79,-3.79,-3.79,-3.79,-3.79,-3.79,-3.79,-3.79,-3.79,-3.79,-3.79,-3.79,-3.79,-3.79,-3.79,-3.79,-3.79,-3.79,-3.79,-3.79,-3.79,-3.79,-3.79,-3.79,-3.79,-3.79,-3.79,-3.79,-3.79,-3.79,-3.79,-3.79,-3.79,-3.79,-3.79,-3.79,-3.7717,-3.7194,-3.7168,-3.6959,-3.6436,-3.6881,-3.7168,-3.7168,-3.7639,-3.7429,-3.6436,-3.5861,-3.5861,-3.641,-3.5861,-3.6018,-3.6788,-3.6936,-3.7224,-2.1777,-2.5163,-2.9013,-3.2098,-3.3073,-3.3647,-3.5031,-3.5417,-3.5652,-3.6123,-3.7206,-3.7926,-3.7355,-3.7206,-3.6978,-3.6436,-3.6358,-3.6305,-3.6227,-3.6227,-3.6201,-3.6123,-3.6096,-3.6096,-3.6096,-3.6096,-3.5913,-3.5443,-3.5338,-3.5077,-3.4554,-3.445,-3.4397,-3.4397,-3.4397,-3.4424,-3.4528,-3.4528,-3.4554,-3.4633,-3.5155,-3.5678,-3.6227,-3.6305,-3.6907,-3.7874,-3.7351,-3.7429,-3.79,-3.79,-3.79,-3.79,-3.79,-3.79,-3.79,-3.79,-3.79,-3.79,-3.79,-3.79,-3.79,-3.79,-3.79,-3.79,-3.79,-3.79,-3.79,-3.79,-3.79,-3.79,-3.79,-3.79,-3.79,-3.79,-3.79,-3.79,-3.79,-3.79,-3.79,-3.79,-3.79,-3.79,-3.79,-3.79,-3.79,-3.79,-3.79,-3.79,-3.79,-3.79,-3.79,-3.79,-3.79,-3.7874,-3.7795,-3.7795,-3.7743,-3.7665,-3.7743,-3.7795,-3.7795,-3.7874,-3.7821,-3.7665,-3.709,-3.7063,-3.7665,-3.7063,-3.7198,-3.7975,-3.8021,-3.8246,-2.1936,-2.5231,-2.8564,-3.1119,-3.2553,-3.3525,-3.4204,-3.4842,-3.5365,-3.56,-3.6305,-3.6802,-3.6541,-3.6488,-3.641,-3.6149,-3.6096,-3.5992,-3.5678,-3.5652,-3.5521,-3.5182,-3.5155,-3.5155,-3.5155,-3.5155,-3.5051,-3.4816,-3.4789,-3.4685,-3.4424,-3.4397,-3.4397,-3.4397,-3.4397,-3.4397,-3.4397,-3.4397,-3.4397,-3.4397,-3.4999,-3.5417,-3.5652,-3.5652,-3.6305,-3.7377,-3.7116,-3.7351,-3.79,-3.79,-3.79,-3.79,-3.79,-3.79,-3.79,-3.79,-3.79,-3.79,-3.79,-3.79,-3.79,-3.79,-3.79,-3.79,-3.79,-3.79,-3.79,-3.79,-3.79,-3.79,-3.79,-3.79,-3.79,-3.79,-3.79,-3.79,-3.79,-3.79,-3.79,-3.79,-3.79,-3.79,-3.79,-3.79,-3.79,-3.79,-3.79,-3.79,-3.79,-3.79,-3.79,-3.79,-3.79,-3.79,-3.79,-3.79,-3.79,-3.79,-3.79,-3.79,-3.79,-3.79,-3.79,-3.79,-3.7299,-3.7299,-3.79,-3.7299,-3.7344,-3.8011,-3.8011,-3.8213,-2.1537,-2.4435,-2.715,-2.9353,-3.1209,-3.2568,-3.2855,-3.3822,-3.4685,-3.4842,-3.5286,-3.5678,-3.5678,-3.5783,-3.5861,-3.5678,-3.5678,-3.5521,-3.5129,-3.5077,-3.4894,-3.445,-3.4397,-3.4397,-3.4397,-3.4397,-3.4397,-3.4397,-3.4397,-3.4397,-3.4397,-3.4397,-3.4397,-3.4397,-3.4397,-3.4397,-3.4397,-3.4397,-3.4397,-3.4397,-3.4868,-3.5077,-3.5077,-3.5077,-3.5626,-3.6567,-3.6567,-3.6985,-3.7665,-3.7665,-3.7769,-3.79,-3.79,-3.79,-3.79,-3.79,-3.79,-3.79,-3.79,-3.79,-3.79,-3.79,-3.79,-3.79,-3.79,-3.79,-3.79,-3.79,-3.79,-3.79,-3.79,-3.79,-3.7926,-3.8083,-3.8109,-3.8083,-3.7926,-3.79,-3.79,-3.79,-3.79,-3.79,-3.79,-3.79,-3.79,-3.79,-3.79,-3.79,-3.79,-3.79,-3.79,-3.79,-3.79,-3.79,-3.79,-3.79,-3.79,-3.79,-3.79,-3.79,-3.79,-3.79,-3.79,-3.79,-3.7456,-3.7456,-3.79,-3.7456,-3.7456,-3.79,-3.79,-3.8011,-1.9653,-2.206,-2.4726,-2.6484,-2.8237,-2.9833,-3.0869,-3.2019,-3.2986,-3.3561,-3.411,-3.4476,-3.4476,-3.4946,-3.5155,-3.458,-3.4476,-3.4476,-3.445,-3.445,-3.4424,-3.4397,-3.4397,-3.4397,-3.4397,-3.4397,-3.4397,-3.4397,-3.4397,-3.4397,-3.4397,-3.4397,-3.4397,-3.4397,-3.4397,-3.4397,-3.4397,-3.4397,-3.4397,-3.4397,-3.4424,-3.445,-3.445,-3.445,-3.4789,-3.5391,-3.5391,-3.6018,-3.7063,-3.7063,-3.7377,-3.79,-3.79,-3.79,-3.79,-3.79,-3.79,-3.79,-3.79,-3.79,-3.79,-3.79,-3.79,-3.79,-3.79,-3.79,-3.79,-3.79,-3.79,-3.79,-3.79,-3.79,-3.8031,-3.8553,-3.8658,-3.8527,-3.8004,-3.79,-3.79,-3.79,-3.79,-3.79,-3.79,-3.79,-3.79,-3.79,-3.79,-3.79,-3.79,-3.79,-3.79,-3.79,-3.79,-3.79,-3.79,-3.79,-3.79,-3.79,-3.79,-3.79,-3.79,-3.79,-3.79,-3.79,-3.7874,-3.7874,-3.79,-3.7874,-3.7874,-3.79,-3.79,-3.8011,-1.8819,-2.0544,-2.2349,-2.4021,-2.6065,-2.7844,-2.8595,-3.0241,-3.1862,-3.2829,-3.3483,-3.3979,-3.4345,-3.458,-3.4659,-3.4424,-3.4397,-3.4397,-3.4397,-3.4397,-3.4397,-3.4397,-3.4397,-3.4397,-3.4397,-3.4397,-3.4397,-3.4397,-3.4397,-3.4397,-3.4397,-3.4397,-3.4397,-3.4397,-3.4397,-3.4397,-3.4397,-3.4397,-3.4397,-3.4397,-3.4397,-3.4397,-3.4397,-3.4397,-3.4528,-3.4711,-3.4711,-3.56,-3.7011,-3.7011,-3.7351,-3.79,-3.79,-3.79,-3.79,-3.79,-3.79,-3.79,-3.79,-3.79,-3.79,-3.79,-3.79,-3.79,-3.79,-3.79,-3.79,-3.79,-3.79,-3.79,-3.79,-3.8161,-3.8579,-3.9155,-3.9285,-3.9233,-3.905,-3.8684,-3.8423,-3.8423,-3.8135,-3.8004,-3.837,-3.8423,-3.8553,-3.8945,-3.8998,-3.8998,-3.8998,-3.8998,-3.8998,-3.8998,-3.8998,-3.8998,-3.8998,-3.8998,-3.8998,-3.8998,-3.8998,-3.8841,-3.8449,-3.8423,-3.8266,-3.7926,-3.79,-3.79,-3.79,-3.79,-3.79,-3.79,-3.79,-3.7946,-1.7695,-1.9078,-2.0412,-2.1747,-2.3681,-2.5432,-2.6184,-2.8177,-3.0268,-3.181,-3.2751,-3.3509,-3.4267,-3.4397,-3.4397,-3.4397,-3.4397,-3.4397,-3.4397,-3.4397,-3.4397,-3.4397,-3.4397,-3.4397,-3.4397,-3.4397,-3.4397,-3.4397,-3.4397,-3.4397,-3.4397,-3.4397,-3.4397,-3.4397,-3.4397,-3.4397,-3.4397,-3.4397,-3.4397,-3.4397,-3.4397,-3.4397,-3.4397,-3.4397,-3.4397,-3.4397,-3.4397,-3.5286,-3.6698,-3.6698,-3.7168,-3.79,-3.79,-3.79,-3.79,-3.79,-3.79,-3.79,-3.79,-3.79,-3.79,-3.79,-3.79,-3.79,-3.79,-3.79,-3.79,-3.79,-3.79,-3.7952,-3.8135,-3.8736,-3.939,-3.9782,-4.0043,-4.0122,-3.9913,-3.9259,-3.871,-3.871,-3.8266,-3.8031,-3.837,-3.8579,-3.8841,-3.9259,-3.9494,-3.9599,-3.9599,-3.9599,-3.9599,-3.9599,-3.9599,-3.9599,-3.9599,-3.9599,-3.9599,-3.9599,-3.9599,-3.9442,-3.9024,-3.8815,-3.8527,-3.8187,-3.8004,-3.79,-3.79,-3.79,-3.79,-3.79,-3.79,-3.79,0.0,0.0,0.0,-1.9577,-2.1015,-2.2609,-2.3733,-2.5741,-2.8038,-3.0398,-3.181,-3.296,-3.4136,-3.4345,-3.4345,-3.4345,-3.4371,-3.4397,-3.4397,-3.4397,-3.4397,-3.4397,-3.4397,-3.4397,-3.4397,-3.4397,-3.4397,-3.4397,-3.4397,-3.4397,-3.4397,-3.4397,-3.4397,-3.4397,-3.4397,-3.4397,-3.4397,-3.4397,-3.4397,-3.4397,-3.4397,-3.4397,-3.4397,-3.4397,-3.4397,-3.4397,-3.4397,-3.5051,-3.6096,-3.6096,-3.6802,-3.79,-3.79,-3.79,-3.79,-3.79,-3.79,-3.79,-3.79,-3.79,-3.79,-3.79,-3.79,-3.79,-3.79,-3.79,-3.79,-3.79,-3.79,-3.8031,-3.8579,-3.9573,-4.0409,-4.0435,-4.088,-4.1141,-4.0566,-3.9547,-3.8736,-3.8736,-3.8318,-3.7952,-3.7952,-3.8397,-3.8762,-3.8762,-3.9285,-3.9651,-3.9651,-3.9651,-3.9651,-3.9651,-3.9651,-3.9651,-3.9651,-3.9651,-3.9651,-3.9651,-3.9651,-3.9651,-3.9625,-3.9076,-3.8736,-3.871,-3.8187,-3.7926,-3.79,-3.79,-3.79,-3.79,-3.79,-3.79,-1.6232,0.0,0.0,0.0,0.0,0.0,-2.0832,-2.3106,-2.5688,-2.7986,-2.9709,-3.1313,-3.2881,-3.3169,-3.3169,-3.3169,-3.3849,-3.4397,-3.4397,-3.4397,-3.4397,-3.4397,-3.4397,-3.4397,-3.4397,-3.4397,-3.4397,-3.4397,-3.4397,-3.4397,-3.4397,-3.4397,-3.4397,-3.4397,-3.4397,-3.4397,-3.4397,-3.4397,-3.4397,-3.4397,-3.4397,-3.4397,-3.4397,-3.4397,-3.4397,-3.4397,-3.4397,-3.5051,-3.6096,-3.6096,-3.6802,-3.79,-3.79,-3.79,-3.79,-3.79,-3.79,-3.79,-3.79,-3.79,-3.79,-3.79,-3.79,-3.79,-3.79,-3.79,-3.79,-3.79,-3.79,-3.8135,-3.9102,-3.9599,-4.0043,-4.0853,-4.0853,-4.0749,-4.101,-4.0174,-3.9364,-3.9364,-3.9233,-3.9128,-3.9128,-3.9573,-3.9939,-3.9939,-4.0461,-4.0853,-4.0853,-4.0853,-4.0853,-4.0853,-4.0853,-4.0853,-4.0853,-4.0853,-4.0853,-4.0853,-4.0853,-4.0644,-4.02,-4.0043,-3.9547,-3.8736,-3.8553,-3.8292,-3.79,-3.79,-3.79,-3.79,-3.79,-3.79,-1.6624,-1.7068,-1.746,-1.7539,0.0,0.0,-1.9342,-2.1302,-2.3681,-2.5981,-2.7654,-2.9222,-3.0947,-3.1261,-3.1261,-3.1261,-3.2228,-3.3221,-3.3953,-3.4267,-3.4397,-3.4397,-3.4397,-3.4397,-3.4397,-3.4397,-3.4397,-3.4397,-3.4397,-3.4397,-3.4397,-3.4397,-3.4397,-3.4397,-3.4397,-3.4397,-3.4397,-3.4397,-3.4397,-3.4397,-3.4397,-3.4397,-3.4397,-3.4397,-3.4397,-3.4397,-3.4397,-3.5051,-3.6096,-3.6096,-3.6802,-3.79,-3.79,-3.79,-3.79,-3.79,-3.79,-3.79,-3.79,-3.79,-3.79,-3.79,-3.79,-3.79,-3.79,-3.79,-3.79,-3.79,-3.8057,-3.8449,-3.9364,-3.9782,-4.0174,-4.1089,-4.1036,-4.0827,-4.0906,-4.0618,-4.0252,-3.9991,-3.9756,-3.9599,-3.9599,-4.0043,-4.0409,-4.0409,-4.0932,-4.1324,-4.1324,-4.1324,-4.1324,-4.1324,-4.1324,-4.1324,-4.1324,-4.1324,-4.1324,-4.1324,-4.1324,-4.1167,-4.0801,-4.054,-3.9991,-3.9102,-3.8841,-3.8449,-3.79,-3.79,-3.79,-3.79,-3.79,-3.79,-1.7486,-1.8244,-1.8872,-1.8323,-1.8506,0.0,-1.8741,-2.0022,-2.1851,-2.4076,-2.5437,-2.6745,-2.8386,-2.8699,-2.8699,-2.8699,-2.9755,-3.1182,-3.3117,-3.3927,-3.4319,-3.4397,-3.4397,-3.4397,-3.4397,-3.4397,-3.4397,-3.4397,-3.4397,-3.4397,-3.4397,-3.4397,-3.4397,-3.4397,-3.4397,-3.4397,-3.4397,-3.4397,-3.4397,-3.4397,-3.4397,-3.4397,-3.4397,-3.4397,-3.4397,-3.4397,-3.4397,-3.5051,-3.6096,-3.6096,-3.6802,-3.79,-3.79,-3.79,-3.79,-3.79,-3.79,-3.79,-3.79,-3.79,-3.79,-3.79,-3.79,-3.79,-3.79,-3.79,-3.79,-3.79,-3.824,-3.8762,-3.9442,-3.9965,-4.0488,-4.1167,-4.1272,-4.1089,-4.0618,-4.088,-4.1063,-4.0592,-4.0122,-3.9782,-3.9703,-4.0148,-4.0488,-4.0435,-4.0932,-4.1324,-4.1324,-4.1324,-4.1324,-4.1324,-4.1324,-4.1324,-4.1324,-4.1324,-4.1324,-4.1324,-4.1324,-4.1324,-4.1324,-4.0801,-4.0252,-3.9703,-3.905,-3.8449,-3.79,-3.79,-3.79,-3.79,-3.79,-3.79,-1.929,-1.9473,-1.9499,-1.8898,-1.8506,0.0,-1.7643,-1.8506,-1.9812,-2.1223,-2.2454,-2.3631,-2.4883,-2.5118,-2.5118,-2.5118,-2.6478,-2.8595,-3.1719,-3.3091,-3.3927,-3.4345,-3.4397,-3.4397,-3.4397,-3.4397,-3.4397,-3.4397,-3.4397,-3.4397,-3.4397,-3.4397,-3.4397,-3.4397,-3.4397,-3.4397,-3.4397,-3.4397,-3.4397,-3.4397,-3.4397,-3.4397,-3.4397,-3.4397,-3.4397,-3.4397,-3.4397,-3.5051,-3.6096,-3.6096,-3.6802,-3.79,-3.79,-3.79,-3.79,-3.79,-3.79,-3.79,-3.79,-3.79,-3.79,-3.79,-3.79,-3.79,-3.79,-3.79,-3.79,-3.79,-3.7978,-3.8292,-3.9337,-3.9677,-4.0043,-4.1063,-4.0958,-4.0697,-4.1063,-4.0853,-4.0697,-4.1063,-4.1063,-4.0827,-4.0357,-4.0749,-4.0984,-4.0488,-4.0932,-4.1324,-4.1324,-4.1324,-4.1324,-4.1324,-4.1324,-4.1324,-4.1324,-4.1324,-4.1324,-4.1324,-4.1324,-4.1324,-4.1324,-4.1193,-4.0853,-4.0278,-3.9233,-3.8449,-3.79,-3.79,-3.79,-3.79,-3.79,-3.79,-2.0649,-2.0649,-2.044,-1.9577,-1.8924,0.0,0.0,-1.7878,-1.8741,-1.9627,-2.0517,-2.138,-2.2217,-2.2401,-2.2401,-2.2401,-2.3838,-2.5772,-2.8098,-3.066,-3.2594,-3.3456,-3.3535,-3.3535,-3.3535,-3.3535,-3.3535,-3.3535,-3.3535,-3.3666,-3.3979,-3.4005,-3.411,-3.4397,-3.4397,-3.4397,-3.4397,-3.4397,-3.4397,-3.4397,-3.4397,-3.4397,-3.4397,-3.4397,-3.4397,-3.4397,-3.4397,-3.5051,-3.6096,-3.6096,-3.6802,-3.79,-3.79,-3.79,-3.79,-3.79,-3.79,-3.79,-3.79,-3.79,-3.79,-3.79,-3.79,-3.79,-3.79,-3.79,-3.79,-3.79,-3.8109,-3.8501,-3.939,-3.9808,-4.0226,-4.1115,-4.1089,-4.0958,-4.1246,-4.1089,-4.0958,-4.1246,-4.1324,-4.1219,-4.0906,-4.1115,-4.1219,-4.0906,-4.1115,-4.1324,-4.1324,-4.1324,-4.1324,-4.1324,-4.1324,-4.1324,-4.1324,-4.1324,-4.1324,-4.1324,-4.1324,-4.1324,-4.1324,-4.1324,-4.1036,-4.0435,-3.9599,-3.9024,-3.8762,-3.8762,-3.8475,-3.79,-3.79,-3.79,-2.2165,-2.2086,-2.1721,-2.044,-1.9603,-1.8741,0.0,0.0,0.0,-1.8479,-1.895,-1.9447,-1.9941,-2.0044,-2.0044,-2.0044,-2.1328,-2.2792,-2.3997,-2.7164,-3.0006,-3.181,-3.2123,-3.2254,-3.2359,-3.2463,-3.2489,-3.2359,-3.2463,-3.2751,-3.3221,-3.3456,-3.3796,-3.4214,-3.4345,-3.4397,-3.4397,-3.4397,-3.4397,-3.4397,-3.4397,-3.4397,-3.4397,-3.4397,-3.4397,-3.4397,-3.4397,-3.5051,-3.6096,-3.6096,-3.6802,-3.79,-3.79,-3.79,-3.79,-3.79,-3.79,-3.79,-3.79,-3.79,-3.79,-3.79,-3.79,-3.79,-3.79,-3.79,-3.7926,-3.8031,-3.837,-3.8867,-3.9573,-4.0095,-4.0566,-4.1167,-4.1324,-4.1324,-4.1324,-4.1324,-4.1324,-4.1324,-4.1324,-4.1324,-4.1324,-4.1324,-4.1324,-4.1324,-4.1324,-4.1324,-4.1324,-4.1324,-4.1324,-4.1324,-4.1324,-4.1324,-4.1324,-4.1324,-4.1324,-4.1324,-4.1324,-4.1324,-4.1324,-4.1324,-4.1036,-4.0435,-3.9991,-3.9703,-3.9599,-3.9599,-3.9128,-3.824,-3.824,-3.824,-2.4599,-2.4204,-2.3391,-2.1747,-2.0518,-1.9264,-1.7591,0.0,-1.7329,-1.7382,0.0,-1.7512,-1.7565,0.0,0.0,-1.7591,-1.861,-1.9812,-2.1014,-2.2426,-2.4962,-2.917,-3.0111,-3.0634,-3.113,-3.1627,-3.1693,-3.1209,-3.1615,-3.1928,-3.2006,-3.3038,-3.3613,-3.3692,-3.4136,-3.4397,-3.4397,-3.4397,-3.4397,-3.4397,-3.4397,-3.4397,-3.4397,-3.4397,-3.4397,-3.4397,-3.4397,-3.5051,-3.6096,-3.6096,-3.6802,-3.79,-3.79,-3.79,-3.79,-3.79,-3.79,-3.79,-3.79,-3.79,-3.79,-3.79,-3.79,-3.79,-3.79,-3.79,-3.8004,-3.8475,-3.8658,-3.8972,-4.0043,-4.0357,-4.0566,-4.1167,-4.1324,-4.1324,-4.1324,-4.1324,-4.1324,-4.1324,-4.1324,-4.1324,-4.1324,-4.1324,-4.1324,-4.1324,-4.1324,-4.1324,-4.1324,-4.1324,-4.1324,-4.1324,-4.1324,-4.1324,-4.1324,-4.1324,-4.1324,-4.1324,-4.1324,-4.1324,-4.1324,-4.1324,-4.1036,-4.0435,-4.0357,-4.0095,-3.9599,-3.9599,-3.9547,-3.9416,-3.9416,-3.9416,-2.5458,-2.4805,-2.3678,-2.1956,-2.091,-1.9863,-1.8114,-1.7957,-1.8192,-1.8192,0.0,0.0,0.0,0.0,0.0,0.0,-1.8375,-1.9081,-1.9601,-2.0361,-2.2243,-2.585,-2.7079,-2.796,-2.8882,-2.9161,-2.9213,-2.9013,-2.9161,-2.9761,-3.0753,-3.1627,-3.2542,-3.3561,-3.3822,-3.4084,-3.4397,-3.4397,-3.4397,-3.4397,-3.4397,-3.4397,-3.4397,-3.4397,-3.4397,-3.4397,-3.4397,-3.5051,-3.6096,-3.6096,-3.6802,-3.79,-3.79,-3.79,-3.79,-3.79,-3.79,-3.79,-3.79,-3.79,-3.79,-3.79,-3.79,-3.79,-3.79,-3.8109,-3.8423,-3.8658,-3.9181,-3.9808,-4.0305,-4.0671,-4.101,-4.1246,-4.1324,-4.1324,-4.1324,-4.1324,-4.1324,-4.1324,-4.1324,-4.1324,-4.1324,-4.1324,-4.1324,-4.1324,-4.1324,-4.1324,-4.1324,-4.1324,-4.1324,-4.1324,-4.1324,-4.1324,-4.1324,-4.1324,-4.1324,-4.1324,-4.1324,-4.1324,-4.1324,-4.1324,-4.1193,-4.0958,-4.0932,-4.0827,-4.0592,-4.0592,-4.0592,-4.0592,-3.9913,-3.9599,-2.6315,-2.5427,-2.4096,-2.2243,-2.1328,-2.0412,-1.8532,-1.8636,-1.9159,-1.9159,-1.929,0.0,0.0,0.0,0.0,0.0,0.0,-1.8636,-1.8453,-1.8819,-2.01,-2.2844,-2.4465,-2.5715,-2.6739,-2.6942,-2.702,-2.702,-2.721,-2.7915,-2.9317,-3.0424,-3.1627,-3.3064,-3.343,-3.3849,-3.4397,-3.4397,-3.4397,-3.4397,-3.4397,-3.4397,-3.4397,-3.4397,-3.4397,-3.4397,-3.4397,-3.5051,-3.6096,-3.6096,-3.6802,-3.79,-3.79,-3.79,-3.79,-3.79,-3.79,-3.79,-3.79,-3.79,-3.79,-3.79,-3.79,-3.79,-3.79,-3.8266,-3.8736,-3.8919,-3.9651,-4.0461,-4.0618,-4.0984,-4.1324,-4.1324,-4.1324,-4.1324,-4.1324,-4.1324,-4.1324,-4.1324,-4.1324,-4.1324,-4.1324,-4.1324,-4.1324,-4.1324,-4.1324,-4.1324,-4.1324,-4.1324,-4.1324,-4.1324,-4.1324,-4.1324,-4.1324,-4.1324,-4.1324,-4.1324,-4.1324,-4.1324,-4.1324,-4.1324,-4.1324,-4.1324,-4.1324,-4.1324,-4.1324,-4.1324,-4.1324,-4.1298,-4.0461,-4.0069,-2.7594,-2.6602,-2.5192,-2.2949,-2.193,-2.0884,-1.861,-1.8976,-1.9786,-1.9786,-2.0229,-2.0646,-2.0646,0.0,0.0,0.0,0.0,0.0,0.0,-1.7277,-1.814,-2.0542,-2.2792,-2.4413,-2.5018,-2.5563,-2.5845,-2.5845,-2.6399,-2.6974,-2.7542,-2.9771,-3.1261,-3.185,-3.3012,-3.3849,-3.4397,-3.4397,-3.4397,-3.4397,-3.4397,-3.4397,-3.4397,-3.4397,-3.4397,-3.4397,-3.4397,-3.5051,-3.6096,-3.6096,-3.6802,-3.79,-3.79,-3.79,-3.79,-3.79,-3.79,-3.79,-3.79,-3.79,-3.79,-3.79,-3.79,-3.79,-3.79,-3.8266,-3.8841,-3.9416,-3.9991,-4.054,-4.1141,-4.1298,-4.1324,-4.1324,-4.1324,-4.1324,-4.1324,-4.1324,-4.1324,-4.1324,-4.1324,-4.1324,-4.1324,-4.1324,-4.1324,-4.1324,-4.1324,-4.1324,-4.1324,-4.1324,-4.1324,-4.1324,-4.1324,-4.1324,-4.1324,-4.1324,-4.1324,-4.1324,-4.1324,-4.1324,-4.1324,-4.1324,-4.1324,-4.1324,-4.1324,-4.1324,-4.1324,-4.1324,-4.1324,-4.1324,-4.1272,-4.1272,-2.8752,-2.7837,-2.6472,-2.457,-2.3655,-2.274,-2.0806,-2.0963,-2.1642,-2.1982,-2.2217,-2.2479,-2.2871,0.0,0.0,0.0,0.0,0.0,0.0,0.0,-1.7643,-1.8842,-2.0674,-2.2087,-2.2635,-2.3184,-2.3681,-2.4044,-2.4282,-2.5145,-2.687,-2.8446,-3.0059,-3.1745,-3.2594,-3.3456,-3.4397,-3.4397,-3.4397,-3.4397,-3.4397,-3.4397,-3.4397,-3.4397,-3.4397,-3.4397,-3.4397,-3.5051,-3.6096,-3.6096,-3.6802,-3.79,-3.79,-3.79,-3.79,-3.79,-3.79,-3.79,-3.79,-3.79,-3.79,-3.79,-3.79,-3.7978,-3.8318,-3.8841,-3.9416,-3.9991,-4.0566,-4.1063,-4.1272,-4.1324,-4.1324,-4.1324,-4.1324,-4.1324,-4.1324,-4.1324,-4.1324,-4.1324,-4.1324,-4.1324,-4.1324,-4.1324,-4.1324,-4.1324,-4.1324,-4.1324,-4.1324,-4.1324,-4.1324,-4.1324,-4.1324,-4.1324,-4.1324,-4.1324,-4.1324,-4.1324,-4.1324,-4.1324,-4.1324,-4.1324,-4.1324,-4.1324,-4.1324,-4.1324,-4.1324,-4.1324,-4.1324,-4.1324,-4.1324,-4.1324,-2.9362,-2.8569,-2.7471,-2.5986,-2.5145,-2.4227,-2.2477,-2.274,-2.3367,-2.3469,-2.4021,-2.457,-2.4962,0.0,0.0,0.0,0.0,0.0,0.0,-1.7199,-1.7334,-1.7683,-1.9087,-2.0337,-2.1119,-2.1511,-2.206,-2.2844,-2.2923,-2.3864,-2.5986,-2.734,-2.9144,-3.1432,-3.228,-3.3247,-3.4397,-3.4397,-3.4397,-3.4397,-3.4397,-3.4397,-3.4397,-3.4397,-3.4397,-3.4397,-3.4633,-3.5234,-3.6123,-3.6332,-3.7011,-3.79,-3.79,-3.79,-3.79,-3.79,-3.79,-3.79,-3.79,-3.79,-3.79,-3.79,-3.8031,-3.8266,-3.8606,-3.9259,-3.9965,-4.0305,-4.0853,-4.1324,-4.1324,-4.1324,-4.1324,-4.1324,-4.1324,-4.1324,-4.1324,-4.1324,-4.1324,-4.1324,-4.1324,-4.1324,-4.1324,-4.1324,-4.1324,-4.1324,-4.1324,-4.1324,-4.1324,-4.1324,-4.1324,-4.1324,-4.1324,-4.1324,-4.1324,-4.1324,-4.1324,-4.1324,-4.1324,-4.1324,-4.1324,-4.1324,-4.1324,-4.1324,-4.1324,-4.1324,-4.1324,-4.1324,-4.1324,-4.1324,-4.1324,-4.1324]},{"header":{"parameterUnit":"m.s-1","parameterCategory":1,"la1":30.6,"la2":29.2853,"lo1":-89.7004,"lo2":-87.6739,"dy":0.0162,"dx":0.0183,"nx":112,"ny":82,"refTime":"2026-04-10T12:00:00:Z","depth":0,"parameterNumber":3,"parameterNumberName":"V-component_of_WINDS"},"data":[0.0,0.0,0.0,0.0,0.0,0.0,0.0,0.0,0.0,0.0,0.0,0.0,0.0,0.0,0.0,0.0,0.0,0.0,0.0,0.0,0.0,0.0,0.0,0.0,0.0,0.0,0.0,0.0,0.0,0.0,0.0,0.0,0.0,0.0,0.0,0.0,0.0,0.0,0.0,0.0,0.0,0.0,0.0,0.0,0.0,0.0,0.0,0.0,0.0,0.0,0.0,0.0,0.0,0.0,0.0,0.0,0.0,0.0,0.0,0.0,0.0,0.0,0.0,0.0,0.0,0.0,0.0,0.0,0.0,0.0,0.0,0.0,0.0,0.0,0.0,0.0,0.0,0.0,0.0,0.0,0.0,0.0,0.0,0.0,0.0,0.0,0.0,0.0,0.0,0.0,0.9735,1.1473,1.2906,1.3294,1.2117,1.1442,1.0537,0.9248,0.0,0.0,0.0,0.0,0.0,0.0,0.0,0.0,0.0,0.0,0.0,0.0,0.0,0.0,0.0,0.0,0.0,0.0,0.0,0.0,0.0,0.0,0.0,0.0,0.0,0.0,0.0,0.0,0.0,0.0,0.0,0.0,0.0,0.0,0.0,0.0,0.0,0.0,0.0,0.0,0.0,0.0,0.0,0.0,0.0,0.0,0.0,0.0,0.0,0.0,0.0,0.0,0.0,0.0,0.0,0.0,0.0,0.0,0.0,0.0,0.0,0.0,0.0,0.0,0.0,0.0,0.0,0.0,0.0,0.0,0.0,0.0,0.0,0.0,0.0,0.0,0.0,0.0,0.0,0.0,0.0,0.0,0.0,0.0,0.0,0.0,0.0,0.0,0.0,0.0,0.0,0.0,0.0,0.0,0.0,0.0,0.0,0.0,0.0,0.0,0.0,0.0,0.0,0.0,1.1335,1.396,1.4951,1.514,1.4356,1.3626,1.2539,1.0938,0.0,0.0,0.0,0.0,0.0,0.0,0.0,0.0,0.0,0.0,0.0,0.0,0.0,0.0,0.0,0.0,0.0,0.0,0.0,0.0,0.0,0.0,0.0,0.0,0.0,0.0,0.0,0.0,0.0,0.0,0.0,0.0,0.0,0.0,0.0,0.0,0.0,0.0,0.0,0.0,0.0,0.0,0.0,0.0,0.0,0.0,0.0,0.0,0.0,0.0,0.0,0.0,0.0,0.0,0.0,0.0,0.0,0.0,0.0,0.0,0.0,0.0,0.0,0.0,0.0,0.0,0.0,0.0,0.0,0.0,0.0,0.0,0.0,0.0,0.0,0.0,0.0,0.0,0.0,0.0,0.0,0.0,0.0,0.0,0.0,0.0,0.0,0.0,0.0,0.0,0.0,0.0,0.0,0.0,0.0,0.0,0.0,0.0,0.0,0.0,0.0,0.0,0.0,1.1555,1.3397,1.4917,1.5863,1.594,1.4849,1.4064,1.2862,1.1026,0.8837,0.0,0.0,0.0,0.0,0.0,0.0,0.0,0.0,0.0,0.0,0.0,0.0,0.0,0.0,0.0,0.0,0.0,0.0,0.0,0.0,0.0,0.0,0.0,0.0,0.0,0.0,0.0,0.0,0.0,0.0,0.0,0.0,0.0,0.0,0.0,0.0,0.0,0.0,0.0,0.0,0.0,0.0,0.0,0.0,0.0,0.0,0.0,0.0,0.0,0.0,0.0,0.0,0.0,0.0,0.0,0.0,0.0,0.0,0.0,0.0,0.0,0.0,0.0,0.0,0.0,0.0,0.0,0.0,0.0,0.0,0.0,0.0,0.0,0.0,0.0,0.0,0.0,0.0,0.0,0.0,0.0,0.0,0.0,0.0,0.0,0.0,0.0,0.0,0.0,0.0,0.0,0.0,0.0,0.0,0.0,0.0,0.0,0.0,0.0,0.0,0.0,0.0,1.3751,1.541,1.5905,1.6856,1.6907,1.5478,1.4594,1.3262,1.1347,0.9524,0.0,0.0,0.0,0.0,0.0,0.0,0.0,0.0,0.0,0.0,0.0,0.0,0.0,0.0,0.0,0.0,0.0,0.0,0.0,0.0,0.0,0.0,0.0,0.0,0.0,0.0,0.0,0.0,0.0,0.0,0.0,0.0,0.0,0.0,0.0,0.0,0.0,0.0,0.0,0.0,0.0,0.0,0.0,0.0,0.0,0.0,0.0,0.0,0.0,0.0,0.0,0.0,0.0,0.0,0.0,0.0,0.0,0.0,0.0,0.0,0.0,0.0,0.0,0.0,0.0,0.0,0.0,0.0,0.0,0.0,0.0,0.0,0.0,0.0,0.0,0.0,0.0,0.0,0.0,0.0,0.0,0.0,0.0,0.0,0.0,0.0,0.0,0.0,0.0,0.0,0.0,0.0,0.0,0.0,0.0,0.0,0.0,0.0,0.0,0.0,0.0,0.0,1.5065,1.7059,1.7806,1.8663,1.8645,1.7406,1.6221,1.4762,1.2875,1.0537,0.0,0.0,0.0,0.0,0.0,0.0,0.0,0.0,0.0,0.0,0.0,0.0,0.0,0.0,0.0,0.0,0.0,0.0,0.0,0.0,0.0,0.0,0.0,0.0,0.0,0.0,0.0,0.0,0.0,0.0,0.0,0.0,0.0,0.0,0.0,0.0,0.0,0.0,0.0,0.0,0.0,0.0,0.0,0.0,0.0,0.0,0.0,0.0,0.0,0.0,0.0,0.0,0.0,0.0,0.0,0.0,0.0,0.0,0.0,0.0,0.0,0.0,0.0,0.0,0.0,0.0,0.0,0.0,0.0,0.0,0.0,0.0,0.0,0.0,0.0,0.0,0.0,0.0,0.0,0.0,0.0,0.0,0.0,0.0,0.0,0.0,0.0,0.0,0.0,0.0,0.0,0.0,0.0,0.0,0.0,0.0,0.0,0.0,0.0,0.0,0.0,0.0,1.5278,1.722,1.8008,1.8834,1.8705,1.7257,1.601,1.4494,1.2524,0.0,0.0,0.0,0.0,0.0,0.0,0.0,0.0,0.0,0.0,0.0,0.0,0.0,0.0,0.0,0.0,0.0,0.0,0.0,0.0,0.0,0.0,0.0,0.0,0.0,0.0,0.0,0.0,0.0,0.0,0.0,0.0,0.0,0.0,0.0,0.0,0.0,0.0,0.0,0.0,0.0,0.0,0.0,0.0,0.0,0.0,0.0,0.0,0.0,0.0,0.0,0.0,0.0,0.0,0.0,0.0,0.0,0.0,0.0,0.0,0.0,0.0,0.0,0.0,0.0,0.0,0.0,0.0,0.0,0.0,0.0,0.0,0.0,0.0,0.0,0.0,0.0,0.0,0.0,0.0,0.0,0.0,0.0,0.0,0.0,0.0,0.0,0.0,0.0,0.0,0.0,0.0,0.0,0.0,0.0,0.0,0.0,0.0,0.0,0.0,0.0,0.0,1.3204,1.5591,1.7396,1.8212,1.9027,1.8841,1.723,1.5951,1.4377,1.2364,0.0,0.0,0.0,0.0,0.0,0.0,0.0,0.0,0.0,0.0,0.0,0.0,0.0,0.0,0.0,0.0,0.0,0.0,0.0,0.0,0.0,0.0,0.0,0.0,0.0,0.0,0.0,0.0,0.0,0.0,0.0,0.0,0.0,0.0,0.0,0.0,0.0,0.0,0.0,0.0,0.0,0.0,0.0,0.0,0.0,0.0,0.0,0.0,0.0,0.0,0.0,0.0,0.0,0.0,0.0,0.0,0.0,0.0,0.0,0.0,0.0,0.0,0.0,0.0,0.0,0.0,0.0,0.0,0.0,0.0,0.0,0.0,0.0,0.0,0.0,0.0,0.0,0.0,0.0,0.0,0.0,0.0,0.0,0.0,0.0,0.0,0.0,0.0,0.0,0.0,0.0,0.0,0.0,0.0,0.0,0.0,0.0,0.0,0.0,0.0,0.0,0.0,1.3923,1.6109,1.7818,1.8634,1.943,1.9222,1.7628,1.6338,1.4725,0.0,0.0,0.0,0.0,0.0,0.0,0.0,0.0,0.0,0.0,0.0,0.0,0.0,0.0,0.0,0.0,0.0,0.0,0.0,0.0,0.0,0.0,0.0,0.0,0.0,0.0,0.0,0.0,0.0,0.0,0.0,0.0,0.0,0.0,0.0,0.0,0.0,0.0,0.0,0.0,0.0,0.0,0.0,0.0,0.0,0.0,0.0,0.0,0.0,0.0,0.0,0.0,0.0,0.0,0.0,0.0,0.0,0.0,0.0,0.0,0.0,0.0,0.0,0.0,0.0,0.0,0.0,0.0,0.0,0.0,0.0,0.0,0.0,0.0,0.0,0.0,0.0,0.0,0.0,0.0,0.0,0.0,0.0,0.0,0.0,0.0,0.0,0.0,0.0,0.0,0.0,0.0,0.0,0.0,0.0,0.0,0.0,0.0,0.0,0.0,0.0,0.0,0.0,1.36,1.5706,1.7347,1.8197,1.8748,1.8485,1.7105,1.587,1.443,1.2674,0.0,0.0,0.0,0.0,0.0,0.0,0.0,0.0,0.0,0.0,0.0,0.0,0.0,0.0,0.0,0.0,0.0,0.0,0.0,0.0,0.0,0.0,0.0,0.0,0.0,0.0,0.0,0.0,0.0,0.0,0.0,0.0,0.0,0.0,0.0,0.0,0.0,0.0,0.0,0.0,0.0,0.0,0.0,0.0,0.0,0.0,0.0,0.0,0.0,0.0,0.0,0.0,0.0,0.0,0.0,0.0,0.0,0.0,0.0,0.0,0.0,0.0,0.0,0.0,0.0,0.0,0.0,0.0,0.0,0.0,0.0,0.0,0.0,0.0,0.0,0.0,0.0,0.0,0.0,0.0,0.0,0.0,0.0,0.0,0.0,0.0,0.0,0.0,0.0,0.0,0.0,0.0,0.0,0.0,0.0,0.0,0.0,0.0,0.0,0.0,0.0,0.0,1.38,1.5796,1.7302,1.7973,1.8433,1.8088,1.6651,1.5674,1.4379,1.2546,0.0,0.0,0.0,0.0,0.0,0.0,0.0,0.0,0.0,0.0,0.0,0.0,0.0,0.0,0.0,0.0,0.0,0.0,0.0,0.0,0.0,0.0,0.0,0.0,0.0,0.0,0.0,0.0,0.0,0.0,0.0,0.0,0.0,0.0,0.0,0.0,0.0,0.0,0.0,0.0,0.0,0.0,0.0,0.0,0.0,0.0,0.0,0.0,0.0,0.0,0.0,0.0,0.0,0.0,0.0,0.0,0.0,0.0,0.0,0.0,0.0,0.0,0.0,0.0,0.0,0.0,0.0,0.0,0.0,0.0,0.0,0.0,0.0,0.0,0.0,0.0,0.0,0.0,0.0,0.0,0.0,0.0,0.0,0.0,0.0,0.0,0.0,0.0,0.0,0.0,0.0,0.0,0.0,0.0,0.0,0.0,0.0,0.0,0.0,0.0,0.0,0.0,1.4231,1.6189,1.75,1.7949,1.8286,1.7871,1.63,1.5684,1.4531,1.2457,0.0,0.0,0.0,0.0,0.0,0.0,0.0,0.0,0.0,0.0,0.0,0.0,0.0,0.0,0.0,0.0,0.0,0.0,0.0,0.0,0.0,0.0,0.0,0.0,0.0,0.0,0.0,0.0,0.0,0.0,0.0,0.0,0.0,0.0,0.0,0.0,0.0,0.0,0.0,0.0,0.0,0.0,0.0,0.0,0.0,0.0,0.0,0.0,0.0,0.0,0.0,0.0,0.0,0.0,0.0,0.0,0.0,0.0,0.0,0.0,1.4535,1.3284,0.0,0.0,0.0,0.0,0.0,0.0,0.0,0.0,0.0,0.0,0.0,0.0,0.0,0.0,0.0,0.0,0.0,0.0,0.0,0.0,0.0,0.0,0.0,0.0,0.0,0.0,0.0,0.0,0.0,0.0,0.0,0.0,0.0,0.0,0.0,0.0,0.0,0.0,0.0,0.0,1.397,1.5771,1.7135,1.793,1.7793,1.7363,1.6609,1.5829,1.4785,1.3295,1.1914,0.0,0.0,0.0,0.0,0.0,0.0,0.0,0.0,0.0,0.0,0.0,0.0,0.0,0.0,0.0,0.0,0.0,0.0,0.0,0.0,0.0,0.0,0.0,0.0,0.0,0.0,0.0,0.0,0.0,0.0,0.0,0.0,0.0,0.0,0.0,0.0,0.0,0.0,0.0,0.0,0.0,0.0,0.0,0.0,0.0,0.0,0.0,0.0,0.0,0.0,0.0,0.0,0.0,0.0,0.0,0.0,0.0,0.0,0.0,1.7579,1.5981,0.0,0.0,0.0,0.0,0.0,0.0,0.0,0.0,0.0,0.0,0.0,0.0,0.0,0.0,0.0,0.0,0.0,0.0,0.0,0.0,0.0,0.0,0.0,0.0,0.0,0.0,0.0,0.0,0.0,0.0,0.0,0.0,0.0,0.0,0.0,0.0,0.0,0.0,0.0,0.0,1.418,1.5977,1.7207,1.7656,1.7519,1.7031,1.6141,1.5488,1.4648,1.3574,1.248,0.0,0.0,0.0,0.0,0.0,0.0,0.0,0.0,0.0,0.0,0.0,0.0,0.0,0.0,0.0,0.0,0.0,0.0,0.0,0.0,0.0,0.0,0.0,0.0,0.0,0.0,0.0,0.0,0.0,0.0,0.0,0.0,0.0,0.0,0.0,0.0,0.0,0.0,0.0,0.0,0.0,0.0,0.0,0.0,0.0,0.0,0.0,0.0,0.0,0.0,0.0,0.0,0.0,2.3758,2.4293,2.5122,2.4865,2.4875,2.4946,2.1688,1.9981,1.9493,1.8885,0.0,0.0,0.0,0.0,0.0,0.0,0.0,0.0,0.0,0.0,0.0,0.0,0.0,0.0,0.0,0.0,0.0,0.0,0.0,0.0,0.0,0.0,1.9143,1.8453,1.8051,1.702,1.4077,0.0,0.0,0.0,0.0,0.0,0.0,0.0,0.0,0.0,0.0,0.0,1.4645,1.6378,1.7455,1.748,1.7363,1.6836,1.5742,1.5254,1.4676,1.3815,1.3013,1.2152,0.0,0.0,0.0,0.0,0.0,0.0,0.0,0.0,0.0,0.0,0.0,0.0,0.0,0.0,0.0,0.0,0.0,0.0,0.0,0.0,0.0,0.0,0.0,0.0,0.0,0.0,0.0,0.0,0.0,0.0,0.0,0.0,1.5123,1.5903,0.0,0.0,0.0,0.0,0.0,0.0,0.0,0.0,0.0,0.0,0.0,0.0,0.0,2.2622,2.3507,2.4811,2.6074,2.7286,2.7144,2.7659,2.8816,2.8555,2.8621,2.8751,2.8081,0.0,2.2531,2.2385,0.0,0.0,0.0,0.0,0.0,0.0,0.0,0.0,0.0,0.0,0.0,0.0,0.0,0.0,0.0,0.0,0.0,0.0,0.0,0.0,0.0,0.0,2.1623,2.1275,2.0943,2.0455,1.943,1.6838,1.4559,1.4043,1.315,1.2096,0.0,0.0,0.0,0.0,0.0,0.0,1.5317,1.6637,1.7519,1.7891,1.7233,1.6707,1.6531,1.6152,1.5615,1.4834,1.432,1.3521,1.2431,1.1045,0.0,0.0,0.0,0.0,0.0,0.0,0.0,0.0,0.0,0.0,0.0,0.0,0.0,0.0,0.0,0.0,0.0,0.0,0.0,0.0,0.0,0.0,0.0,0.0,0.0,0.0,0.0,0.0,0.0,1.5408,1.7089,1.7334,1.7266,1.7155,0.0,0.0,0.0,0.0,0.0,0.0,0.0,0.0,0.0,2.3663,2.4876,2.6115,2.74,2.8639,2.9672,3.0544,3.0434,3.0815,3.1642,3.1553,3.1553,3.1642,3.1553,3.0319,2.8219,2.6092,2.4434,2.3087,0.0,0.0,0.0,0.0,2.1163,2.1747,2.1964,2.1699,2.1139,2.061,0.0,0.0,0.0,0.0,0.0,0.0,0.0,1.9685,2.0865,2.2559,2.379,2.3304,2.3169,2.2913,2.2105,2.0095,1.8009,1.6335,1.4909,1.3665,1.2724,1.163,0.0,0.0,0.0,1.4679,1.6387,1.7448,1.8066,1.8008,1.7461,1.6992,1.6726,1.6328,1.589,1.5424,1.5114,1.4524,1.348,1.1982,1.0817,0.0,0.0,0.0,0.0,0.0,0.0,0.0,0.0,0.0,0.0,0.0,0.0,0.0,0.0,0.0,0.0,0.0,0.0,0.0,0.0,0.0,0.0,0.0,0.0,0.0,0.0,0.0,0.0,1.7829,1.9245,1.9371,1.9496,1.9531,0.0,0.0,0.0,0.0,0.0,0.0,2.3839,2.4025,2.5057,2.7117,2.8133,2.9304,3.0725,3.1905,3.2755,3.3284,3.3284,3.3501,3.3885,3.3885,3.3813,3.3669,3.3669,3.338,3.2635,2.9316,2.7296,2.6142,2.4169,2.3881,2.4482,2.3688,2.3977,2.4805,2.4805,2.453,2.4073,2.3424,2.2231,2.0872,1.9828,0.0,0.0,0.0,0.0,2.1847,2.3051,2.4427,2.5385,2.4895,2.4779,2.4612,2.3927,2.2795,2.112,1.837,1.6628,1.5365,1.456,1.3576,0.0,1.4868,1.5373,1.6063,1.7461,1.8181,1.8463,1.8149,1.7671,1.7219,1.6853,1.6451,1.6118,1.5934,1.5751,1.5235,1.4395,1.2824,1.1588,1.0834,0.0,0.0,0.0,0.0,0.0,0.0,0.0,0.0,0.0,0.0,0.0,0.0,0.0,0.0,0.0,0.0,0.0,0.0,0.0,0.0,0.0,0.0,0.0,0.0,0.0,0.0,0.0,0.0,0.0,2.2832,2.3104,0.0,0.0,0.0,0.0,2.3745,2.4722,2.5765,2.6924,2.7221,2.7953,2.931,3.066,3.1853,3.2745,3.4007,3.4944,3.5449,3.5449,3.5473,3.5497,3.5497,3.5232,3.4703,3.4703,3.4414,3.3742,3.1577,3.0062,2.8931,2.7282,2.6681,2.6729,2.6681,2.7018,2.7474,2.7474,2.7512,2.7282,2.6238,2.453,2.2751,2.2197,2.1278,0.0,0.0,2.2823,2.3881,2.488,2.5612,2.6045,2.6021,2.5625,2.5302,2.5379,2.4722,2.3183,1.9904,1.8459,1.7479,1.6592,0.0,1.6326,1.7137,1.7313,1.7684,1.8512,1.8553,1.8502,1.8482,1.772,1.7199,1.7179,1.6758,1.6495,1.6545,1.6189,1.5701,1.5064,1.3497,1.2188,1.1176,0.9887,0.0,0.0,0.0,0.0,0.0,0.0,0.0,0.0,0.0,0.0,0.0,0.0,0.0,0.0,0.0,0.0,0.0,0.0,0.0,0.0,0.0,0.0,0.0,0.0,0.0,0.0,0.0,0.0,2.5158,2.6083,0.0,2.6785,2.6058,2.6233,2.7789,2.8562,2.9445,3.0563,3.1025,3.1788,3.2884,3.372,3.4508,3.5182,3.5591,3.593,3.6122,3.6122,3.6122,3.6122,3.5785,3.5521,3.5328,3.4919,3.4679,3.4414,3.3356,3.2298,3.124,2.9965,2.946,2.9436,2.91,2.9076,2.9244,2.9244,2.9027,2.8498,2.7103,2.6105,2.5372,2.4458,2.3929,2.3785,2.4506,2.4987,2.5444,2.6166,2.6465,2.6609,2.6609,2.6465,2.62,2.5799,2.5255,2.4319,2.242,2.1169,2.0223,1.9735,1.926,1.9283,2.0127,1.9949,1.9918,2.038,2.0135,1.9813,1.955,1.8988,1.8478,1.8202,1.8011,1.7547,1.6727,1.673,1.6384,1.5478,1.4092,1.3085,1.2549,1.1053,1.0014,0.0,0.0,0.0,0.0,0.0,0.0,0.0,0.0,0.0,0.0,0.0,0.0,0.0,0.0,0.0,0.0,0.0,0.0,0.0,0.0,0.0,0.0,0.0,0.0,0.0,2.4596,2.7002,2.7823,2.8994,2.9805,2.9933,2.93,2.9379,3.0629,3.1356,3.201,3.2731,3.326,3.3933,3.4751,3.5521,3.6146,3.6675,3.6843,3.694,3.694,3.694,3.6843,3.6651,3.6314,3.5954,3.5593,3.5256,3.4943,3.4751,3.4414,3.3909,3.3188,3.2106,3.1697,3.1625,3.1096,3.0903,3.0855,3.047,3.0013,2.9388,2.833,2.7714,2.7282,2.6622,2.6142,2.5973,2.6502,2.6647,2.6767,2.7282,2.7162,2.6898,2.6898,2.6753,2.6513,2.6006,2.5714,2.5282,2.453,2.3175,2.2077,2.1846,2.1541,2.149,2.1966,2.1694,2.138,2.1303,2.0941,2.0545,2.0302,1.9871,1.943,1.9122,1.8813,1.8304,1.7494,1.7194,1.6756,1.6093,1.4575,1.3633,1.3408,1.1785,1.0693,1.0123,0.0,0.0,0.0,0.0,0.0,0.0,0.0,0.0,0.0,0.0,0.0,0.0,0.0,0.0,0.0,0.0,0.0,0.0,0.0,0.0,0.0,0.0,0.0,2.4862,2.7528,2.9836,3.0979,3.1855,3.2512,3.27,3.2066,3.1783,3.215,3.2881,3.3332,3.3332,3.3789,3.427,3.4799,3.5857,3.6651,3.718,3.7709,3.7974,3.7974,3.7974,3.7709,3.7204,3.7204,3.6627,3.5641,3.5617,3.5328,3.4775,3.4775,3.4775,3.4679,3.3717,3.3332,3.326,3.2731,3.2539,3.2346,3.1264,3.0567,3.0134,3.011,2.9412,2.857,2.8546,2.7825,2.7066,2.757,2.7714,2.7834,2.8378,2.769,2.6922,2.6922,2.655,2.6142,2.6117,2.6117,2.6117,2.6069,2.4397,2.2953,2.2811,2.2956,2.2961,2.2624,2.2376,0.0,2.1247,2.086,2.0635,2.0635,2.0241,1.998,1.9958,1.9133,1.8685,1.8902,1.7627,1.6895,1.6972,1.4958,1.3758,1.3633,1.2141,1.0932,1.0073,0.0,0.0,0.0,0.0,0.0,0.0,0.0,0.0,0.0,0.0,0.0,0.0,0.0,0.0,0.0,0.0,0.0,0.0,0.0,0.0,0.0,2.5348,2.6849,2.688,2.9989,3.243,3.3122,3.4412,3.5153,3.482,3.458,3.4341,3.4055,3.427,3.4414,3.4414,3.4535,3.4847,3.5376,3.605,3.6651,3.718,3.7709,3.7974,3.7974,3.7974,3.7902,3.7757,3.7372,3.6819,3.617,3.5785,3.5328,3.4775,3.4775,3.4775,3.4751,3.4511,3.4174,3.3766,3.3622,3.314,3.2394,3.1741,3.1404,3.1211,3.0826,3.047,3.0086,2.9316,2.8883,2.8595,2.8354,2.8306,2.833,2.8474,2.7978,2.7474,2.7474,2.7392,2.7055,2.6262,2.6406,2.6441,2.5685,2.5338,2.5099,2.4683,2.4623,2.4491,2.4,2.3618,2.3156,2.2567,2.2068,2.1769,2.1769,2.1981,2.1847,2.106,2.1114,2.0553,1.9068,1.8239,1.7479,1.6741,1.5407,1.4502,1.4121,1.3312,1.2591,0.0,0.0,0.0,0.0,0.0,0.0,0.0,0.0,0.0,0.0,0.0,0.0,0.0,0.0,0.0,0.0,0.0,0.0,0.0,0.0,0.0,0.0,2.7849,2.9605,3.0236,3.2418,3.4198,3.4944,3.605,3.6531,3.6002,3.5737,3.54,3.4823,3.4775,3.4775,3.4775,3.4775,3.5064,3.5593,3.6122,3.6651,3.718,3.7709,3.7974,3.7974,3.7974,3.7974,3.7974,3.7661,3.7228,3.6699,3.617,3.5641,3.5136,3.4871,3.4775,3.4775,0.0,0.0,0.0,0.0,3.3334,3.2466,3.213,3.191,3.1669,3.1356,3.1091,3.0754,2.9893,2.9316,2.8859,2.833,2.7978,2.7858,2.8114,2.7777,2.7402,2.7681,2.7897,2.7753,2.6671,2.6849,2.697,2.6105,2.6045,0.0,2.5997,2.5781,2.5396,2.4592,2.4097,2.3625,2.3095,2.251,2.2197,2.2197,2.2654,2.2758,2.2125,2.2149,0.0,0.0,0.0,1.7507,1.5972,1.5325,0.0,0.0,0.0,0.0,0.0,0.0,0.0,0.0,1.0807,1.0543,0.0,0.0,0.0,0.0,0.0,0.0,0.0,0.0,0.0,0.0,0.0,0.0,0.0,0.0,0.0,0.0,3.0206,3.2394,3.3934,3.4679,3.5449,3.6386,3.6964,3.7084,3.6555,3.6026,3.5497,3.4895,3.4799,3.4847,3.4871,3.4799,0.0,0.0,0.0,3.6651,3.718,3.7709,3.7974,3.7974,3.7974,3.7974,3.7974,3.7974,3.7685,3.7156,3.6699,3.617,3.5569,3.5112,3.4823,3.4775,3.4775,3.4775,3.4727,3.4198,3.3406,3.2659,3.2539,0.0,0.0,3.1741,3.1404,3.0898,3.0326,2.9484,2.857,2.8041,2.7474,2.7186,2.7642,2.7426,2.7186,2.7666,2.8162,2.8234,2.721,2.7354,2.7522,2.6994,2.6574,2.6406,2.6825,2.6526,2.5829,2.4736,2.4169,2.3673,2.3095,2.251,2.2221,2.227,2.2782,0.0,2.3095,2.2702,2.2173,2.1524,1.948,1.7364,1.5277,1.5253,1.5034,1.4566,1.5034,1.5301,1.5372,1.5761,1.5911,1.5775,1.3678,1.2656,0.0,0.0,0.0,0.0,0.0,0.0,0.0,0.0,0.0,0.0,0.0,0.0,0.0,0.0,0.0,2.9845,3.1793,3.3525,3.5088,3.6122,3.6819,3.7012,3.7517,3.7613,3.7084,3.6555,3.6026,3.5497,3.5015,3.4967,3.5449,3.5064,3.5207,3.6218,3.6362,3.6651,3.718,3.7709,3.7974,3.7974,3.7974,0.0,3.7974,3.7974,3.7685,3.718,3.7084,3.6507,3.5617,3.5497,3.5208,3.4775,3.4775,3.4775,3.4727,3.4198,3.3862,3.3574,3.2803,3.2442,3.2274,3.1862,3.1645,3.1452,3.0922,3.0278,0.0,2.9148,2.8619,2.8234,2.833,2.8282,2.8234,2.833,2.8426,2.833,2.7666,2.7618,2.7522,2.6994,2.7162,2.7282,2.6946,2.6801,2.6369,2.5324,2.4723,2.4025,2.3111,2.251,2.2366,2.2775,2.3336,2.3649,2.3649,2.3905,2.3496,2.2125,2.0033,1.8085,1.6355,1.6715,1.6691,1.6185,1.6667,1.7147,1.7579,1.7676,1.7915,1.8249,1.5684,1.4541,0.0,0.0,0.0,0.0,0.0,0.0,0.0,0.0,0.0,0.0,0.0,2.5131,2.6959,0.0,2.9821,3.1432,3.302,3.4511,3.5833,3.6699,3.73,3.7565,3.7829,3.7781,3.7252,3.6723,3.629,3.6026,3.5521,3.5449,3.5978,3.5761,3.5857,3.6386,3.6675,3.6916,3.7204,3.7709,3.7974,3.7974,3.7974,3.7974,3.7974,3.7974,3.7829,3.7565,3.73,3.6747,3.5978,3.5449,3.5015,3.4775,3.4775,3.4775,3.4751,3.4486,3.4222,3.391,3.3406,3.2923,3.2466,3.2178,3.1934,3.1597,3.1067,3.0561,2.9989,2.9436,2.8739,2.8186,2.845,2.8306,2.8186,2.845,2.8715,2.8763,2.8234,2.833,2.8354,2.7786,2.7945,2.7906,2.7378,2.7282,2.6959,2.5877,2.4819,2.3953,2.3481,2.271,2.2294,2.2558,2.3336,2.3794,2.3794,2.3761,2.3087,2.15,1.9889,1.8398,1.7051,1.7243,1.7267,1.7003,1.7532,1.8061,1.859,1.8855,1.9263,1.9772,1.8372,1.7234,0.0,0.0,0.0,0.0,0.0,0.0,0.0,2.3183,2.3688,2.5155,2.6647,2.7978,2.91,3.0687,3.2034,3.2683,3.403,3.5255,3.6266,3.6867,3.7348,3.7781,3.7926,3.7805,3.7397,3.6867,3.6555,3.6555,3.6074,3.6002,3.6531,3.6555,3.6603,3.6699,3.7132,3.7348,3.7348,3.7757,3.7974,3.7974,3.7974,3.7974,3.7974,3.7974,3.7974,3.795,3.73,3.6795,3.6314,3.5256,3.4775,3.4775,3.4775,3.4775,3.4775,3.4775,3.451,3.4126,3.403,3.3428,3.2635,3.2539,3.213,3.1621,3.1211,3.0663,3.0158,2.9725,2.8907,2.8282,2.8715,2.8426,2.8138,2.857,2.8907,2.9027,2.8595,2.8835,2.9027,2.8595,2.8522,2.8354,2.7786,2.7594,2.7224,2.6238,2.4939,2.4035,2.3818,2.2975,2.2342,2.2342,2.3144,2.3697,2.3794,2.3312,2.239,2.1019,2.0009,1.8951,1.7772,1.782,1.7772,1.758,1.8085,1.8662,1.9287,1.9748,2.035,2.1072,2.0955,1.9838,2.0429,2.1716,2.3601,2.4602,2.5276,2.5781,0.0,2.6729,2.7378,2.8546,2.9653,3.0759,3.1841,3.225,3.2731,3.367,3.4799,3.5737,3.6314,3.6867,3.7204,3.7276,3.7685,3.795,3.7902,3.7421,3.7108,3.7108,3.6627,3.6555,3.7084,3.7108,3.7324,3.7781,3.7853,3.7902,3.7902,3.795,3.7974,3.7974,3.7974,3.7974,3.7974,3.7974,3.7974,3.7926,3.6916,3.6459,3.6314,3.5256,3.4775,3.4775,3.4775,3.4775,3.4775,3.4775,3.4751,3.4631,3.415,3.3669,3.3116,3.2659,3.213,3.1693,3.1645,3.1259,3.0826,3.0754,3.0278,2.9845,2.9893,2.9508,2.9148,2.9196,2.8907,2.857,2.8522,2.857,2.857,2.8522,2.8522,2.8354,2.7786,2.7306,2.6777,2.619,2.554,2.4819,2.3914,2.3288,2.2927,2.2927,2.3023,2.3288,2.377,2.3312,2.2702,2.2053,2.1452,2.0442,1.8879,1.9263,1.9071,1.8133,1.8638,1.9411,2.0422,2.047,2.1289,2.2734,2.2727,2.1592,2.2849,2.4218,2.5925,2.7296,2.8258,2.9027,2.9556,2.9869,3.023,3.0999,3.1985,3.2779,3.2923,3.3452,3.4006,3.439,3.54,3.6146,3.6362,3.6867,3.6964,3.6338,3.6194,3.6386,3.7012,3.6867,3.6867,3.718,3.6988,3.7084,3.7637,3.7661,3.7757,3.7974,3.7974,3.7974,3.7974,3.7974,3.7974,3.7974,3.7974,3.7974,3.7974,3.7974,3.7974,3.795,3.718,3.6699,3.6338,3.5593,3.5112,3.4775,3.4775,3.4775,3.4775,3.4775,3.4775,3.4751,3.4534,3.3958,3.326,3.302,3.237,3.1717,3.1717,3.1548,3.138,3.138,3.0995,3.0585,3.0585,2.9917,2.9292,2.9292,2.8907,2.8522,2.8522,2.8763,2.8883,2.857,2.8763,2.8619,2.7426,2.7042,2.6609,2.5781,2.518,2.4578,2.389,2.3336,2.3023,2.3023,2.3023,2.324,2.3746,2.3312,2.2782,2.2221,2.1692,2.0971,1.9985,2.0157,2.0033,1.9624,1.9817,2.0298,2.1067,2.1386,2.206,2.3023,2.3336,2.2999,2.4695,2.6201,2.7882,2.9388,3.0639,3.1649,3.2078,3.2226,3.2394,3.2659,3.3382,3.3886,3.3573,3.4102,3.4655,3.4943,3.5809,3.6459,3.6603,3.6819,3.6699,3.593,3.5112,3.4871,3.5689,3.6026,3.6459,3.7156,3.7324,3.7589,3.795,3.7974,3.7974,3.7974,3.7974,3.7974,3.7974,3.7974,3.7974,3.7974,3.7974,3.7974,3.7974,3.7974,3.7974,3.795,3.7421,3.6964,3.6579,3.5881,3.54,3.504,3.4847,3.4775,3.4775,3.4775,3.4775,3.4775,3.4775,3.4246,3.3477,3.3332,3.2659,3.191,3.1741,3.1717,3.1717,3.1717,3.1428,3.1139,3.1139,3.0302,2.9508,2.9508,2.9003,2.8522,2.8522,2.8811,2.8955,2.8595,2.8811,2.8667,2.733,2.6994,2.6585,2.5661,2.5083,2.4554,2.4083,2.34,2.3023,2.3023,2.2879,2.2951,2.3336,2.3023,2.2606,2.2221,2.1837,2.138,2.0851,2.0803,2.0803,2.0827,2.0798,2.1163,2.1837,2.2221,2.2751,2.3424,2.3809,2.4083,2.5636,2.7609,2.9484,3.0567,3.2034,3.3212,3.3236,3.3621,3.379,3.3356,3.3669,3.3982,3.3958,3.3982,3.4342,3.5425,3.605,3.6579,3.7108,3.6747,3.6411,3.6386,3.4967,3.403,3.4054,3.4991,3.6074,3.7108,3.7661,3.7974,3.7974,3.7974,3.7974,3.7974,3.7974,3.7974,3.7974,3.7974,3.7974,3.7974,3.7974,3.7974,3.7974,3.7974,3.7974,3.795,3.7421,3.718,3.7084,3.605,3.5617,3.5545,3.4967,3.4775,3.4775,3.4775,3.4775,3.4775,3.4775,3.4414,3.3886,3.3452,3.2923,3.237,3.1886,3.1717,3.1717,3.1717,3.1693,3.1693,3.1693,3.0898,3.0062,3.0062,2.9268,2.8522,2.8522,2.8522,2.8522,2.8522,2.8522,2.8354,2.7762,2.7234,2.6705,2.6166,2.5612,2.5083,2.4544,2.3616,2.3023,2.3023,2.251,2.2221,2.2246,2.2221,2.2221,2.2197,2.2173,2.1933,2.1404,2.138,2.138,2.138,2.138,2.1885,2.2975,2.2975,2.3472,2.4448,2.4448,2.4771,2.7272,2.9003,3.0687,3.213,3.314,3.3885,3.4222,3.4438,3.4366,3.3885,3.3645,3.3549,3.3549,3.3766,3.4222,3.4919,3.6122,3.6867,3.6699,3.6819,3.6531,3.5497,3.4534,3.3862,3.3573,3.4487,3.5232,3.5593,3.6771,3.7469,3.7469,3.7781,3.7974,3.7974,3.7974,3.7974,3.7974,3.7974,3.7974,3.7974,3.7974,3.7974,3.7974,3.7974,3.7974,3.7974,3.7781,3.7517,3.7132,3.6435,3.593,3.5569,3.504,3.4775,3.4775,3.4775,3.4775,3.4775,3.4775,3.4438,3.3958,3.379,3.3212,3.2466,3.2274,3.1961,3.1717,3.1717,3.1717,3.1717,3.1717,3.0879,3.0086,3.0086,2.9292,2.8522,2.8522,2.8787,2.8931,2.857,2.9076,2.9172,2.7945,2.7546,2.7031,2.5757,2.5131,2.4688,2.4496,2.3929,2.3408,2.3047,2.2855,2.2614,2.2221,2.2197,2.2197,2.2197,2.2197,2.2125,2.1933,2.1933,2.2101,2.2438,2.2462,2.2799,2.3529,2.3833,2.4194,2.4496,2.4891,2.5131,2.8937,3.0721,3.2346,3.3765,3.4366,3.4655,3.504,3.4775,3.4294,3.3598,3.2779,3.2202,3.2394,3.2539,3.3044,3.4294,3.5713,3.6651,3.6675,3.6988,3.6747,3.5545,3.4703,3.4078,3.3597,3.4102,3.4583,3.4775,3.6122,3.6988,3.718,3.7685,3.7974,3.7974,3.7974,3.7974,3.7974,3.7974,3.7974,3.7974,3.7974,3.7974,3.7974,3.7974,3.7974,3.7974,3.7974,3.7781,3.7421,3.6699,3.6218,3.5833,3.5328,3.4943,3.4799,3.504,3.4943,3.4775,3.4775,3.4558,3.4246,3.4054,3.3477,3.2755,3.2563,3.2106,3.1717,3.1717,3.1717,3.1717,3.1717,3.1067,3.0374,3.0374,2.9556,2.8787,2.8787,2.8907,2.8907,2.857,2.9051,2.9196,2.8186,2.7642,2.6994,2.5781,2.5131,2.4795,2.4795,2.4362,2.3977,2.3833,2.3304,2.2951,2.2775,2.2414,2.2197,2.2197,2.2197,2.2197,2.2197,2.2197,2.2534,2.3288,2.3288,2.3649,2.4314,2.465,2.4795,2.4784,2.5155,2.53,3.0636,3.2717,3.4342,3.5376,3.5617,3.5593,3.5545,3.4703,3.3646,3.2635,3.112,3.0134,3.0706,3.035,3.0855,3.3454,3.4823,3.5978,3.7012,3.7204,3.7036,3.6507,3.5569,3.4679,3.4126,3.4078,3.427,3.4775,3.5833,3.6627,3.7132,3.7685,3.7974,3.7974,3.7974,3.7974,3.7974,3.7974,3.7974,3.7974,3.7974,3.7974,3.7974,3.7974,3.7974,3.7974,3.7974,3.7974,3.7902,3.6843,3.6411,3.6362,3.5833,3.5304,3.4871,3.5425,3.5304,3.4823,3.4799,3.4775,3.4703,3.4198,3.3717,3.3188,3.2683,3.213,3.1717,3.1717,3.1717,3.1717,3.1717,3.1308,3.0922,3.0922,3.0062,2.9292,2.9292,2.8883,2.8522,2.8522,2.8522,2.8522,2.8546,2.7642,2.6753,2.6214,2.5685,2.5348,2.53,2.4867,2.4747,2.5228,2.3953,2.3264,2.3722,2.283,2.2221,2.2197,2.2197,2.2197,2.2197,2.2221,2.2727,2.377,2.3818,2.4324,2.5276,2.53,2.53,2.5276,2.5324,2.5348,3.1856,3.4074,3.5785,3.5641,3.5617,3.54,3.4583,3.3933,3.3068,3.1601,2.9701,2.8498,2.9003,2.9003,2.9653,3.1913,3.415,3.5857,3.6507,3.7276,3.7589,3.706,3.6747,3.6218,3.5304,3.5208,3.528,3.54,3.6026,3.6459,3.6603,3.7469,3.7974,3.7974,3.7974,3.7974,3.7974,3.7974,3.7974,3.7974,3.7974,3.7974,3.7974,3.7974,3.7974,3.7974,3.7974,3.7974,3.7902,3.6843,3.6411,3.6362,3.5833,3.5545,3.5425,3.5569,3.5521,3.5352,3.4968,3.4775,3.4751,3.4631,3.403,3.326,3.314,3.2418,3.1717,3.1717,3.1717,3.1717,3.1717,3.1308,3.0922,3.0922,3.0062,2.9292,2.9292,2.8883,2.8522,2.8522,2.8522,2.8643,2.9027,2.821,2.7306,2.6753,2.6262,2.5757,2.5348,2.518,2.5011,2.4712,2.4362,2.3881,2.3264,2.2975,2.2638,2.2221,2.2197,2.2197,2.2197,2.2558,2.3119,2.3794,2.4145,2.4458,2.4688,2.5131,2.5107,2.4712,2.5516,2.5901,3.3161,3.5212,3.6675,3.6386,3.6146,3.5617,3.4294,3.3284,3.2058,3.023,2.7969,2.6441,2.7007,2.7103,2.7873,3.023,3.2851,3.4847,3.5617,3.6627,3.7084,3.6555,3.6699,3.6531,3.5689,3.5833,3.5954,3.5954,3.6242,3.6507,3.6747,3.7541,3.7974,3.7974,3.7974,3.7974,3.7974,3.7974,3.7974,3.7974,3.7974,3.7974,3.7974,3.7974,3.7974,3.7974,3.7974,3.7974,3.7902,3.6843,3.6411,3.6362,3.5833,3.5617,3.5641,3.5881,3.5809,3.5569,3.528,3.4967,3.4775,3.4775,3.4318,3.3713,3.3403,3.2774,3.214,3.1765,3.1761,3.1849,3.1849,3.1719,3.1588,3.1588,3.0913,3.0282,3.0157,2.9552,2.8907,2.8546,2.8522,2.8667,2.9196,2.8426,2.7666,2.7594,2.6743,2.5901,2.5372,2.53,2.5276,2.5228,2.4795,2.4482,2.4362,2.3929,2.352,2.3232,2.3424,2.3448,2.3232,2.3496,2.3905,2.4434,2.4266,2.429,2.4496,2.4784,2.4939,2.4891,2.5709,2.6238,3.4267,3.6098,3.7252,3.7132,3.6699,3.5857,3.4078,3.2442,3.0681,2.8522,2.5901,2.4184,2.4867,2.4987,2.5901,2.8643,3.1384,3.3525,3.4487,3.5593,3.6122,3.5665,3.6074,3.6266,3.5857,3.6314,3.6627,3.6627,3.6627,3.6771,3.718,3.7685,3.7974,3.7974,3.7974,3.7974,3.7974,3.7974,3.7974,3.7974,3.7974,3.7974,3.7974,3.7974,3.7974,3.7974,3.7902,3.7878,3.7781,3.6747,3.629,3.6266,3.5785,3.5665,3.5785,3.6242,3.6122,3.5763,3.5691,3.5329,3.4872,3.4872,3.4727,3.4383,3.3758,3.3268,3.2772,3.2111,3.203,3.2113,3.2113,3.2332,3.255,3.255,3.2154,3.1692,3.1455,3.0472,2.9407,2.8659,2.8522,2.8667,2.9196,2.8474,2.793,2.845,2.72,2.5997,2.5396,2.53,2.5468,2.5853,2.5131,2.4963,2.5805,2.5035,2.4448,2.4434,2.4915,2.5011,2.4496,2.465,2.4915,2.53,2.4506,2.4218,2.4496,2.4544,2.4867,2.5324,2.5925,2.6502,3.4858,3.6464,3.7637,3.6771,3.6146,3.5112,3.2635,3.0518,0.0,2.631,2.3424,2.1716,2.3135,2.3376,2.4386,2.7488,3.0615,3.2851,3.3477,3.4823,3.5713,3.5617,3.6074,3.6531,3.6892,3.7397,3.7709,3.7709,3.7709,3.7565,3.7204,3.7685,3.7974,3.7974,3.7974,3.7974,3.7974,3.7974,3.7974,3.7974,3.7974,3.7974,3.7974,3.7974,3.7974,3.795,3.7517,3.7324,3.7252,3.6194,3.5761,3.5737,3.5665,3.5881,3.6266,3.6362,3.649,3.6521,3.606,3.5722,3.5428,3.5235,3.5085,3.504,3.4895,3.4222,3.3405,3.333,3.294,3.2636,3.2785,3.3172,3.3471,3.3471,3.3038,3.2631,3.2382,3.1075,2.9649,2.8698,2.8522,2.8667,2.9196,2.8787,2.8402,2.8498,2.7536,2.6393,2.5444,2.53,2.518,2.4819,2.5011,2.5083,2.4819,2.4626,2.4338,2.3962,2.4362,2.4626,2.4496,2.5348,2.5661,2.5324,2.5564,2.53,2.4496,2.4963,2.5228,2.5324,2.6297,2.7042,3.5376,3.6549,3.7324,3.6266,3.54,3.403,3.1096,0.0,0.0,2.4602,2.2005,2.049,2.1548,2.1981,2.3015,2.5601,2.8739,3.112,3.1913,3.3404,3.4511,3.4727,3.5497,3.6194,3.6723,3.7517,3.7974,3.7974,3.7974,3.7878,3.7613,3.7853,3.7974,3.7974,3.7974,3.7974,3.7974,3.7974,3.7974,3.7974,3.7974,3.7974,3.7974,3.7974,3.7974,3.795,3.7421,3.7204,3.7108,3.605,3.5617,3.5593,3.5255,3.5689,3.6411,3.6563,3.6842,3.7145,3.7048,3.6771,3.6405,3.6521,3.6391,3.6138,3.5881,3.5491,3.5048,3.4331,3.3889,3.368,3.3717,3.3953,3.4272,3.433,3.3996,3.353,3.3081,3.2019,3.0819,2.9681,2.9373,2.9326,2.9569,2.918,2.8913,2.9205,2.8329,2.7235,2.6165,2.5948,2.5526,2.4602,2.4987,2.5324,2.5348,2.5348,2.5372,2.542,2.5901,2.619,2.619,2.6671,2.6815,2.6574,2.6262,2.5853,2.5348,2.5588,2.5877,2.6129,2.6946,2.7594,3.5717,3.6545,3.6892,3.5593,3.4438,3.2829,2.9677,2.7464,0.0,2.2967,2.0682,1.9312,1.9985,2.0442,2.1452,2.3664,2.6598,2.8979,3.0037,3.1793,3.314,3.3598,3.4679,3.5689,3.6338,3.7348,3.7974,3.7974,3.7974,3.7974,3.7974,3.7974,3.7974,3.7974,3.7974,3.7974,3.7974,3.7974,3.7974,3.7974,3.7974,3.7974,3.7974,3.7974,3.7974,3.795,3.73,3.7063,3.7043,3.5982,3.5547,3.5573,3.5259,3.5718,3.6638,3.7089,3.7493,3.7816,3.8187,3.7935,3.7453,3.7959,3.7821,3.7422,3.7046,3.7037,3.6883,3.5731,3.5185,3.4942,3.4895,3.4974,3.5141,3.5359,3.5155,3.4668,3.3869,3.3183,3.2275,3.0903,3.0463,3.0278,3.001,2.9638,2.9489,2.9935,2.9167,2.8238,2.7246,2.6879,2.6197,2.5002,2.5129,2.5468,2.5973,2.5961,2.6166,2.6756,2.7248,2.757,2.7729,2.7786,2.781,2.769,2.6887,2.6382,2.6286,2.6286,2.6574,2.7066,2.7498,2.8017,3.5615,3.6435,3.6723,3.4631,3.3404,3.1793,2.8595,0.0,2.2871,2.1187,1.8734,1.7195,1.8229,1.847,1.936,2.1981,2.465,2.6767,2.7849,3.0206,3.2054,3.2587,0.0,3.5304,3.6314,3.7348,3.7974,3.7974,3.7974,3.7974,3.7974,3.7974,3.7974,3.7974,3.7974,3.7974,3.7974,3.7974,3.7974,3.7974,3.7974,3.7974,3.7974,3.7974,3.7974,3.7926,3.6916,3.6635,3.6765,3.5697,3.5405,3.5647,3.6088,3.6603,3.7242,3.8316,3.8666,3.8651,3.9184,3.895,3.8477,3.9024,3.898,3.8747,3.8961,3.882,3.853,3.819,3.7122,3.6178,3.6358,3.6347,3.6338,3.6705,3.6665,3.6196,3.5237,3.4642,3.382,3.2096,3.1552,3.1139,3.0381,3.0216,3.0228,3.0241,2.9769,2.9193,2.8677,2.7926,2.7122,2.6242,2.5627,2.5394,2.5643,2.5502,2.5684,2.6396,2.6769,2.7186,2.7666,2.8186,2.821,2.769,2.7594,2.7306,2.6825,2.6825,2.709,2.7618,2.7666,2.8017,3.4968,3.5689,3.5809,3.403,3.2298,3.0206,2.7007,2.4073,2.1572,1.9961,1.8037,1.6931,1.8013,1.8205,1.8975,2.1332,2.364,2.5601,2.7018,2.8979,3.0663,3.1865,3.2851,3.3958,3.5328,3.6411,3.73,3.7926,3.7974,3.7974,3.7974,3.7974,3.7974,3.7974,3.7974,3.7974,3.7974,3.7974,3.7974,3.7974,3.7974,3.7974,3.7974,3.7974,3.7974,3.7926,3.7022,3.6842,3.7145,3.6256,3.6343,3.7076,3.7278,3.7909,3.8817,3.9592,3.9823,3.9949,4.0469,4.0287,3.9881,4.0229,4.0358,4.0315,4.0012,3.9905,3.9743,3.8767,3.7964,3.7318,3.6809,3.7087,3.7524,3.7402,3.7522,3.7439,3.6454,3.5818,3.5058,3.3934,3.3382,3.2777,3.1665,3.152,3.1453,3.0936,3.0749,3.0482,2.9859,2.9392,2.8615,2.7227,2.6338,2.6009,2.641,2.6058,2.6377,2.7656,2.7433,2.7524,2.8162,2.8402,2.8258,2.769,2.8041,2.7945,2.7378,2.769,2.7993,2.8186,2.8186,2.8306,3.3597,3.4511,3.4727,3.302,3.1096,2.8835,2.5781,2.2919,2.0514,1.9047,1.7459,1.6643,1.758,1.7748,1.8398,2.037,2.2173,2.3977,2.5721,2.7512,2.9196,3.0826,3.1721,3.2803,3.4246,3.5617,3.6895,3.8007,3.8027,3.7974,3.7974,3.7974,3.7974,3.7974,3.7974,3.7974,3.7974,3.7974,3.7974,3.7974,3.7974,3.8027,3.8133,3.7935,3.7968,3.8052,3.7237,3.7147,3.754,3.69,3.7275,3.8239,3.8467,3.9162,4.0115,4.0702,4.093,4.1001,4.137,4.1207,4.0901,4.1071,4.1283,4.1367,4.0873,4.076,4.0576,3.9463,3.8779,3.8084,3.7209,3.7579,3.8118,3.7825,3.8045,3.809,3.7518,3.695,3.6325,3.5587,3.5089,3.429,3.2901,3.2761,3.2573,3.177,3.1773,3.1675,3.1137,3.0707,2.9872,2.8341,2.7436,2.7015,2.7157,2.6741,2.7107,2.8687,2.799,2.7886,2.8569,2.8538,2.833,2.7969,2.833,2.833,2.7969,2.833,2.8522,2.8522,2.8522,2.8522,3.1452,3.2851,3.3502,3.1432,2.9701,2.7825,2.5096,2.2077,1.9531,1.8422,1.6931,1.5972,1.6523,1.6619,1.7147,1.8758,1.9941,2.1386,2.3529,2.5612,2.7498,2.9124,3.0754,3.2151,3.3188,3.5184,3.6946,3.8271,3.8133,3.7974,3.7974,3.7974,3.7974,3.7974,3.7974,3.7974,3.7974,3.7974,3.7974,3.7974,3.7974,3.8157,3.8396,3.7861,3.7876,3.8362,3.7467,3.7402,3.7855,3.7619,3.7956,3.8762,3.9549,4.0271,4.0896,4.1618,4.1778,4.1681,4.1591,4.1524,4.1396,4.1396,4.1535,4.1702,4.1702,4.1394,4.1065,4.0821,3.9659,3.8385,3.7758,3.7739,3.7929,3.8127,3.8202,3.8202,3.8202,3.8043,3.7652,3.6842,3.6354,3.5573,3.3974,3.3679,3.3458,3.2786,3.2704,3.2704,3.2704,3.1861,3.084,2.9715,2.9029,2.8386,2.7656,2.7224,2.7633,2.9098,2.825,2.8013,2.8767,2.8618,2.8522,2.8498,2.8522,2.8522,2.8498,2.8522,2.8522,2.8522,2.8522,2.8522,2.9124,3.0398,3.0927,2.9148,2.7777,2.6166,2.352,2.1019,1.8951,1.7869,1.6667,1.609,1.6979,1.7147,1.7676,1.929,2.0442,2.1765,2.3553,2.5588,2.7498,2.91,3.1467,3.3465,3.4556,3.5915,3.7151,3.8323,3.8133,3.7974,3.7974,3.7974,3.7974,3.7974,3.7974,3.7974,3.7974,3.7974,3.7974,3.7974,3.821,3.8502,3.8948,3.8713,3.8995,3.9567,3.8726,3.8658,3.9097,3.8652,3.9181,4.0374,4.0842,4.1462,4.2167,4.2703,4.2586,4.2131,4.2237,4.2122,4.1885,4.1885,4.1897,4.198,4.198,4.1906,4.1558,4.0418,3.9039,3.7882,3.7835,3.817,3.8515,3.8281,3.8551,3.8754,3.8289,3.8043,3.7834,3.7595,3.7196,3.6598,3.5517,3.5339,3.4976,3.3876,3.3737,3.3561,3.3142,3.2715,3.1873,3.03,3.0201,2.9888,2.9057,2.8464,2.9013,3.1029,3.0289,2.996,3.0366,2.9828,2.918,2.8522,2.8522,2.833,2.793,2.833,2.8522,2.8522,2.8883,2.9051,2.6238,2.7488,2.7993,2.6777,2.5709,2.4386,2.2366,2.0278,1.8497,1.7604,1.6593,1.6134,1.6955,1.7099,1.758,1.8951,1.9913,2.1187,2.3216,2.53,2.7623,3.035,3.2443,3.4235,3.5769,3.6479,3.7305,3.8428,3.8185,3.7974,3.7974,3.7974,3.7974,3.7974,3.7974,3.8027,3.8133,3.8133,3.8185,3.8291,3.8463,3.8807,3.927,3.9015,3.9391,4.0129,3.9389,3.9355,0.0,3.9716,4.0323,4.136,4.1636,4.2251,4.2953,4.289,4.266,4.241,4.228,4.2174,4.2092,4.2092,4.2092,4.2092,4.2092,4.1918,4.1413,3.9989,3.8909,3.8179,3.8063,3.8332,3.8543,3.8252,3.8522,3.8725,3.8289,3.8089,3.8005,3.8005,3.7777,3.7272,3.6467,3.6344,3.5891,3.4646,3.444,3.4214,3.3557,3.3333,3.2612,3.0951,3.0976,3.0874,3.033,2.9834,3.0333,3.2186,3.1736,3.1397,3.1458,3.0658,2.985,2.9092,2.8754,2.8409,2.7978,2.8354,2.8522,2.8522,2.9051,2.9292,0.0,2.4242,2.5011,2.4434,2.3616,2.263,2.1548,1.9779,0.0,1.7556,1.6662,1.6126,1.657,1.6667,1.7027,1.8133,1.8782,2.0081,2.271,2.4998,2.8077,3.2483,3.3503,3.4689,3.6772,3.6923,3.7455,3.8767,3.8368,3.8027,3.8027,3.8003,3.7979,3.7979,3.7983,3.8113,3.8449,3.8473,3.8631,3.8921,3.8891,3.917,3.9642,3.9038,3.9336,4.0296,3.9751,3.9771,4.0249,4.083,4.1339,4.1882,4.2154,4.2716,4.3234,4.2345,4.2281,4.248,4.1946,4.1897,4.2092,4.2092,4.2092,4.2092,4.2092,4.1628,4.0844,3.9683,3.9276,3.9073,3.8434,3.8231,3.8202,3.826,3.826,3.826,3.826,3.826,3.826,3.8202,3.8043,3.7652,3.6937,3.6776,3.6339,3.5118,3.4946,3.4682,3.4054,3.3795,3.3111,3.1673,3.1471,3.1443,3.1443,3.1143,3.1439,3.2691,3.2675,3.2511,3.226,3.136,3.0643,3.0202,2.934,2.8794,2.8619,2.8619,2.8619,2.8643,2.9172,2.9412,1.9263,0.0,2.3304,2.2366,2.227,2.1981,0.0,1.9247,1.8211,1.7556,1.6662,1.6248,1.7051,1.7195,1.77,1.9167,2.0225,2.1476,2.336,2.6977,3.0615,3.3771,3.493,3.5982,3.7369,3.7816,3.841,3.9415,3.8945,3.8631,3.8631,3.824,3.802,3.802,3.7936,3.8262,3.9,3.9208,3.957,4.0007,3.995,4.0334,4.101,4.0537,4.1056,4.2439,4.1862,4.1949,4.2518,4.2483,4.2402,4.2334,4.2632,4.2656,4.2536,4.2482,4.2365,4.2212,4.2038,4.2051,4.2092,4.2092,4.2092,4.2092,4.2092,4.1628,4.1047,4.0728,3.9944,3.916,3.9015,3.858,3.8347,3.8841,3.8957,3.8957,3.8957,3.8957,3.8812,3.8289,3.8043,3.7834,3.7652,3.7472,3.7177,3.6589,3.6364,3.6069,3.5547,3.4924,3.4013,3.2691,3.2122,3.1838,3.1838,3.1405,3.1778,3.3294,3.3646,3.3819,3.3913,3.3436,3.2728,3.1928,3.0548,2.9742,2.9725,2.9725,2.9725,2.9725,3.0254,3.0494,1.8061,1.9648,2.1019,2.0442,2.0514,2.0418,1.9312,1.8381,1.763,1.7147,1.6539,1.629,1.693,1.7291,1.8066,1.9691,2.1102,2.3181,2.6517,2.9715,3.2779,3.5571,3.638,3.7244,3.8491,3.8841,3.932,4.0134,3.9698,3.944,3.9519,3.8916,3.8565,3.8642,3.8588,3.8736,3.9171,3.9396,3.9794,4.0288,4.0245,4.0549,4.1175,4.1183,4.1856,4.2955,4.281,4.3026,4.3428,4.3165,4.2988,4.2871,4.2675,4.2537,4.241,4.2265,4.2145,4.2092,4.2092,4.2092,4.2092,4.2092,4.2092,4.2092,4.2092,4.1831,4.1482,4.1192,4.0612,3.9944,3.9363,3.8928,3.8754,3.9102,3.9189,3.9189,3.9189,3.9189,3.9015,3.8347,3.8089,3.8043,3.8043,3.7967,3.7699,3.7205,3.7045,3.6749,3.6194,3.5523,3.4704,3.3691,3.3062,3.2688,3.2688,3.2359,3.2635,3.3824,3.4232,3.4612,3.4905,3.419,3.3277,3.2225,3.0778,3.0094,3.0229,2.9987,2.997,3.011,3.0639,3.0922,1.8063,1.869,1.9172,1.9146,1.9266,1.9215,1.8712,1.8019,1.7408,1.7098,1.6777,1.6649,1.7001,1.7606,1.863,2.0342,2.2297,2.5314,3.0343,3.2296,3.4333,3.727,3.7618,3.8116,3.9497,3.965,3.9956,4.0659,4.0335,4.0184,4.0309,3.9645,3.9263,3.9336,3.9403,3.9402,3.9354,3.9633,3.9997,4.0562,4.0413,4.0611,4.103,4.1571,4.2223,4.2897,4.3357,4.3659,4.3805,4.3616,4.3413,4.3184,4.2625,4.2467,4.2465,4.1946,4.1897,4.2092,4.2092,4.2092,4.2092,4.2092,4.2092,4.2092,4.2092,4.2092,4.1976,4.1395,4.1163,4.0844,3.977,3.9363,3.9218,3.9305,3.9276,3.9218,3.9305,3.9334,3.916,3.8609,3.8492,3.8463,3.8376,3.8347,3.8144,3.7535,3.7447,3.7244,3.6664,3.5967,3.5305,3.4632,3.3906,3.3503,3.3503,3.3339,3.3493,3.4135,3.4565,3.5022,3.5449,3.4524,3.3396,3.2162,3.1044,3.0507,3.0604,3.013,3.008,3.0356,3.0802,3.1043,1.8142,1.9268,1.9973,1.973,2.0346,2.0928,2.0487,2.0046,1.9591,1.9149,1.8609,1.8388,1.8952,1.944,2.044,2.2616,2.5561,2.8617,3.1705,3.294,3.4537,3.727,3.7588,3.8057,3.9171,3.9436,3.9711,4.0261,4.024,4.007,3.99,3.9564,3.9248,3.9013,3.9355,3.9847,4.0447,4.1041,4.1608,4.2154,4.1763,4.179,4.2094,4.2381,4.3041,4.382,4.4385,4.4646,4.469,4.4646,4.4037,4.3052,4.2936,4.2589,4.2167,4.208,4.2051,4.2092,4.2092,4.2092,4.2092,4.2092,4.2092,4.2092,4.2092,4.2092,4.2063,4.1976,4.1541,4.1047,4.0844,4.0002,3.9334,3.9828,3.9567,3.9334,3.9857,3.9973,3.9915,3.9828,3.9799,3.9654,3.9131,3.9044,3.8812,3.8173,3.8057,3.8028,3.7912,3.6896,3.5909,3.5305,3.4201,3.3503,3.3503,3.3339,3.3461,3.4106,3.4526,3.5155,3.5871,3.5747,3.5021,3.3754,3.2828,3.2066,3.1427,3.1473,3.1403,3.1272,3.1506,3.1597,1.8216,1.9173,1.9883,2.0336,2.1282,2.197,2.1521,2.1071,2.0711,2.0409,1.997,1.9871,2.0631,2.1498,2.3269,2.6781,2.9098,3.1215,3.3339,3.42,3.544,3.7542,3.7684,3.8174,3.964,3.9838,4.028,4.1305,4.1259,4.1213,4.1232,4.0686,4.0359,4.0286,4.0332,4.0702,4.1438,4.1753,4.1907,4.1879,4.1753,4.1953,4.251,4.2984,4.3647,4.4501,4.4763,4.4879,4.4821,4.4153,4.3515,4.2963,4.2644,4.2324,4.2092,4.2092,4.2092,4.2092,4.2092,4.2092,4.2092,4.2092,4.2092,4.2092,4.2092,4.2092,4.2092,4.2092,4.1889,4.1541,4.1192,4.067,4.0205,4.0118,3.9886,3.977,4.0031,4.0089,4.0089,4.0089,4.0089,3.9915,3.9305,3.9189,3.8986,3.8289,3.8202,3.8202,3.8202,3.7418,3.6606,3.5938,3.5072,3.452,3.452,3.4453,3.4398,3.4479,3.511,3.5638,3.6023,3.6225,3.5907,3.4996,3.395,3.329,3.3096,3.2532,3.2239,3.2326,3.2166,3.1981,1.8561,1.9178,1.982,2.1152,2.2184,2.2776,2.2411,2.2278,2.2188,2.2005,2.1691,2.1745,2.26,2.4047,2.6355,3.0259,3.1836,3.3164,3.4855,3.5415,3.6247,3.7785,3.7868,3.8372,3.9935,4.0153,4.0731,4.1948,4.2004,4.2004,4.2064,4.1571,4.1275,4.1405,4.1256,4.1451,4.2092,4.2092,4.1926,4.1564,4.1564,4.1906,4.2565,4.3171,4.3806,4.4443,4.4618,4.4589,4.4356,4.3398,4.2905,4.2731,4.2266,4.2092,4.2092,4.2092,4.2092,4.2092,4.2092,4.2092,4.2092,4.2092,4.2092,4.2092,4.2092,4.2092,4.2092,4.2092,4.2092,4.1976,4.1453,4.1221,4.096,4.0466,4.0205,4.0089,4.0089,4.0089,4.0089,4.0089,4.0089,3.9915,3.9305,3.9189,3.8986,3.8289,3.8202,3.826,3.8405,3.7883,3.7331,3.6809,3.6199,3.5799,3.5625,3.5625,3.5542,3.5404,3.5971,3.6314,3.6316,3.6641,3.6503,3.5839,3.4793,3.4299,3.4307,3.3364,3.2986,3.3098,3.2821,3.255,1.9284,1.9735,2.026,2.2414,2.3201,2.3459,2.3542,2.435,2.502,2.4618,2.4404,2.4521,2.5227,2.7293,2.9542,3.1422,3.2832,3.4289,3.5981,3.6191,3.6652,3.7782,3.8054,3.8503,3.9389,3.9949,4.0513,4.1029,4.1341,4.1341,4.1142,4.1284,4.1284,4.1015,4.1451,4.1785,4.2092,4.2092,4.2092,4.2051,4.2051,4.208,4.2179,4.2789,4.3079,4.3166,4.3776,4.3689,4.3137,4.3021,4.2673,4.215,4.2121,4.2092,4.2092,4.2092,4.2092,4.2092,4.2092,4.2092,4.2092,4.2092,4.2092,4.2092,4.2092,4.2092,4.2092,4.2092,4.2092,4.2092,4.2034,4.157,4.1076,4.1047,4.0554,4.0089,4.0089,4.0089,4.0089,4.0089,4.0089,3.9915,3.9305,3.9189,3.8986,3.8289,3.8202,3.8434,3.9044,3.8551,3.8115,3.8057,3.7535,3.6925,3.6286,3.6257,3.6519,3.7092,3.7179,3.7134,3.6942,3.732,3.7072,3.6097,3.562,3.492,3.4043,3.3821,3.3616,3.3439,3.3553,3.3513,1.9535,1.9811,2.0162,2.1719,2.296,2.4097,2.5186,2.6296,2.7122,2.7308,2.7609,2.7809,2.7659,2.8835,3.0611,3.3053,3.4272,3.565,3.7803,3.8086,3.8379,3.9111,3.9122,3.9481,4.0618,4.0737,4.1001,4.1647,4.1773,4.1773,4.1689,4.1773,4.1773,4.1689,4.1856,4.2009,4.2092,4.2092,4.2092,4.2092,4.2092,4.2295,4.2673,4.2905,4.3224,4.3602,4.3427,4.3224,4.2963,4.2586,4.2295,4.2092,4.2092,4.2092,4.2092,4.2092,4.2092,4.2092,4.2092,4.2092,4.2092,4.2092,4.2092,4.2092,4.2092,4.2092,4.2092,4.2092,4.2092,4.2092,4.2092,4.1918,4.1628,4.1192,4.0902,4.0612,4.0176,4.0089,4.0089,4.0089,4.0089,3.9915,3.9305,3.9189,3.8986,3.8289,3.8202,3.8434,3.9102,3.8986,3.8667,3.8231,3.768,3.7215,3.6954,3.7273,3.7593,3.7854,3.7506,3.7366,3.7555,3.7701,3.7472,3.6872,3.6564,3.6181,3.5648,3.5076,3.478,3.4672,3.4334,3.4021,1.966,1.9685,1.9911,2.1368,2.2874,2.4582,2.6741,2.7971,2.885,2.9553,3.0195,3.0399,2.9428,3.0394,3.2044,3.4345,3.563,3.7037,3.9125,3.9458,3.9595,3.9959,3.9997,4.0308,4.1221,4.1298,4.1493,4.2051,4.2092,4.2092,4.2092,4.2092,4.2092,4.2092,4.2092,4.2092,4.2092,4.2092,4.2092,4.2092,4.2092,4.2324,4.2702,4.2702,4.2963,4.3369,4.2905,4.2702,4.2673,4.2266,4.2092,4.2092,4.2092,4.2092,4.2092,4.2092,4.2092,4.2092,4.2092,4.2092,4.2092,4.2092,4.2092,4.2092,4.2092,4.2092,4.2092,4.2092,4.2092,4.2092,4.2092,4.2092,4.1976,4.1512,4.1424,4.1221,4.0554,4.0408,4.035,4.0147,4.0089,3.9973,3.9567,3.9479,3.9334,3.887,3.8812,3.8957,3.9421,3.9683,3.9625,3.916,3.8551,3.8173,3.8173,3.8405,3.8522,3.8522,3.7941,3.7721,3.7976,3.8005,3.7853,3.751,3.7289,3.7084,3.6772,3.6058,3.5696,3.5616,3.5059,3.4688,1.966,1.9409,1.9559,2.1794,2.3175,2.4883,2.8161,2.9402,3.0131,3.121,3.207,3.2107,3.0456,3.2214,3.4205,3.5116,3.6687,3.8334,3.983,3.9996,3.9996,3.9996,4.043,4.0773,4.1001,4.1423,4.1785,4.2092,4.2092,4.2092,4.2092,4.2092,4.2092,4.2092,4.2092,4.2092,4.2092,4.2092,4.2092,4.2092,4.2092,4.2092,4.2092,4.2092,4.2092,4.2092,4.2092,4.2092,4.2092,4.2092,4.2092,4.2092,4.2092,4.2092,4.2092,4.2092,4.2092,4.2092,4.2092,4.2092,4.2092,4.2092,4.2092,4.2092,4.2092,4.2092,4.2092,4.2092,4.2092,4.2092,4.2092,4.2092,4.2092,4.2092,4.2092,4.1918,4.125,4.1105,4.0902,4.0234,4.0089,4.0089,4.0089,4.0089,4.0089,4.0089,4.0089,4.0089,4.0089,4.067,4.1076,4.1076,4.0495,4.0089,4.0089,3.9538,3.9189,3.9189,3.858,3.8202,3.8202,3.8202,3.8118,3.7891,3.7701,3.7394,3.6978,3.6575,3.6286,3.6086,3.5858,3.5588,2.0189,2.0589,2.1219,2.3204,2.4862,2.6798,2.9884,3.1073,3.2039,3.3878,3.3997,3.37,3.329,3.4096,3.5359,3.7035,3.8178,3.9461,4.1224,4.148,4.148,4.148,4.1606,4.1689,4.1773,4.1897,4.198,4.2092,4.2092,4.2092,4.2092,4.2092,4.2092,4.2092,4.2092,4.2092,4.2092,4.2092,4.2092,4.2092,4.2092,4.2092,4.2092,4.2092,4.2092,4.2092,4.2092,4.2092,4.2092,4.2092,4.2092,4.2092,4.2092,4.2092,4.2092,4.2092,4.2092,4.2092,4.2092,4.2092,4.2092,4.2092,4.2092,4.2092,4.2092,4.2092,4.2092,4.2092,4.2092,4.2092,4.2092,4.2092,4.2092,4.2092,4.2092,4.1918,4.125,4.1105,4.0902,4.0234,4.0089,4.0089,4.0089,4.0089,4.0089,4.0089,4.0089,4.0089,4.0089,4.0263,4.0408,4.0408,4.0205,4.0089,4.0089,3.9102,3.8696,3.916,3.8173,3.7767,3.8173,3.8202,3.8118,3.7891,3.7853,3.7625,3.7211,3.6968,3.6733,3.6524,3.6138,3.6046,2.039,2.1245,2.2329,2.4405,2.6575,2.9155,3.287,3.3782,3.423,3.5527,3.5635,3.5418,3.5136,3.5897,3.6988,3.8416,3.9373,4.0428,4.1906,4.2092,4.2092,4.2092,4.2092,4.2092,4.2092,4.2092,4.2092,4.2092,4.186,4.1686,4.1686,4.1453,4.1308,4.1308,4.1308,4.1424,4.1686,4.1686,4.1831,4.2092,4.2092,4.2092,4.2092,4.2092,4.2092,4.2092,4.2092,4.2092,4.2092,4.2092,4.2092,4.2092,4.2092,4.2092,4.2092,4.2092,4.2092,4.2092,4.2092,4.2092,4.2092,4.2092,4.2092,4.2092,4.2092,4.2092,4.2092,4.2092,4.2092,4.2092,4.2092,4.2092,4.2092,4.2092,4.2092,4.1976,4.157,4.1482,4.1366,4.096,4.0902,4.0902,4.0902,4.0902,4.0902,4.0902,4.067,4.0583,4.0844,4.067,4.0583,4.0873,4.0902,4.0786,4.0525,3.9538,3.9015,3.9189,3.8492,3.8231,3.858,3.8347,3.8127,3.8043,3.8043,3.7853,3.7548,3.7327,3.7084,3.6811,3.6405,3.6286,2.0416,2.1599,2.3064,2.5485,2.8395,3.183,3.64,3.6981,3.6561,3.6541,3.7082,3.7272,3.6523,3.7675,3.8891,3.9451,4.0302,4.1191,4.1964,4.2092,4.2092,4.2092,4.2092,4.2092,4.2092,4.2092,4.2063,4.2005,4.1424,4.1076,4.1018,4.0437,4.0089,4.0089,4.0089,4.0379,4.0989,4.1018,4.1308,4.1918,4.1976,4.2005,4.2005,4.2063,4.2092,4.2092,4.2092,4.2092,4.2092,4.2092,4.2092,4.2092,4.2092,4.2092,4.2092,4.2092,4.2092,4.2092,4.2092,4.2092,4.2092,4.2092,4.2092,4.2092,4.2092,4.2092,4.2092,4.2092,4.2092,4.2092,4.2092,4.2092,4.2092,4.2092,4.2092,4.2092,4.2092,4.2092,4.2092,4.2092,4.2092,4.2092,4.2092,4.2092,4.2092,4.2092,4.1541,4.1308,4.1918,4.1482,4.1337,4.1947,4.2063,4.186,4.125,4.0525,3.9886,3.9392,3.9276,3.9218,3.9276,3.8696,3.8376,3.8376,3.8318,3.8205,3.8064,3.7854,3.7546,3.7186,3.6821,3.665,2.0551,2.2492,2.4587,2.6902,3.0806,3.4702,3.736,3.8206,3.8434,3.8541,3.8871,3.9229,3.9559,4.0111,4.0688,4.1369,4.1649,4.1877,4.2063,4.2092,4.2092,4.2092,4.2092,4.2092,4.2092,4.2092,4.1889,4.1337,4.1163,4.0873,4.035,4.0176,4.0089,4.0089,4.0089,4.0176,4.0321,4.0321,4.0379,4.0525,4.1047,4.1308,4.1337,4.186,4.2092,4.2092,4.2092,4.2092,4.2092,4.2092,4.2092,4.2092,4.2092,4.2092,4.2092,4.2092,4.2092,4.2092,4.2092,4.2092,4.2092,4.2092,4.2092,4.2092,4.2092,4.2092,4.2092,4.2092,4.2092,4.2092,4.2092,4.2092,4.2092,4.2092,4.2092,4.2092,4.2092,4.2092,4.2092,4.2092,4.2092,4.2092,4.2092,4.2092,4.2092,4.2092,4.1541,4.1163,4.1308,4.1192,4.1163,4.1308,4.1773,4.2034,4.1889,4.0786,4.0263,4.067,3.9741,3.9421,3.9886,3.977,3.9683,3.9683,3.9218,3.9102,3.9398,3.887,3.8664,3.871,3.8468,3.8346,2.0809,2.3214,2.6122,3.0331,3.3818,3.6643,3.8274,3.9345,4.0026,4.0083,4.0135,4.0272,4.0717,4.1085,4.1493,4.2009,4.2092,4.1976,4.1657,4.1628,4.1482,4.1163,4.1134,4.1134,4.1134,4.1134,4.0989,4.0641,4.035,4.0031,3.9683,3.9363,3.9189,3.9189,3.9189,3.9334,3.9654,3.9683,3.9799,4.0089,4.0437,4.0786,4.1105,4.1773,4.2092,4.2092,4.2092,4.2092,4.2092,4.2092,4.2092,4.2092,4.2092,4.2092,4.2092,4.2092,4.2092,4.2092,4.2092,4.2092,4.2092,4.2092,4.2092,4.2092,4.2092,4.2092,4.2092,4.2092,4.2092,4.2092,4.2092,4.2092,4.2092,4.2092,4.2092,4.2092,4.2092,4.2092,4.2092,4.2092,4.2092,4.2092,4.2092,4.2092,4.2092,4.2092,4.1802,4.157,4.157,4.157,4.157,4.157,4.1889,4.1976,4.1657,4.0989,4.0583,4.0612,4.0292,4.0263,4.0554,4.0873,4.0757,4.0118,3.9509,3.947,3.996,3.9324,3.9197,3.947,3.9309,3.9147,2.1,2.404,2.7827,3.3627,3.6127,3.751,3.89,4.0031,4.0786,4.0902,4.0936,4.0958,4.0986,4.1321,4.1625,4.1732,4.1744,4.1541,4.0989,4.0931,4.0728,4.0176,4.0089,4.0089,4.0089,4.0089,4.006,3.9944,3.9479,3.916,3.9044,3.8492,3.8202,3.8202,3.8202,3.8463,3.9015,3.9015,3.9276,3.977,3.9886,4.0292,4.0931,4.1482,4.1889,4.2092,4.1976,4.1976,4.2092,4.2092,4.2092,4.2092,4.2092,4.2092,4.2092,4.2092,4.2092,4.2092,4.2092,4.2092,4.2092,4.2092,4.2092,4.2092,4.2092,4.2092,4.2092,4.2092,4.2092,4.2092,4.2092,4.2092,4.2092,4.2092,4.2092,4.2092,4.2092,4.2092,4.2092,4.2092,4.2092,4.2092,4.2092,4.2092,4.2092,4.2092,4.2092,4.2092,4.2092,4.2092,4.2092,4.2092,4.2092,4.1889,4.1308,4.1279,4.1047,4.0466,4.096,4.1279,4.1279,4.1802,4.157,4.0466,3.9828,3.9828,4.0437,3.9828,3.9739,4.0147,3.9957,3.9743,2.103,2.5273,2.9978,3.3677,3.5389,3.672,3.8735,3.9334,3.9596,4.0118,4.114,4.1753,4.1215,4.114,4.0978,4.0466,4.0379,4.0321,4.0234,4.0234,4.0205,4.0118,4.0089,4.0089,4.0089,4.0089,3.9886,3.9363,3.9247,3.8957,3.8376,3.826,3.8202,3.8202,3.8202,3.8231,3.8347,3.8347,3.8376,3.8463,3.9044,3.9625,4.0234,4.0321,4.0989,4.2063,4.1482,4.157,4.2092,4.2092,4.2092,4.2092,4.2092,4.2092,4.2092,4.2092,4.2092,4.2092,4.2092,4.2092,4.2092,4.2092,4.2092,4.2092,4.2092,4.2092,4.2092,4.2092,4.2092,4.2092,4.2092,4.2092,4.2092,4.2092,4.2092,4.2092,4.2092,4.2092,4.2092,4.2092,4.2092,4.2092,4.2092,4.2092,4.2092,4.2092,4.2092,4.2092,4.2092,4.2092,4.2092,4.2092,4.2092,4.2063,4.1976,4.1976,4.1918,4.1831,4.1918,4.1976,4.1976,4.2063,4.2005,4.1831,4.1192,4.1163,4.1831,4.1163,4.1042,4.1443,4.1402,4.1194,2.2965,2.6998,3.0833,3.3738,3.5603,3.699,3.7904,3.8696,3.9276,3.9538,4.0321,4.0873,4.0583,4.0525,4.0437,4.0147,4.0089,3.9973,3.9625,3.9596,3.945,3.9073,3.9044,3.9044,3.9044,3.9044,3.8928,3.8667,3.8638,3.8522,3.8231,3.8202,3.8202,3.8202,3.8202,3.8202,3.8202,3.8202,3.8202,3.8202,3.887,3.9334,3.9596,3.9596,4.0321,4.1512,4.1221,4.1482,4.2092,4.2092,4.2092,4.2092,4.2092,4.2092,4.2092,4.2092,4.2092,4.2092,4.2092,4.2092,4.2092,4.2092,4.2092,4.2092,4.2092,4.2092,4.2092,4.2092,4.2092,4.2092,4.2092,4.2092,4.2092,4.2092,4.2092,4.2092,4.2092,4.2092,4.2092,4.2092,4.2092,4.2092,4.2092,4.2092,4.2092,4.2092,4.2092,4.2092,4.2092,4.2092,4.2092,4.2092,4.2092,4.2092,4.2092,4.2092,4.2092,4.2092,4.2092,4.2092,4.2092,4.2092,4.2092,4.2092,4.1424,4.1424,4.2092,4.1424,4.1384,4.1939,4.1939,4.1702,2.3762,2.7198,3.022,3.26,3.4661,3.617,3.6489,3.7564,3.8522,3.8696,3.9189,3.9625,3.9625,3.9741,3.9828,3.9625,3.9625,3.945,3.9015,3.8957,3.8754,3.826,3.8202,3.8202,3.8202,3.8202,3.8202,3.8202,3.8202,3.8202,3.8202,3.8202,3.8202,3.8202,3.8202,3.8202,3.8202,3.8202,3.8202,3.8202,3.8725,3.8957,3.8957,3.8957,3.9567,4.0612,4.0612,4.1076,4.1831,4.1831,4.1947,4.2092,4.2092,4.2092,4.2092,4.2092,4.2092,4.2092,4.2092,4.2092,4.2092,4.2092,4.2092,4.2092,4.2092,4.2092,4.2092,4.2092,4.2092,4.2092,4.2092,4.2092,4.2121,4.2295,4.2324,4.2295,4.2121,4.2092,4.2092,4.2092,4.2092,4.2092,4.2092,4.2092,4.2092,4.2092,4.2092,4.2092,4.2092,4.2092,4.2092,4.2092,4.2092,4.2092,4.2092,4.2092,4.2092,4.2092,4.2092,4.2092,4.2092,4.2092,4.2092,4.2092,4.1599,4.1599,4.2092,4.1599,4.1599,4.2092,4.2092,4.1939,2.1779,2.4554,2.7461,2.9349,3.1292,3.3061,3.4283,3.5561,3.6635,3.7273,3.7883,3.8289,3.8289,3.8812,3.9044,3.8405,3.8289,3.8289,3.826,3.826,3.8231,3.8202,3.8202,3.8202,3.8202,3.8202,3.8202,3.8202,3.8202,3.8202,3.8202,3.8202,3.8202,3.8202,3.8202,3.8202,3.8202,3.8202,3.8202,3.8202,3.8231,3.826,3.826,3.826,3.8638,3.9305,3.9305,4.0002,4.1163,4.1163,4.1512,4.2092,4.2092,4.2092,4.2092,4.2092,4.2092,4.2092,4.2092,4.2092,4.2092,4.2092,4.2092,4.2092,4.2092,4.2092,4.2092,4.2092,4.2092,4.2092,4.2092,4.2092,4.2237,4.2818,4.2934,4.2789,4.2208,4.2092,4.2092,4.2092,4.2092,4.2092,4.2092,4.2092,4.2092,4.2092,4.2092,4.2092,4.2092,4.2092,4.2092,4.2092,4.2092,4.2092,4.2092,4.2092,4.2092,4.2092,4.2092,4.2092,4.2092,4.2092,4.2092,4.2092,4.2063,4.2063,4.2092,4.2063,4.2063,4.2092,4.2092,4.1939,2.0901,2.2817,2.4766,2.6678,2.8884,3.0857,3.1758,3.3587,3.5386,3.646,3.7186,3.7738,3.8144,3.8405,3.8492,3.8231,3.8202,3.8202,3.8202,3.8202,3.8202,3.8202,3.8202,3.8202,3.8202,3.8202,3.8202,3.8202,3.8202,3.8202,3.8202,3.8202,3.8202,3.8202,3.8202,3.8202,3.8202,3.8202,3.8202,3.8202,3.8202,3.8202,3.8202,3.8202,3.8347,3.8551,3.8551,3.9538,4.1105,4.1105,4.1482,4.2092,4.2092,4.2092,4.2092,4.2092,4.2092,4.2092,4.2092,4.2092,4.2092,4.2092,4.2092,4.2092,4.2092,4.2092,4.2092,4.2092,4.2092,4.2092,4.2092,4.2382,4.2847,4.3485,4.3631,4.3573,4.3369,4.2963,4.2673,4.2673,4.2353,4.2208,4.2615,4.2673,4.2818,4.3253,4.3311,4.3311,4.3311,4.3311,4.3311,4.3311,4.3311,4.3311,4.3311,4.3311,4.3311,4.3311,4.3311,4.3137,4.2702,4.2673,4.2498,4.2121,4.2092,4.2092,4.2092,4.2092,4.2092,4.2092,4.2092,4.2051,1.9653,2.1141,2.262,2.4152,2.63,2.8245,2.9145,3.1293,3.3616,3.5328,3.6373,3.7215,3.8057,3.8202,3.8202,3.8202,3.8202,3.8202,3.8202,3.8202,3.8202,3.8202,3.8202,3.8202,3.8202,3.8202,3.8202,3.8202,3.8202,3.8202,3.8202,3.8202,3.8202,3.8202,3.8202,3.8202,3.8202,3.8202,3.8202,3.8202,3.8202,3.8202,3.8202,3.8202,3.8202,3.8202,3.8202,3.9189,4.0757,4.0757,4.1279,4.2092,4.2092,4.2092,4.2092,4.2092,4.2092,4.2092,4.2092,4.2092,4.2092,4.2092,4.2092,4.2092,4.2092,4.2092,4.2092,4.2092,4.2092,4.215,4.2353,4.3021,4.3747,4.4182,4.4472,4.456,4.4327,4.3602,4.2992,4.2992,4.2498,4.2237,4.2615,4.2847,4.3137,4.3602,4.3863,4.3979,4.3979,4.3979,4.3979,4.3979,4.3979,4.3979,4.3979,4.3979,4.3979,4.3979,4.3979,4.3805,4.334,4.3108,4.2789,4.2411,4.2208,4.2092,4.2092,4.2092,4.2092,4.2092,4.2092,4.2092,0.0,0.0,0.0,2.1743,2.3339,2.511,2.6358,2.8651,3.1208,3.3761,3.5328,3.6606,3.7912,3.8144,3.8144,3.8144,3.8173,3.8202,3.8202,3.8202,3.8202,3.8202,3.8202,3.8202,3.8202,3.8202,3.8202,3.8202,3.8202,3.8202,3.8202,3.8202,3.8202,3.8202,3.8202,3.8202,3.8202,3.8202,3.8202,3.8202,3.8202,3.8202,3.8202,3.8202,3.8202,3.8202,3.8202,3.8928,4.0089,4.0089,4.0873,4.2092,4.2092,4.2092,4.2092,4.2092,4.2092,4.2092,4.2092,4.2092,4.2092,4.2092,4.2092,4.2092,4.2092,4.2092,4.2092,4.2092,4.2092,4.2237,4.2847,4.395,4.4879,4.4908,4.5401,4.5692,4.5053,4.3921,4.3021,4.3021,4.2557,4.215,4.215,4.2644,4.305,4.305,4.3631,4.4037,4.4037,4.4037,4.4037,4.4037,4.4037,4.4037,4.4037,4.4037,4.4037,4.4037,4.4037,4.4037,4.4008,4.3398,4.3021,4.2992,4.2411,4.2121,4.2092,4.2092,4.2092,4.2092,4.2092,4.2092,1.8027,0.0,0.0,0.0,0.0,0.0,2.3136,2.5662,2.8593,3.115,3.3067,3.4777,3.6519,3.6838,3.6838,3.6838,3.7593,3.8202,3.8202,3.8202,3.8202,3.8202,3.8202,3.8202,3.8202,3.8202,3.8202,3.8202,3.8202,3.8202,3.8202,3.8202,3.8202,3.8202,3.8202,3.8202,3.8202,3.8202,3.8202,3.8202,3.8202,3.8202,3.8202,3.8202,3.8202,3.8202,3.8202,3.8928,4.0089,4.0089,4.0873,4.2092,4.2092,4.2092,4.2092,4.2092,4.2092,4.2092,4.2092,4.2092,4.2092,4.2092,4.2092,4.2092,4.2092,4.2092,4.2092,4.2092,4.2092,4.2353,4.3427,4.3979,4.4472,4.5372,4.5372,4.5256,4.5547,4.4618,4.3718,4.3718,4.3573,4.3456,4.3456,4.395,4.4356,4.4356,4.4937,4.5372,4.5372,4.5372,4.5372,4.5372,4.5372,4.5372,4.5372,4.5372,4.5372,4.5372,4.5372,4.514,4.4647,4.4472,4.3921,4.3021,4.2818,4.2528,4.2092,4.2092,4.2092,4.2092,4.2092,4.2092,1.8462,1.8956,1.9391,1.9478,0.0,0.0,2.1481,2.3659,2.63,2.8855,3.0713,3.2454,3.437,3.4719,3.4719,3.4719,3.5793,3.6896,3.7709,3.8057,3.8202,3.8202,3.8202,3.8202,3.8202,3.8202,3.8202,3.8202,3.8202,3.8202,3.8202,3.8202,3.8202,3.8202,3.8202,3.8202,3.8202,3.8202,3.8202,3.8202,3.8202,3.8202,3.8202,3.8202,3.8202,3.8202,3.8202,3.8928,4.0089,4.0089,4.0873,4.2092,4.2092,4.2092,4.2092,4.2092,4.2092,4.2092,4.2092,4.2092,4.2092,4.2092,4.2092,4.2092,4.2092,4.2092,4.2092,4.2092,4.2266,4.2702,4.3718,4.4182,4.4618,4.5634,4.5576,4.5343,4.543,4.5111,4.4705,4.4414,4.4153,4.3979,4.3979,4.4472,4.4879,4.4879,4.5459,4.5895,4.5895,4.5895,4.5895,4.5895,4.5895,4.5895,4.5895,4.5895,4.5895,4.5895,4.5895,4.5721,4.5314,4.5024,4.4414,4.3427,4.3137,4.2702,4.2092,4.2092,4.2092,4.2092,4.2092,4.2092,1.942,2.0262,2.0959,2.0349,2.0553,0.0,2.0814,2.2236,2.4268,2.668,2.8188,2.9639,3.1526,3.1874,3.1874,3.1874,3.2974,3.4632,3.678,3.768,3.8115,3.8202,3.8202,3.8202,3.8202,3.8202,3.8202,3.8202,3.8202,3.8202,3.8202,3.8202,3.8202,3.8202,3.8202,3.8202,3.8202,3.8202,3.8202,3.8202,3.8202,3.8202,3.8202,3.8202,3.8202,3.8202,3.8202,3.8928,4.0089,4.0089,4.0873,4.2092,4.2092,4.2092,4.2092,4.2092,4.2092,4.2092,4.2092,4.2092,4.2092,4.2092,4.2092,4.2092,4.2092,4.2092,4.2092,4.2092,4.2469,4.305,4.3805,4.4385,4.4966,4.5721,4.5837,4.5634,4.5111,4.5401,4.5605,4.5082,4.456,4.4182,4.4095,4.4589,4.4966,4.4908,4.5459,4.5895,4.5895,4.5895,4.5895,4.5895,4.5895,4.5895,4.5895,4.5895,4.5895,4.5895,4.5895,4.5895,4.5895,4.5314,4.4705,4.4095,4.3369,4.2702,4.2092,4.2092,4.2092,4.2092,4.2092,4.2092,2.1423,2.1627,2.1656,2.0988,2.0553,0.0,1.9595,2.0553,2.2004,2.3519,2.4829,2.6187,2.7636,2.7897,2.7897,2.7897,2.9406,3.1758,3.5305,3.6751,3.768,3.8144,3.8202,3.8202,3.8202,3.8202,3.8202,3.8202,3.8202,3.8202,3.8202,3.8202,3.8202,3.8202,3.8202,3.8202,3.8202,3.8202,3.8202,3.8202,3.8202,3.8202,3.8202,3.8202,3.8202,3.8202,3.8202,3.8928,4.0089,4.0089,4.0873,4.2092,4.2092,4.2092,4.2092,4.2092,4.2092,4.2092,4.2092,4.2092,4.2092,4.2092,4.2092,4.2092,4.2092,4.2092,4.2092,4.2092,4.2179,4.2528,4.3689,4.4066,4.4472,4.5605,4.5488,4.5198,4.5605,4.5372,4.5198,4.5605,4.5605,4.5343,4.4821,4.5256,4.5518,4.4966,4.5459,4.5895,4.5895,4.5895,4.5895,4.5895,4.5895,4.5895,4.5895,4.5895,4.5895,4.5895,4.5895,4.5895,4.5895,4.575,4.5372,4.4734,4.3573,4.2702,4.2092,4.2092,4.2092,4.2092,4.2092,4.2092,2.2933,2.2933,2.2701,2.1743,2.1017,0.0,0.0,1.9856,2.0814,2.175,2.2736,2.3693,2.4675,2.4824,2.4824,2.4824,2.6474,2.8623,3.1206,3.4051,3.6199,3.7157,3.7244,3.7244,3.7244,3.7244,3.7244,3.7244,3.7244,3.7389,3.7738,3.7767,3.7883,3.8202,3.8202,3.8202,3.8202,3.8202,3.8202,3.8202,3.8202,3.8202,3.8202,3.8202,3.8202,3.8202,3.8202,3.8928,4.0089,4.0089,4.0873,4.2092,4.2092,4.2092,4.2092,4.2092,4.2092,4.2092,4.2092,4.2092,4.2092,4.2092,4.2092,4.2092,4.2092,4.2092,4.2092,4.2092,4.2324,4.276,4.3747,4.4211,4.4676,4.5663,4.5634,4.5488,4.5808,4.5634,4.5488,4.5808,4.5895,4.5779,4.543,4.5663,4.5779,4.543,4.5663,4.5895,4.5895,4.5895,4.5895,4.5895,4.5895,4.5895,4.5895,4.5895,4.5895,4.5895,4.5895,4.5895,4.5895,4.5895,4.5576,4.4908,4.3979,4.334,4.305,4.305,4.2731,4.2092,4.2092,4.2092,2.4617,2.453,2.4123,2.2701,2.1772,2.0814,0.0,0.0,0.0,2.0524,2.1046,2.1598,2.2098,2.2164,2.2164,2.2164,2.3688,2.5313,2.6593,3.0103,3.3325,3.5328,3.5677,3.5822,3.5938,3.6054,3.6083,3.5938,3.6054,3.6373,3.6896,3.7157,3.7535,3.7999,3.8144,3.8202,3.8202,3.8202,3.8202,3.8202,3.8202,3.8202,3.8202,3.8202,3.8202,3.8202,3.8202,3.8928,4.0089,4.0089,4.0873,4.2092,4.2092,4.2092,4.2092,4.2092,4.2092,4.2092,4.2092,4.2092,4.2092,4.2092,4.2092,4.2092,4.2092,4.2092,4.2121,4.2237,4.2615,4.3166,4.395,4.4531,4.5053,4.5721,4.5895,4.5895,4.5895,4.5895,4.5895,4.5895,4.5895,4.5895,4.5895,4.5895,4.5895,4.5895,4.5895,4.5895,4.5895,4.5895,4.5895,4.5895,4.5895,4.5895,4.5895,4.5895,4.5895,4.5895,4.5895,4.5895,4.5895,4.5895,4.5576,4.4908,4.4414,4.4095,4.3979,4.3979,4.3456,4.2469,4.2469,4.2469,2.726,2.6881,2.6036,2.4152,2.2788,2.1394,1.9537,0.0,1.9246,1.9304,0.0,1.9449,1.9508,0.0,0.0,1.9537,2.0669,2.2004,2.3287,2.4907,2.7723,3.2396,3.3441,3.4022,3.4574,3.5125,3.5276,3.4661,3.5189,3.5537,3.5625,3.6693,3.7331,3.7418,3.7912,3.8202,3.8202,3.8202,3.8202,3.8202,3.8202,3.8202,3.8202,3.8202,3.8202,3.8202,3.8202,3.8928,4.0089,4.0089,4.0873,4.2092,4.2092,4.2092,4.2092,4.2092,4.2092,4.2092,4.2092,4.2092,4.2092,4.2092,4.2092,4.2092,4.2092,4.2092,4.2208,4.2731,4.2934,4.3282,4.4472,4.4821,4.5053,4.5721,4.5895,4.5895,4.5895,4.5895,4.5895,4.5895,4.5895,4.5895,4.5895,4.5895,4.5895,4.5895,4.5895,4.5895,4.5895,4.5895,4.5895,4.5895,4.5895,4.5895,4.5895,4.5895,4.5895,4.5895,4.5895,4.5895,4.5895,4.5895,4.5576,4.4908,4.4821,4.4531,4.3979,4.3979,4.3921,4.3776,4.3776,4.3776,2.8274,2.7549,2.6355,2.4384,2.3223,2.2011,2.0117,1.9943,2.0204,2.0204,0.0,0.0,0.0,0.0,0.0,0.0,2.0407,2.1191,2.1721,2.2614,2.4704,2.871,3.0074,3.1121,3.2077,3.2457,3.2515,3.2222,3.2457,3.3126,3.423,3.5125,3.6141,3.7273,3.7564,3.7854,3.8202,3.8202,3.8202,3.8202,3.8202,3.8202,3.8202,3.8202,3.8202,3.8202,3.8202,3.8928,4.0089,4.0089,4.0873,4.2092,4.2092,4.2092,4.2092,4.2092,4.2092,4.2092,4.2092,4.2092,4.2092,4.2092,4.2092,4.2092,4.2092,4.2324,4.2673,4.2934,4.3515,4.4211,4.4763,4.5169,4.5547,4.5808,4.5895,4.5895,4.5895,4.5895,4.5895,4.5895,4.5895,4.5895,4.5895,4.5895,4.5895,4.5895,4.5895,4.5895,4.5895,4.5895,4.5895,4.5895,4.5895,4.5895,4.5895,4.5895,4.5895,4.5895,4.5895,4.5895,4.5895,4.5895,4.575,4.5488,4.5459,4.5343,4.5082,4.5082,4.5082,4.5082,4.4327,4.3979,2.929,2.8302,2.682,2.4704,2.3688,2.262,2.0582,2.0698,2.1278,2.1278,2.1423,0.0,0.0,0.0,0.0,0.0,0.0,2.0698,2.0494,2.0901,2.2323,2.5371,2.7171,2.8622,2.9697,2.9987,3.0075,3.0075,3.0219,3.1003,3.2632,3.379,3.5125,3.6722,3.7128,3.7593,3.8202,3.8202,3.8202,3.8202,3.8202,3.8202,3.8202,3.8202,3.8202,3.8202,3.8202,3.8928,4.0089,4.0089,4.0873,4.2092,4.2092,4.2092,4.2092,4.2092,4.2092,4.2092,4.2092,4.2092,4.2092,4.2092,4.2092,4.2092,4.2092,4.2498,4.3021,4.3224,4.4037,4.4937,4.5111,4.5518,4.5895,4.5895,4.5895,4.5895,4.5895,4.5895,4.5895,4.5895,4.5895,4.5895,4.5895,4.5895,4.5895,4.5895,4.5895,4.5895,4.5895,4.5895,4.5895,4.5895,4.5895,4.5895,4.5895,4.5895,4.5895,4.5895,4.5895,4.5895,4.5895,4.5895,4.5895,4.5895,4.5895,4.5895,4.5895,4.5895,4.5895,4.5866,4.4937,4.4501,3.0714,2.961,2.8041,2.5487,2.4355,2.3194,2.0669,2.1075,2.1975,2.1975,2.2417,2.283,2.283,0.0,0.0,0.0,0.0,0.0,0.0,1.9188,2.0146,2.2714,2.5313,2.7113,2.7724,2.839,2.8767,2.8767,2.9319,2.9958,3.0656,3.3064,3.4719,3.545,3.6664,3.7593,3.8202,3.8202,3.8202,3.8202,3.8202,3.8202,3.8202,3.8202,3.8202,3.8202,3.8202,3.8928,4.0089,4.0089,4.0873,4.2092,4.2092,4.2092,4.2092,4.2092,4.2092,4.2092,4.2092,4.2092,4.2092,4.2092,4.2092,4.2092,4.2092,4.2498,4.3137,4.3776,4.4414,4.5024,4.5692,4.5866,4.5895,4.5895,4.5895,4.5895,4.5895,4.5895,4.5895,4.5895,4.5895,4.5895,4.5895,4.5895,4.5895,4.5895,4.5895,4.5895,4.5895,4.5895,4.5895,4.5895,4.5895,4.5895,4.5895,4.5895,4.5895,4.5895,4.5895,4.5895,4.5895,4.5895,4.5895,4.5895,4.5895,4.5895,4.5895,4.5895,4.5895,4.5895,4.5837,4.5837,3.1932,3.0916,2.9464,2.7287,2.6271,2.5255,2.3107,2.3281,2.4036,2.4413,2.4675,2.4965,2.54,0.0,0.0,0.0,0.0,0.0,0.0,0.0,1.9595,2.088,2.291,2.4476,2.5139,2.5749,2.63,2.6762,2.6968,2.7926,2.9842,3.1524,3.3383,3.5334,3.6199,3.7157,3.8202,3.8202,3.8202,3.8202,3.8202,3.8202,3.8202,3.8202,3.8202,3.8202,3.8202,3.8928,4.0089,4.0089,4.0873,4.2092,4.2092,4.2092,4.2092,4.2092,4.2092,4.2092,4.2092,4.2092,4.2092,4.2092,4.2092,4.2179,4.2557,4.3137,4.3776,4.4414,4.5053,4.5605,4.5837,4.5895,4.5895,4.5895,4.5895,4.5895,4.5895,4.5895,4.5895,4.5895,4.5895,4.5895,4.5895,4.5895,4.5895,4.5895,4.5895,4.5895,4.5895,4.5895,4.5895,4.5895,4.5895,4.5895,4.5895,4.5895,4.5895,4.5895,4.5895,4.5895,4.5895,4.5895,4.5895,4.5895,4.5895,4.5895,4.5895,4.5895,4.5895,4.5895,4.5895,4.5895,3.2539,3.1729,3.051,2.8797,2.7926,2.6965,2.5019,2.5255,2.5952,2.6123,2.6678,2.7287,2.7723,0.0,0.0,0.0,0.0,0.0,0.0,1.9101,1.9294,1.9769,2.1291,2.2636,2.3455,2.3943,2.4554,2.5371,2.5458,2.6504,2.8797,3.0364,3.2367,3.4985,3.5851,3.6925,3.8202,3.8202,3.8202,3.8202,3.8202,3.8202,3.8202,3.8202,3.8202,3.8202,3.8463,3.9131,4.0118,4.035,4.1105,4.2092,4.2092,4.2092,4.2092,4.2092,4.2092,4.2092,4.2092,4.2092,4.2092,4.2092,4.2237,4.2498,4.2876,4.3602,4.4385,4.4763,4.5372,4.5895,4.5895,4.5895,4.5895,4.5895,4.5895,4.5895,4.5895,4.5895,4.5895,4.5895,4.5895,4.5895,4.5895,4.5895,4.5895,4.5895,4.5895,4.5895,4.5895,4.5895,4.5895,4.5895,4.5895,4.5895,4.5895,4.5895,4.5895,4.5895,4.5895,4.5895,4.5895,4.5895,4.5895,4.5895,4.5895,4.5895,4.5895,4.5895,4.5895,4.5895,4.5895,4.5895]}]]